[[{"header":{"parameterUnit":"m.s-1","parameterCategory":1,"la1":31.0,"la2":29.5877,"lo1":-88.7671,"lo2":-86.6584,"dy":0.0162,"dx":0.0185,"nx":115,"ny":88,"refTime":"2023-09-07T00:00:00:Z","depth":0,"parameterNumber":2,"parameterNumberName":"U-component_of_WINDS"},"data":[0.0,0.0,0.0,0.0,0.0,0.0,0.0,0.0,0.0,0.0,0.0,0.0,0.0,0.0,0.0,0.0,0.0,0.0,0.0,0.0,0.0,0.0,0.0,0.0,0.0,0.0,0.0,0.0,0.0,0.0,0.0,0.0,0.0,0.0,0.0,0.0,0.0,0.0,0.0,0.0,0.0,0.0,0.0,0.0,0.0,0.0,0.0,0.0,0.0,0.0,0.0,0.0,0.0,0.0,0.0,0.0,0.0,0.0,0.0,0.0,0.0,0.0,0.0,0.0,0.0,0.0,0.0,0.0,0.0,0.0,0.0,0.0,0.0,0.0,0.0,0.0,0.0,0.0,0.0,0.0,0.0,0.0,0.0,0.0,0.0,0.0,0.0,0.0,0.0,0.0,0.0,0.0,0.0,0.0,0.0,0.0,0.0,0.0,0.0,0.0,0.0,0.0,0.0,0.0,0.0,0.0,0.0,0.0,0.0,0.0,0.0,0.0,0.0,0.0,0.0,0.0,0.0,0.0,0.0,0.0,0.0,0.0,0.0,0.0,0.0,0.0,0.0,0.0,0.0,0.0,0.0,0.0,0.0,0.0,0.0,0.0,0.0,0.0,0.0,0.0,0.0,0.0,0.0,0.0,0.0,0.0,0.0,0.0,0.0,0.0,0.0,0.0,0.0,0.0,0.0,0.0,0.0,0.0,0.0,0.0,0.0,0.0,0.0,0.0,0.0,0.0,0.0,0.0,0.0,0.0,0.0,0.0,0.0,0.0,0.0,0.0,0.0,0.0,0.0,0.0,0.0,0.0,0.0,0.0,0.0,0.0,0.0,0.0,0.0,0.0,0.0,0.0,0.0,0.0,0.0,0.0,0.0,0.0,0.0,0.0,0.0,0.0,0.0,0.0,0.0,0.0,0.0,0.0,0.0,0.0,0.0,0.0,0.0,0.0,0.0,0.0,0.0,0.0,0.0,0.0,0.0,0.0,0.0,0.0,0.0,0.0,0.0,0.0,0.0,0.0,0.0,0.0,0.0,0.0,0.0,0.0,0.0,0.0,0.0,0.0,0.0,0.0,0.0,0.0,0.0,0.0,0.0,0.0,0.0,0.0,0.0,0.0,0.0,0.0,0.0,0.0,0.0,0.0,0.0,0.0,0.0,0.0,0.0,0.0,0.0,0.0,0.0,0.0,0.0,0.0,0.0,0.0,0.0,0.0,0.0,0.0,0.0,0.0,0.0,0.0,0.0,0.0,0.0,0.0,0.0,0.0,0.0,0.0,0.0,0.0,0.0,0.0,0.0,0.0,0.0,0.0,0.0,0.0,0.0,0.0,0.0,0.0,0.0,0.0,0.0,0.0,0.0,0.0,0.0,0.0,0.0,0.0,0.0,0.0,0.0,0.0,0.0,0.0,0.0,0.0,0.0,0.0,0.0,0.0,0.0,0.0,0.0,0.0,0.0,0.0,0.0,0.0,0.0,0.0,0.0,0.0,0.0,0.0,0.0,0.0,0.0,0.0,0.0,0.0,0.0,0.0,0.0,0.0,0.0,0.0,0.0,0.0,0.0,0.0,0.0,0.0,0.0,0.0,0.0,0.0,0.0,0.0,0.0,0.0,0.0,0.0,0.0,0.0,0.0,0.0,0.0,0.0,0.0,0.0,0.0,0.0,0.0,0.0,0.0,0.0,0.0,0.0,0.0,0.0,0.0,0.0,0.0,0.0,0.0,0.0,0.0,0.0,0.0,0.0,0.0,0.0,0.0,0.0,0.0,0.0,0.0,0.0,0.0,0.0,0.0,0.0,0.0,0.0,0.0,0.0,0.0,0.0,0.0,0.0,0.0,0.0,0.0,0.0,0.0,0.0,0.0,0.0,0.0,0.0,0.0,0.0,0.0,0.0,0.0,0.0,0.0,0.0,0.0,0.0,0.0,0.0,0.0,0.0,0.0,0.0,0.0,0.0,0.0,0.0,0.0,0.0,0.0,0.0,0.0,0.0,0.0,0.0,0.0,0.0,0.0,0.0,0.0,0.0,0.0,0.0,0.0,0.0,0.0,0.0,0.0,0.0,0.0,0.0,0.0,0.0,0.0,0.0,0.0,0.0,0.0,0.0,0.0,0.0,0.0,0.0,0.0,0.0,0.0,0.0,0.0,0.0,0.0,0.0,0.0,0.0,0.0,0.0,0.0,0.0,0.0,0.0,0.0,0.0,0.0,0.0,0.0,0.0,0.0,0.0,0.0,0.0,0.0,0.0,0.0,0.0,0.0,0.0,0.0,0.0,0.0,0.0,0.0,0.0,0.0,0.0,0.0,0.0,0.0,0.0,0.0,0.0,0.0,0.0,0.0,0.0,0.0,0.0,0.0,0.0,0.0,0.0,0.0,0.0,0.0,0.0,0.0,0.0,0.0,0.0,0.0,0.0,0.0,0.0,0.0,0.0,0.0,0.0,0.0,0.0,0.0,0.0,0.0,0.0,0.0,0.0,0.0,0.0,0.0,0.0,0.0,0.0,0.0,0.0,0.0,0.0,0.0,0.0,0.0,0.0,0.0,0.0,0.0,0.0,0.0,0.0,0.0,0.0,0.0,0.0,0.0,0.0,0.0,0.0,0.0,0.0,0.0,0.0,0.0,0.0,0.0,0.0,0.0,0.0,0.0,0.0,0.0,0.0,0.0,0.0,0.0,0.0,0.0,0.0,0.0,0.0,0.0,0.0,0.0,0.0,0.0,0.0,0.0,0.0,0.0,0.0,0.0,0.0,0.0,0.0,0.0,0.0,0.0,0.0,0.0,0.0,0.0,0.0,0.0,0.0,0.0,0.0,0.0,0.0,0.0,0.0,0.0,0.0,0.0,0.0,0.0,0.0,0.0,0.0,0.0,0.0,0.0,0.0,0.0,0.0,0.0,0.0,0.0,0.0,0.0,0.0,0.0,0.0,0.0,0.0,0.0,0.0,0.0,0.0,0.0,0.0,0.0,0.0,0.0,0.0,0.0,0.0,0.0,0.0,0.0,0.0,0.0,0.0,0.0,0.0,0.0,0.0,0.0,0.0,0.0,0.0,0.0,0.0,0.0,0.0,0.0,0.0,0.0,0.0,0.0,0.0,0.0,0.0,0.0,0.0,0.0,0.0,0.0,0.0,0.0,0.0,0.0,0.0,0.0,0.0,0.0,0.0,0.0,0.0,0.0,0.0,0.0,0.0,0.0,0.0,0.0,0.0,0.0,0.0,0.0,0.0,0.0,0.0,0.0,0.0,0.0,0.0,0.0,0.0,0.0,0.0,0.0,0.0,0.0,0.0,0.0,0.0,0.0,0.0,0.0,0.0,0.0,0.0,0.0,0.0,0.0,0.0,0.0,0.0,0.0,0.0,0.0,0.0,0.0,0.0,0.0,0.0,0.0,0.0,0.0,0.0,0.0,0.0,0.0,0.0,0.0,0.0,0.0,0.0,0.0,0.0,0.0,0.0,0.0,0.0,0.0,0.0,0.0,0.0,0.0,0.0,0.0,0.0,0.0,0.0,0.0,0.0,0.0,0.0,0.0,0.0,0.0,0.0,0.0,0.0,0.0,0.0,0.0,0.0,0.0,0.0,0.0,0.0,0.0,0.0,0.0,0.0,0.0,0.0,0.0,0.0,0.0,0.0,0.0,0.0,0.0,0.0,0.0,0.0,0.0,0.0,0.0,0.0,0.0,0.0,0.0,0.0,0.0,0.0,0.0,0.0,0.0,0.0,0.0,0.0,0.0,0.0,0.0,0.0,0.0,0.0,0.0,0.0,0.0,0.0,0.0,0.0,0.0,0.0,0.0,0.0,0.0,0.0,0.0,0.0,0.0,0.0,0.0,0.0,0.0,0.0,0.0,0.0,0.0,0.0,0.0,0.0,0.0,0.0,0.0,0.0,0.0,0.0,0.0,0.0,0.0,0.0,0.0,0.0,0.0,0.0,0.0,0.0,0.0,0.0,0.0,0.0,0.0,0.0,0.0,0.0,0.0,0.0,0.0,0.0,0.0,0.0,0.0,0.0,0.0,0.0,0.0,0.0,0.0,0.0,0.0,0.0,0.0,0.0,0.0,0.0,0.0,0.0,0.0,0.0,0.0,0.0,0.0,0.0,0.0,0.0,0.0,0.0,0.0,0.0,0.0,0.0,0.0,0.0,0.0,0.0,0.0,0.0,0.0,0.0,0.0,0.0,0.0,0.0,0.0,0.0,0.0,0.0,0.0,0.0,0.0,0.0,0.0,0.0,0.0,0.0,0.0,0.0,0.0,0.0,0.0,0.0,1.2958,0.0,0.0,0.0,0.0,0.0,0.0,0.0,0.0,0.0,0.0,0.0,0.0,0.0,0.0,0.0,0.0,0.0,0.0,0.0,0.0,0.0,0.0,0.0,0.0,0.0,0.0,0.0,0.0,0.0,0.0,0.0,0.0,0.0,0.0,0.0,0.0,0.0,0.0,0.0,0.0,0.0,0.0,0.0,0.0,0.0,0.0,0.0,0.0,0.0,0.0,0.0,0.0,0.0,0.0,0.0,0.0,0.0,0.0,0.0,0.0,0.0,0.0,0.0,0.0,0.0,0.0,0.0,0.0,0.0,0.0,0.0,0.0,0.0,0.0,0.0,0.0,0.0,0.0,0.0,0.0,0.0,0.0,0.0,0.0,0.0,0.0,0.0,0.0,0.0,0.0,0.0,0.0,0.0,0.0,0.0,0.0,0.0,0.0,0.0,0.0,0.0,0.0,0.0,0.0,0.0,0.0,0.0,0.0,0.0,0.0,1.2534,1.2111,1.1255,1.0809,1.0684,0.0,0.0,0.0,0.0,0.0,0.0,0.0,0.0,0.0,0.0,0.0,0.0,0.0,0.0,0.0,0.0,0.0,0.0,0.0,0.0,0.0,0.0,0.0,0.0,0.0,0.0,0.0,0.0,0.0,0.0,0.0,0.0,0.0,0.0,0.0,0.0,0.0,0.0,0.0,0.0,0.0,0.0,0.0,0.0,0.0,0.0,0.0,0.0,0.0,0.0,0.0,0.0,0.0,0.0,0.0,0.0,0.0,0.0,0.0,0.0,0.0,0.0,0.0,0.0,0.0,0.0,0.0,0.0,0.0,0.0,0.0,0.0,0.0,0.0,0.0,0.0,0.0,0.0,0.0,0.0,0.0,0.0,0.0,0.0,0.0,0.0,0.0,0.0,0.0,0.0,0.0,0.0,0.0,0.0,0.0,0.0,0.0,0.0,0.0,0.0,0.0,0.0,0.0,0.0,0.0,0.0,0.0,0.0,0.0,0.0,0.0,0.0,0.9125,0.8466,0.8146,0.0,0.0,0.0,0.0,0.0,0.0,0.0,0.0,0.0,0.0,0.0,0.0,0.0,0.0,0.0,0.0,0.0,0.0,0.0,0.0,0.0,0.0,0.0,0.0,0.0,0.0,0.0,0.0,0.0,0.0,0.0,0.0,0.0,0.0,0.0,0.0,0.0,0.0,0.0,0.0,0.0,0.0,0.0,0.0,0.0,0.0,0.0,0.0,0.0,0.0,0.0,0.0,0.0,0.0,0.0,0.0,0.0,0.0,0.0,0.0,0.0,0.0,0.0,0.0,0.0,0.0,0.0,0.0,0.0,0.0,0.0,0.0,0.0,0.0,0.0,0.0,0.0,0.0,0.0,0.0,0.0,0.0,0.0,0.0,0.0,0.0,0.0,0.0,0.0,0.0,0.0,0.0,0.0,0.0,0.0,0.0,0.0,0.0,0.0,0.0,0.0,0.0,0.0,0.0,0.0,0.0,0.0,0.0,0.0,0.0,0.8444,0.8397,0.644,0.0,0.5274,0.0,0.0,0.0,0.0,0.0,0.0,0.0,0.0,0.0,0.0,0.0,0.0,0.0,0.0,0.0,0.0,0.0,0.0,0.0,0.0,0.0,0.0,0.0,0.0,0.0,0.0,0.0,0.0,0.0,0.0,0.0,0.0,0.0,0.0,0.0,0.0,0.0,0.0,0.0,0.0,0.0,0.0,0.0,0.0,0.0,0.0,0.0,0.0,0.0,0.0,0.0,0.0,0.0,0.0,0.0,0.0,0.0,0.0,0.0,0.0,0.0,0.0,0.0,0.0,0.0,0.0,0.0,0.0,0.0,0.0,0.0,0.0,0.0,0.0,0.0,0.0,0.0,0.0,0.0,0.0,0.0,0.0,0.0,0.0,0.0,0.0,0.0,0.0,0.0,0.0,0.0,0.0,0.0,0.0,0.0,0.0,0.0,0.0,0.0,0.0,0.0,0.0,0.0,0.0,0.0,0.0,0.0,0.0,0.0,0.0,0.4636,0.3815,0.2473,0.176,0.0,0.0,0.0,0.0,0.0,0.0,0.0,0.0,0.0,0.0,0.0,0.0,0.0,0.0,0.0,0.0,0.0,0.0,0.0,0.0,0.0,0.0,0.0,0.0,0.0,0.0,0.0,0.0,0.0,0.0,0.0,0.0,0.0,0.0,0.0,0.0,0.0,0.0,0.0,0.0,0.0,0.0,0.0,0.0,0.0,0.0,0.0,0.0,0.0,0.0,0.0,0.0,0.0,0.0,0.0,0.0,0.0,0.0,0.0,0.0,0.0,0.0,0.0,0.0,0.0,0.0,0.0,0.0,0.0,0.0,0.0,0.0,0.0,0.0,0.0,0.0,0.0,0.0,0.0,0.0,0.0,0.0,0.0,0.0,0.0,0.0,0.0,0.0,0.0,0.0,0.0,0.0,0.0,0.0,0.0,0.0,0.0,0.0,0.0,0.0,0.0,0.0,0.0,0.0,0.0,0.0,0.0,0.0,0.0,0.0,0.1849,0.0171,-0.1491,-0.2293,-0.2279,-0.1406,0.0,0.0,0.0,0.0,0.0,0.0,0.0,0.0,0.0,0.0,0.0,0.0,0.0,0.0,0.0,0.0,0.0,0.0,0.0,0.0,0.0,0.0,0.0,0.0,0.0,0.0,0.0,0.0,0.0,0.0,0.0,0.0,0.0,0.0,0.0,0.0,0.0,0.0,0.0,0.0,0.0,0.0,0.0,0.0,0.0,0.0,0.0,0.0,0.0,0.0,0.0,0.0,0.0,0.0,0.0,0.0,0.0,0.0,0.0,0.0,0.0,0.0,0.0,0.0,0.0,0.0,0.0,0.0,0.0,0.0,0.0,0.0,0.0,0.0,0.0,0.0,0.0,0.0,0.0,0.0,0.0,0.0,0.0,0.0,0.0,0.0,0.0,0.0,0.0,0.0,0.0,0.0,0.0,0.0,0.0,0.0,0.0,0.0,0.0,0.0,0.0,0.0,0.0,0.0,0.0,0.0,0.0,0.0,-0.1436,-0.3085,-0.4949,-0.723,-0.7854,-0.6884,0.0,0.0,0.0,0.0,0.0,0.0,0.0,0.0,0.0,0.0,0.0,0.0,0.0,0.0,0.0,0.0,0.0,0.0,0.0,0.0,0.0,0.0,0.0,0.0,0.0,0.0,0.0,0.0,0.0,0.0,0.0,0.0,0.0,0.0,0.0,0.0,0.0,0.0,0.0,0.0,0.0,0.0,0.0,0.0,0.0,0.0,0.0,0.0,0.0,0.0,0.0,0.0,0.0,0.0,0.0,0.0,0.0,0.0,0.0,0.0,0.0,0.0,0.0,0.0,0.0,0.0,0.0,0.0,0.0,0.0,0.0,0.0,0.0,0.0,0.0,0.0,0.0,0.0,0.0,0.0,0.0,0.0,0.0,0.0,0.0,0.0,0.0,0.0,0.0,0.0,0.0,0.0,0.0,0.0,0.0,0.0,0.0,0.0,0.0,0.0,0.0,0.0,0.0,0.0,0.0,0.0,0.0,0.0,0.0,-0.5944,-0.9521,-1.1885,-1.2998,-1.2006,-1.0179,0.0,0.0,0.0,0.0,0.0,0.0,0.0,0.0,0.0,0.0,0.0,0.0,0.0,0.0,0.0,0.0,0.0,0.0,0.0,0.0,0.0,0.0,0.0,0.0,0.0,0.0,0.0,0.0,0.0,0.0,0.0,0.0,0.0,0.0,0.0,0.0,0.0,0.0,0.0,0.0,0.0,0.0,0.0,0.0,0.0,0.0,0.0,0.0,0.0,0.0,0.0,0.0,0.0,0.0,0.0,0.0,0.0,0.0,0.0,0.0,0.0,0.0,0.0,0.0,0.0,0.0,0.0,0.0,0.0,0.0,0.0,0.0,0.0,0.0,0.0,0.0,0.0,0.0,0.0,0.0,0.0,0.0,0.0,0.0,0.0,0.0,0.0,0.0,0.0,0.0,0.0,0.0,0.0,0.0,0.0,0.0,0.0,0.0,0.0,0.0,0.0,0.0,0.0,0.0,0.0,0.0,0.0,0.0,0.0,-1.257,0.0,-1.8285,-1.8478,-1.6437,-1.4147,0.0,0.0,0.0,0.0,0.0,0.0,0.0,0.0,0.0,0.0,0.0,0.0,0.0,0.0,0.0,0.0,0.0,0.0,0.0,0.0,0.0,0.0,0.0,0.0,0.0,0.0,0.0,0.0,0.0,0.0,0.0,0.0,0.0,0.0,0.0,0.0,0.0,0.0,0.0,0.0,0.0,0.0,0.0,0.0,0.0,0.0,0.0,0.0,0.0,0.0,0.0,0.0,0.0,0.0,0.0,0.0,0.0,0.0,0.0,0.0,0.0,0.0,0.0,0.0,0.0,0.0,0.0,0.0,0.0,0.0,0.0,0.0,0.0,0.0,0.0,0.0,0.0,0.0,0.0,0.0,0.0,0.0,0.0,0.0,0.0,0.0,0.0,0.0,0.0,0.0,0.0,0.0,0.0,0.0,0.0,0.0,0.0,0.0,0.0,0.0,0.0,0.0,0.0,0.0,0.0,0.0,0.0,0.0,-1.3455,-2.161,-2.3229,-2.3844,-2.3699,-2.1309,-1.8799,0.0,0.0,0.0,0.0,0.0,0.0,0.0,0.0,0.0,0.0,0.0,0.0,0.0,0.0,0.0,0.0,0.0,0.0,0.0,0.0,0.0,0.0,0.0,0.0,0.0,0.0,0.0,0.0,0.0,0.0,0.0,0.0,0.0,0.0,0.0,0.0,0.0,0.0,0.0,0.0,0.0,0.0,0.0,0.0,0.0,0.0,0.0,0.0,0.0,0.0,0.0,0.0,0.0,0.0,0.0,0.0,0.0,0.0,0.0,0.0,0.0,0.0,0.0,0.0,0.0,0.0,0.0,0.0,0.0,0.0,0.0,0.0,0.0,0.0,0.0,0.0,0.0,0.0,0.0,0.0,0.0,0.0,0.0,0.0,0.0,0.0,0.0,0.0,0.0,0.0,0.0,0.0,0.0,0.0,0.0,0.0,0.0,0.0,0.0,0.0,0.0,0.0,0.0,0.0,0.0,0.0,0.0,0.0,0.0,-2.7797,-2.8555,-2.8764,-2.8378,-2.5314,-2.2088,0.0,0.0,0.0,0.0,0.0,0.0,0.0,0.0,0.0,0.0,0.0,0.0,0.0,0.0,0.0,0.0,0.0,0.0,0.0,0.0,0.0,0.0,0.0,0.0,0.0,0.0,0.0,0.0,0.0,0.0,0.0,0.0,0.0,0.0,0.0,0.0,0.0,0.0,0.0,0.0,0.0,0.0,0.0,0.0,0.0,0.0,0.0,0.0,0.0,0.0,0.0,0.0,0.0,0.0,0.0,0.0,0.0,0.0,0.0,0.0,0.0,0.0,0.0,0.0,0.0,0.0,0.0,0.0,0.0,0.0,0.0,0.0,0.0,0.0,0.0,0.0,0.0,0.0,0.0,0.0,0.0,0.0,0.0,0.0,0.0,0.0,0.0,0.0,0.0,0.0,0.0,0.0,0.0,0.0,0.0,0.0,0.0,0.0,0.0,0.0,0.0,0.0,0.0,0.0,0.0,0.0,0.0,0.0,0.0,-3.335,-3.3315,-3.311,-3.2809,-2.944,-2.5903,-2.2207,0.0,0.0,0.0,0.0,0.0,0.0,0.0,0.0,0.0,0.0,0.0,0.0,0.0,0.0,0.0,0.0,0.0,0.0,0.0,0.0,0.0,0.0,0.0,0.0,0.0,0.0,0.0,0.0,0.0,0.0,0.0,0.0,0.0,0.0,0.0,0.0,0.0,0.0,0.0,0.0,0.0,0.0,0.0,0.0,0.0,0.0,0.0,0.0,0.0,0.0,0.0,0.0,0.0,0.0,0.0,0.0,0.0,0.0,0.0,0.0,0.0,0.0,0.0,0.0,0.0,0.0,0.0,0.0,0.0,0.0,0.0,0.0,0.0,0.0,0.0,0.0,0.0,0.0,0.0,0.0,0.0,0.0,0.0,0.0,0.0,0.0,0.0,0.0,0.0,0.0,0.0,0.0,0.0,0.0,0.0,0.0,0.0,0.0,0.0,0.0,0.0,0.0,0.0,0.0,0.0,0.0,0.0,0.0,-3.8316,-3.7656,-3.71,-3.6649,-3.3395,-2.9913,0.0,0.0,0.0,0.0,0.0,0.0,0.0,0.0,0.0,0.0,0.0,0.0,0.0,0.0,0.0,0.0,0.0,0.0,0.0,0.0,0.0,0.0,0.0,0.0,0.0,0.0,0.0,0.0,0.0,0.0,0.0,0.0,0.0,0.0,0.0,0.0,0.0,0.0,0.0,0.0,0.0,0.0,0.0,0.0,0.0,0.0,0.0,0.0,0.0,0.0,0.0,0.0,0.0,0.0,0.0,0.0,0.0,0.0,0.0,0.0,0.0,0.0,0.0,0.0,0.0,0.0,0.0,0.0,0.0,0.0,0.0,0.0,0.0,0.0,0.0,0.0,0.0,0.0,0.0,0.0,0.0,0.0,0.0,0.0,0.0,0.0,0.0,0.0,0.0,0.0,0.0,0.0,0.0,0.0,0.0,0.0,0.0,0.0,0.0,0.0,0.0,0.0,0.0,0.0,0.0,0.0,0.0,0.0,0.0,-4.0063,-4.1437,-4.1237,-3.9231,-3.5506,-3.1811,0.0,0.0,0.0,0.0,0.0,0.0,0.0,0.0,0.0,0.0,0.0,0.0,0.0,0.0,0.0,0.0,0.0,0.0,0.0,0.0,0.0,0.0,0.0,0.0,0.0,0.0,0.0,0.0,0.0,0.0,0.0,0.0,0.0,0.0,0.0,0.0,0.0,0.0,0.0,0.0,0.0,0.0,0.0,0.0,0.0,0.0,0.0,0.0,0.0,0.0,0.0,0.0,0.0,0.0,0.0,0.0,0.0,0.0,0.0,0.0,0.0,0.0,0.0,0.0,0.0,0.0,0.0,0.0,0.0,0.0,0.0,0.0,0.0,0.0,0.0,0.0,0.0,0.0,0.0,0.0,0.0,0.0,0.0,0.0,0.0,0.0,0.0,0.0,0.0,0.0,0.0,0.0,0.0,0.0,0.0,0.0,0.0,0.0,0.0,0.0,0.0,0.0,0.0,0.0,0.0,0.0,0.0,0.0,-3.9332,-4.1364,-4.3047,-4.3292,-4.1999,-3.7682,-3.3775,0.0,0.0,0.0,0.0,0.0,0.0,0.0,0.0,0.0,0.0,0.0,0.0,0.0,0.0,0.0,0.0,0.0,0.0,0.0,0.0,0.0,0.0,0.0,0.0,0.0,0.0,0.0,0.0,0.0,0.0,0.0,0.0,0.0,0.0,0.0,0.0,0.0,0.0,0.0,0.0,0.0,0.0,0.0,0.0,0.0,0.0,0.0,0.0,0.0,0.0,0.0,0.0,0.0,0.0,0.0,0.0,0.0,0.0,0.0,0.0,0.0,0.0,0.0,0.0,0.0,0.0,0.0,0.0,0.0,0.0,0.0,0.0,0.0,0.0,0.0,0.0,0.0,0.0,0.0,0.0,0.0,0.0,0.0,0.0,0.0,0.0,0.0,0.0,0.0,0.0,0.0,0.0,0.0,0.0,0.0,0.0,0.0,0.0,0.0,0.0,0.0,0.0,0.0,0.0,0.0,0.0,0.0,0.0,-3.9713,-4.2089,-4.3326,-4.4079,-4.4199,-3.9655,-3.5584,0.0,0.0,0.0,0.0,0.0,0.0,0.0,0.0,0.0,0.0,0.0,0.0,0.0,0.0,0.0,0.0,0.0,0.0,0.0,0.0,0.0,0.0,0.0,0.0,0.0,0.0,0.0,0.0,0.0,0.0,0.0,0.0,0.0,0.0,0.0,0.0,0.0,0.0,0.0,0.0,0.0,0.0,0.0,0.0,0.0,0.0,0.0,0.0,0.0,0.0,0.0,0.0,0.0,0.0,0.0,0.0,0.0,0.0,0.0,0.0,0.0,0.0,0.0,0.0,0.0,0.0,0.0,0.0,0.0,0.0,0.0,0.0,0.0,0.0,0.0,0.0,0.0,0.0,0.0,0.0,0.0,0.0,0.0,0.0,0.0,0.0,0.0,0.0,0.0,0.0,0.0,0.0,0.0,0.0,0.0,0.0,0.0,0.0,0.0,0.0,0.0,0.0,0.0,0.0,0.0,0.0,0.0,0.0,-4.073,-4.1724,-4.3752,-4.4554,-4.4005,-4.014,-3.6619,0.0,0.0,0.0,0.0,0.0,0.0,0.0,0.0,0.0,0.0,0.0,0.0,0.0,0.0,0.0,0.0,0.0,0.0,0.0,0.0,0.0,0.0,0.0,0.0,0.0,0.0,0.0,0.0,0.0,0.0,0.0,0.0,0.0,0.0,0.0,0.0,0.0,0.0,0.0,0.0,0.0,0.0,0.0,0.0,0.0,0.0,0.0,0.0,-2.6077,0.0,0.0,0.0,0.0,0.0,0.0,0.0,0.0,0.0,0.0,0.0,0.0,0.0,0.0,0.0,0.0,0.0,0.0,0.0,0.0,0.0,0.0,0.0,0.0,0.0,0.0,0.0,0.0,0.0,0.0,0.0,0.0,0.0,0.0,0.0,0.0,0.0,0.0,0.0,0.0,0.0,0.0,0.0,0.0,0.0,0.0,0.0,0.0,0.0,0.0,0.0,0.0,0.0,0.0,0.0,0.0,0.0,0.0,0.0,-4.1222,-4.217,-4.4015,-4.448,-4.329,-4.0732,-3.7754,0.0,0.0,0.0,0.0,0.0,0.0,0.0,0.0,0.0,0.0,0.0,0.0,0.0,0.0,0.0,0.0,0.0,0.0,0.0,0.0,0.0,0.0,0.0,0.0,0.0,0.0,0.0,0.0,0.0,0.0,0.0,0.0,0.0,0.0,0.0,0.0,0.0,0.0,0.0,0.0,0.0,0.0,0.0,0.0,0.0,0.0,0.0,0.0,0.0,0.0,0.0,0.0,0.0,0.0,0.0,0.0,0.0,0.0,0.0,0.0,0.0,0.0,0.0,0.0,0.0,0.0,0.0,0.0,0.0,0.0,0.0,0.0,0.0,0.0,0.0,0.0,0.0,0.0,0.0,0.0,0.0,0.0,0.0,0.0,0.0,0.0,0.0,0.0,0.0,0.0,0.0,0.0,0.0,0.0,0.0,0.0,0.0,0.0,0.0,0.0,0.0,0.0,0.0,0.0,0.0,0.0,0.0,-3.905,-4.1335,-4.2679,-4.4135,-4.4146,-4.2623,-4.1211,-3.8679,-3.4813,0.0,0.0,0.0,0.0,0.0,0.0,0.0,0.0,0.0,0.0,0.0,0.0,0.0,0.0,0.0,0.0,0.0,0.0,0.0,0.0,0.0,0.0,0.0,0.0,0.0,0.0,0.0,0.0,0.0,0.0,0.0,0.0,0.0,0.0,0.0,0.0,0.0,0.0,-1.892,-2.5802,0.0,0.0,0.0,0.0,0.0,0.0,0.0,0.0,-3.2788,0.0,0.0,0.0,0.0,0.0,0.0,0.0,0.0,0.0,0.0,0.0,0.0,0.0,0.0,0.0,0.0,0.0,0.0,0.0,0.0,0.0,0.0,0.0,0.0,0.0,0.0,0.0,0.0,0.0,0.0,0.0,0.0,0.0,0.0,0.0,0.0,0.0,0.0,0.0,0.0,0.0,0.0,0.0,0.0,0.0,0.0,0.0,0.0,0.0,0.0,0.0,0.0,0.0,0.0,0.0,0.0,-3.6663,-3.9284,-4.1154,-4.228,-4.4004,-4.4016,-4.2179,-4.1223,-3.8686,-3.4421,0.0,0.0,0.0,0.0,0.0,0.0,0.0,0.0,0.0,0.0,0.0,0.0,0.0,0.0,0.0,0.0,0.0,0.0,0.0,0.0,0.0,0.0,0.0,0.0,0.0,0.0,0.0,0.0,0.0,0.0,0.0,0.0,0.0,0.0,0.0,0.0,0.0,0.0,0.0,-3.0975,-3.4017,0.0,0.0,0.0,0.0,0.0,0.0,0.0,0.0,-3.4666,0.0,0.0,0.0,0.0,0.0,0.0,0.0,0.0,0.0,0.0,0.0,0.0,0.0,0.0,0.0,0.0,0.0,0.0,0.0,0.0,0.0,0.0,0.0,0.0,0.0,0.0,0.0,0.0,0.0,0.0,0.0,0.0,0.0,0.0,0.0,0.0,0.0,0.0,0.0,0.0,0.0,0.0,0.0,0.0,0.0,0.0,0.0,0.0,0.0,0.0,0.0,0.0,0.0,0.0,0.0,-3.6791,-3.871,-4.0272,-4.1539,-4.2547,-4.2292,-4.0802,-3.9745,-3.7466,0.0,0.0,0.0,0.0,0.0,0.0,0.0,0.0,0.0,0.0,0.0,0.0,0.0,0.0,0.0,0.0,0.0,0.0,0.0,0.0,0.0,0.0,0.0,0.0,0.0,0.0,0.0,0.0,0.0,0.0,0.0,0.0,0.0,0.0,0.0,0.0,0.0,0.0,0.0,0.0,-3.4549,-3.7438,-4.0141,0.0,0.0,0.0,0.0,0.0,0.0,-3.8428,-3.7156,0.0,0.0,0.0,0.0,0.0,0.0,0.0,0.0,0.0,0.0,0.0,0.0,0.0,0.0,0.0,0.0,0.0,0.0,0.0,0.0,0.0,0.0,0.0,0.0,0.0,0.0,0.0,0.0,0.0,0.0,0.0,0.0,0.0,0.0,0.0,0.0,0.0,0.0,0.0,0.0,0.0,0.0,0.0,0.0,0.0,0.0,0.0,0.0,0.0,0.0,0.0,0.0,0.0,0.0,0.0,-3.6864,-3.8314,-3.9578,-4.0704,-4.1101,-4.059,-3.9197,-3.815,-3.6101,0.0,0.0,0.0,0.0,0.0,0.0,0.0,0.0,0.0,0.0,0.0,0.0,0.0,0.0,0.0,0.0,0.0,0.0,0.0,0.0,0.0,0.0,0.0,0.0,0.0,0.0,0.0,0.0,0.0,0.0,0.0,0.0,0.0,0.0,0.0,0.0,0.0,0.0,0.0,0.0,0.0,-4.03,-4.3444,-4.2822,0.0,0.0,0.0,0.0,-4.0226,-4.0049,0.0,0.0,0.0,0.0,0.0,0.0,0.0,0.0,0.0,0.0,0.0,0.0,0.0,0.0,0.0,0.0,0.0,0.0,0.0,0.0,0.0,0.0,0.0,0.0,0.0,0.0,0.0,0.0,0.0,0.0,0.0,0.0,0.0,0.0,0.0,0.0,0.0,0.0,0.0,0.0,0.0,0.0,0.0,0.0,0.0,0.0,0.0,0.0,0.0,0.0,0.0,0.0,0.0,0.0,0.0,0.0,-3.7349,-3.8916,-3.9768,-3.9949,-4.0781,-4.0061,-3.7739,-3.7358,-3.5566,0.0,0.0,0.0,0.0,0.0,0.0,0.0,0.0,0.0,0.0,0.0,0.0,0.0,0.0,0.0,0.0,0.0,0.0,0.0,0.0,0.0,0.0,0.0,0.0,0.0,0.0,0.0,0.0,0.0,0.0,0.0,0.0,0.0,0.0,0.0,0.0,0.0,0.0,0.0,0.0,0.0,-4.154,-4.3394,-4.381,-4.3364,0.0,0.0,-4.2138,-4.1416,-4.1937,0.0,0.0,0.0,0.0,0.0,0.0,0.0,0.0,0.0,0.0,0.0,0.0,0.0,0.0,0.0,0.0,0.0,0.0,0.0,0.0,0.0,0.0,0.0,0.0,0.0,0.0,0.0,0.0,0.0,0.0,0.0,0.0,0.0,0.0,0.0,0.0,0.0,0.0,0.0,0.0,0.0,0.0,0.0,0.0,0.0,0.0,0.0,0.0,0.0,0.0,0.0,0.0,0.0,0.0,0.0,-3.4478,-3.7182,-3.7965,-3.8581,-3.9105,-3.901,-3.8151,-3.6516,-3.5717,-3.4129,0.0,0.0,0.0,0.0,0.0,0.0,0.0,0.0,0.0,0.0,0.0,0.0,0.0,0.0,0.0,0.0,0.0,0.0,0.0,0.0,0.0,0.0,0.0,0.0,0.0,0.0,0.0,0.0,0.0,0.0,0.0,0.0,0.0,0.0,0.0,0.0,0.0,0.0,0.0,0.0,0.0,0.0,-4.5088,-4.553,0.0,0.0,0.0,-4.2458,-4.1889,0.0,0.0,0.0,0.0,0.0,0.0,0.0,0.0,0.0,0.0,0.0,0.0,0.0,0.0,0.0,0.0,0.0,0.0,0.0,0.0,0.0,0.0,0.0,0.0,0.0,0.0,0.0,0.0,0.0,0.0,0.0,0.0,0.0,0.0,0.0,0.0,0.0,0.0,0.0,0.0,0.0,0.0,0.0,0.0,0.0,0.0,0.0,0.0,0.0,0.0,0.0,0.0,0.0,0.0,0.0,0.0,0.0,-3.6689,-3.721,-3.7729,-3.8168,-3.747,-3.652,-3.5399,-3.43,0.0,0.0,0.0,0.0,0.0,0.0,0.0,0.0,0.0,0.0,0.0,0.0,0.0,0.0,0.0,0.0,0.0,0.0,0.0,0.0,0.0,0.0,0.0,0.0,0.0,0.0,0.0,-0.9758,0.0,0.0,0.0,0.0,0.0,0.0,0.0,0.0,0.0,0.0,0.0,0.0,0.0,0.0,-4.4192,-4.569,-4.6462,-4.6517,0.0,0.0,-4.2854,-4.1874,-4.1367,-4.0353,0.0,0.0,0.0,0.0,0.0,0.0,0.0,0.0,0.0,0.0,0.0,0.0,0.0,0.0,0.0,0.0,0.0,0.0,0.0,0.0,0.0,0.0,0.0,0.0,0.0,0.0,0.0,0.0,0.0,0.0,0.0,0.0,0.0,0.0,0.0,0.0,0.0,0.0,0.0,0.0,0.0,0.0,0.0,0.0,0.0,0.0,0.0,0.0,0.0,0.0,0.0,0.0,0.0,0.0,0.0,-3.5806,-3.7416,-3.7855,-3.7226,-3.6921,-3.5924,-3.4293,-3.3507,-3.2174,0.0,0.0,0.0,0.0,0.0,0.0,0.0,0.0,0.0,0.0,0.0,0.0,0.0,0.0,0.0,0.0,0.0,0.0,0.0,0.0,0.0,0.0,0.0,0.0,0.0,0.0,0.0,0.0,0.0,0.0,0.0,0.0,0.0,0.0,0.0,0.0,0.0,0.0,0.0,0.0,0.0,-4.4137,-4.3668,-4.5884,-4.6512,0.0,0.0,-4.3605,-4.1319,-4.1965,-4.1535,-3.7841,0.0,0.0,0.0,0.0,0.0,0.0,0.0,0.0,0.0,0.0,0.0,0.0,0.0,0.0,0.0,0.0,0.0,0.0,0.0,0.0,0.0,0.0,0.0,0.0,0.0,0.0,0.0,0.0,0.0,0.0,0.0,0.0,0.0,0.0,0.0,0.0,0.0,0.0,0.0,0.0,0.0,0.0,0.0,0.0,0.0,0.0,0.0,0.0,0.0,0.0,0.0,0.0,0.0,-3.3688,-3.5079,-3.6342,-3.6661,-3.5889,-3.5265,-3.4143,-3.242,-3.2114,-3.1095,0.0,0.0,0.0,0.0,0.0,0.0,0.0,0.0,0.0,0.0,0.0,0.0,0.0,0.0,0.0,0.0,0.0,0.0,0.0,0.0,0.0,0.0,0.0,0.0,0.0,0.0,0.0,0.0,-1.512,-1.5953,-1.6932,0.0,0.0,0.0,0.0,0.0,0.0,0.0,0.0,0.0,0.0,-4.4276,-4.4513,-4.5597,0.0,0.0,-4.3574,-4.2907,-4.1835,-4.142,-4.0403,-3.779,-3.5993,0.0,0.0,0.0,0.0,0.0,0.0,0.0,0.0,0.0,0.0,0.0,0.0,0.0,0.0,0.0,0.0,0.0,0.0,0.0,0.0,0.0,0.0,0.0,0.0,0.0,0.0,0.0,0.0,0.0,0.0,0.0,0.0,0.0,0.0,0.0,0.0,0.0,0.0,0.0,0.0,0.0,0.0,0.0,0.0,0.0,0.0,0.0,0.0,0.0,0.0,0.0,0.0,-3.3056,-3.4315,-3.5201,-3.5368,-3.4753,-3.3923,-3.2635,-3.0959,-3.0912,-3.0076,0.0,0.0,0.0,0.0,0.0,0.0,0.0,0.0,0.0,0.0,0.0,0.0,0.0,0.0,0.0,0.0,0.0,0.0,0.0,0.0,0.0,0.0,0.0,0.0,0.0,0.0,0.0,0.0,-1.7173,-1.8205,-1.9238,0.0,0.0,0.0,0.0,0.0,0.0,0.0,0.0,0.0,0.0,-4.4205,-4.4628,-4.5128,-4.5127,-4.4378,-4.348,-4.266,-4.2157,-4.1276,-3.9975,-3.8288,0.0,0.0,0.0,0.0,0.0,0.0,0.0,0.0,0.0,0.0,0.0,0.0,0.0,0.0,0.0,0.0,0.0,0.0,0.0,0.0,0.0,0.0,0.0,0.0,0.0,0.0,0.0,0.0,0.0,0.0,0.0,0.0,0.0,0.0,0.0,0.0,0.0,0.0,0.0,0.0,0.0,0.0,0.0,0.0,0.0,0.0,0.0,0.0,0.0,0.0,0.0,0.0,0.0,-3.2914,-3.3423,-3.4091,-3.4283,-3.3929,-3.2954,-3.1597,-2.9968,-2.9986,-2.9091,-2.7113,0.0,0.0,0.0,0.0,0.0,0.0,0.0,0.0,0.0,0.0,0.0,0.0,0.0,0.0,0.0,0.0,0.0,0.0,0.0,0.0,0.0,0.0,0.0,0.0,0.0,0.0,-1.8062,-1.9712,-2.1055,0.0,0.0,0.0,0.0,0.0,0.0,0.0,0.0,0.0,0.0,-4.2566,-4.3992,-4.344,-4.4269,-4.458,-4.3805,-4.3595,-4.3235,-4.2238,-4.1607,-4.0825,0.0,0.0,0.0,0.0,0.0,0.0,0.0,0.0,0.0,0.0,0.0,0.0,0.0,0.0,0.0,0.0,0.0,0.0,0.0,0.0,0.0,0.0,0.0,0.0,0.0,0.0,0.0,-3.0845,-3.0399,0.0,0.0,0.0,0.0,0.0,0.0,0.0,0.0,0.0,0.0,0.0,-3.4379,-3.4887,0.0,0.0,0.0,0.0,0.0,0.0,0.0,0.0,0.0,0.0,0.0,0.0,-3.188,-3.274,-3.3142,-3.3088,-3.2599,-3.0828,-2.9419,-2.8379,-2.8155,-2.7707,-2.7101,0.0,0.0,0.0,0.0,0.0,0.0,0.0,0.0,0.0,0.0,0.0,0.0,0.0,0.0,0.0,0.0,0.0,0.0,0.0,0.0,0.0,0.0,0.0,0.0,0.0,-1.8103,0.0,0.0,0.0,0.0,0.0,0.0,0.0,0.0,0.0,0.0,0.0,-3.9767,-4.1915,-4.31,-4.3863,-4.4105,-4.4372,-4.427,0.0,0.0,0.0,0.0,0.0,0.0,0.0,0.0,0.0,0.0,0.0,0.0,0.0,0.0,-3.5209,-3.4566,-3.5058,-3.5384,-3.5196,0.0,0.0,0.0,0.0,0.0,0.0,0.0,0.0,0.0,0.0,0.0,0.0,0.0,0.0,0.0,0.0,-3.2442,0.0,0.0,0.0,0.0,0.0,0.0,0.0,0.0,-3.3992,-3.5217,-3.6211,-3.6362,-3.6128,0.0,-3.4664,-3.2593,0.0,0.0,0.0,0.0,0.0,0.0,0.0,0.0,-3.0895,-3.1918,-3.1757,-3.141,-3.0926,-2.9075,-2.755,-2.6566,-2.6119,-2.6046,-2.6329,-2.5188,-2.4423,0.0,0.0,0.0,0.0,0.0,0.0,0.0,0.0,0.0,0.0,0.0,0.0,0.0,0.0,0.0,0.0,0.0,0.0,0.0,0.0,0.0,0.0,0.0,-2.0717,0.0,0.0,0.0,0.0,0.0,0.0,0.0,0.0,0.0,-3.7122,-3.9163,-4.1165,-4.2928,-4.3427,-4.3721,-4.4158,0.0,0.0,0.0,0.0,0.0,0.0,0.0,-4.0712,-3.9871,-3.9788,-3.974,-3.9295,-3.9141,-3.9154,-3.9476,0.0,0.0,-3.7442,-3.743,-3.7472,-3.7287,-3.6758,-3.6502,-3.707,-3.7293,-3.7451,0.0,0.0,0.0,0.0,0.0,0.0,0.0,0.0,-3.6362,-3.6606,0.0,-3.4859,0.0,0.0,0.0,0.0,0.0,0.0,0.0,0.0,-3.5978,-3.6768,-3.7187,-3.631,-3.6043,-3.632,-3.5043,-3.3894,-3.2764,-3.0348,0.0,0.0,0.0,0.0,0.0,0.0,-3.0011,-3.0969,-2.9967,-2.9282,-2.9012,-2.7689,-2.6165,-2.4505,-2.4092,-2.4195,-2.4812,-2.4512,-2.4001,-2.3111,-2.2583,0.0,0.0,0.0,0.0,0.0,0.0,0.0,0.0,0.0,0.0,0.0,0.0,0.0,0.0,0.0,0.0,0.0,0.0,0.0,0.0,-2.1144,0.0,0.0,0.0,0.0,0.0,0.0,0.0,0.0,0.0,0.0,-3.875,-4.0531,-4.2094,-4.3037,0.0,0.0,0.0,0.0,-4.3052,-4.2837,-4.2571,-4.2254,-4.1898,-4.1205,-4.0715,-4.0547,0.0,0.0,-4.0499,-4.0539,-4.0461,-4.0211,-4.0742,-4.08,-3.9032,-3.8385,-3.8023,-3.7828,-3.7585,-3.7307,-3.7302,-3.7775,-3.7922,-3.9383,0.0,0.0,0.0,0.0,-3.6554,-3.7259,-3.8384,-3.9266,-3.9182,-3.8334,-3.7842,0.0,0.0,0.0,0.0,0.0,0.0,-3.453,-3.5001,-3.5718,-3.6393,-3.6891,-3.6729,-3.6556,-3.6462,-3.5784,-3.49,-3.3688,-3.1435,-2.9947,-2.9274,0.0,0.0,0.0,0.0,-3.0157,-3.0704,-2.9829,-2.9175,-2.9012,-2.6977,-2.5044,-2.3407,-2.3152,-2.3236,-2.3587,-2.2829,-2.2644,-2.2976,-2.1384,0.0,0.0,0.0,0.0,0.0,0.0,0.0,0.0,0.0,0.0,0.0,0.0,0.0,0.0,0.0,0.0,0.0,0.0,0.0,-2.1308,-2.3796,-2.5507,0.0,0.0,0.0,0.0,0.0,0.0,0.0,0.0,0.0,-3.9518,-4.0736,-4.1923,0.0,0.0,-4.3084,-4.3023,-4.3007,-4.2664,-4.1836,0.0,0.0,0.0,-4.05,-4.02,-4.0285,-4.0454,-4.0761,-4.1425,-4.145,-4.1371,-4.1263,-4.1043,-4.0749,-4.0547,-4.0495,-4.0441,-4.014,-3.9654,-3.9134,-3.8874,-3.8777,-3.8523,-4.0689,-3.9548,-3.8635,-3.8238,-3.8249,-3.8354,-3.8797,-3.952,-4.0435,-4.01,-3.8958,-3.9076,-3.8033,-3.6063,-3.5231,0.0,0.0,0.0,-3.5175,-3.5259,-3.5439,-3.5604,-3.5942,-3.6011,-3.5846,-3.5452,-3.5205,-3.4295,-3.2828,-3.1189,-2.999,-2.92,0.0,0.0,-2.907,-2.9524,-3.0085,-3.0736,-2.9392,-2.8525,-2.8322,-2.5681,-2.3715,-2.2614,-2.2281,-2.2342,-2.279,-2.1983,-2.169,-2.1939,-2.0521,-1.9704,0.0,0.0,0.0,0.0,0.0,0.0,0.0,0.0,0.0,0.0,0.0,-1.0455,-1.1921,0.0,0.0,0.0,-1.8318,-2.1043,-2.374,-2.5907,0.0,0.0,0.0,0.0,0.0,0.0,0.0,-3.5157,-3.7026,-3.8502,-3.9215,-4.0053,-4.1214,-4.2798,-4.2664,-4.2442,-4.2492,0.0,-4.1502,-4.046,-4.0232,-3.9967,-3.9465,-3.9297,-3.9395,-3.9983,-4.0189,-4.0672,-4.154,-4.1659,-4.1403,-4.0929,-4.0692,-4.0364,-3.9696,-3.9993,-4.0514,-4.0725,-4.0263,-3.9667,-3.914,-3.9003,-3.8736,-4.1456,-4.1209,-4.04,-3.971,-3.9245,-3.9835,-3.966,-3.9165,-4.0308,-3.9866,-3.8293,-3.9081,-3.8328,-3.6358,-3.5482,0.0,-3.6256,-3.5643,-3.5465,-3.5585,-3.5045,-3.4639,-3.4469,-3.4482,-3.4214,-3.3673,-3.3592,-3.2667,-3.0858,-3.0059,-2.9464,-2.8935,-2.8462,-2.8787,-2.9829,-2.9575,-2.9862,-3.0897,-2.8753,-2.7412,-2.6901,-2.3983,-2.2264,-2.1918,-2.1408,-2.1435,-2.21,-2.1563,-2.0964,-2.0316,-1.9785,-1.9089,-1.824,0.0,0.0,0.0,0.0,0.0,0.0,0.0,0.0,0.0,0.0,0.0,0.0,0.0,0.0,0.0,-2.2083,0.0,-2.501,-2.7493,0.0,0.0,0.0,-3.1732,-3.2262,-3.2738,-3.3344,-3.4352,0.0,0.0,-3.8001,0.0,-3.9797,-4.2011,-4.1853,-4.1534,-4.1517,-4.0737,-3.9861,-3.8992,-3.833,-3.7864,-3.788,-3.7943,-3.8362,-3.9269,-3.9578,-3.9831,-4.0651,-4.0935,-4.0502,-3.925,-3.9621,-3.9417,-3.7419,-3.768,-3.8549,-3.9668,-3.9561,-3.9035,-3.8262,-3.8391,-3.8288,-4.1323,-4.0836,-4.0331,-4.0192,-4.0334,-4.0094,-3.9825,-3.9573,-4.0845,-4.0159,-3.8286,-3.9372,-3.9157,-3.7941,-3.7449,-3.7219,-3.7141,-3.5913,-3.5185,-3.4907,-3.4044,-3.348,-3.309,-3.2735,-3.2236,-3.1844,-3.1751,-3.0798,-2.9249,-2.8712,-2.7959,-2.6901,-2.6992,-2.7902,-2.9495,-2.9346,-2.9632,-3.0325,-2.8228,-2.6054,-2.3838,-2.2378,-2.1353,-2.0692,-2.0436,-2.0297,-2.0292,-2.0218,-1.9973,-1.9566,-1.8965,-1.825,-1.7461,-1.6785,0.0,0.0,0.0,0.0,0.0,0.0,0.0,0.0,0.0,-1.3886,-1.5997,0.0,-1.8355,0.0,-2.3794,-2.6251,-2.7961,-2.9174,0.0,0.0,-3.1197,-3.2034,-3.2332,-3.3099,-3.3845,-3.4576,-3.5425,-3.5908,-3.5899,-3.6037,-3.6589,-3.8062,-3.8816,-3.9225,-3.9134,-3.8924,-3.8499,-3.7797,-3.7398,-3.7366,-3.7267,-3.7347,-3.743,-3.7559,-3.7617,-3.7627,-3.7649,-3.8048,-3.7923,-3.6623,-3.6789,-3.6808,-3.5852,-3.5868,-3.6026,-3.6474,-3.7168,-3.7466,-3.6369,-3.6775,-3.6902,-4.0956,-4.0462,-3.9733,-3.9354,-3.934,-3.9301,-3.9011,-3.8612,-3.9322,-3.8555,-3.6914,-3.7747,-3.8004,-3.7912,-3.7668,-3.7359,-3.6969,-3.5616,-3.4589,-3.3882,-3.2873,-3.2111,-3.1398,-3.1322,-3.0897,-3.009,-2.9979,-2.9207,-2.779,-2.722,-2.6599,-2.5859,-2.5879,-2.6585,-2.8007,-2.8292,-2.8814,-2.97,-2.7598,-2.5156,-2.2545,-2.1774,-2.1176,-2.0592,-2.0326,-2.0273,-2.0337,-2.0337,-1.9958,-1.9206,-1.8639,-1.786,-1.6984,-1.6543,-1.6337,0.0,0.0,0.0,0.0,0.0,0.0,0.0,0.0,0.0,0.0,0.0,-2.1391,-2.4508,-2.6647,-2.8411,-2.9817,-3.0811,-3.136,-3.1309,-3.2161,-3.2644,-3.2731,-3.3213,-3.3514,-3.3578,-3.4281,-3.4673,-3.4265,-3.4326,-3.4613,-3.5139,-3.5321,-3.5926,-3.7174,-3.7216,-3.6577,-3.5642,-3.554,-3.5751,-3.6266,-3.6369,-3.6556,-3.6836,-3.691,-3.6916,-3.6903,-3.6877,-3.6546,-3.5598,-3.5581,-3.5467,-3.451,-3.45,-3.4646,-3.4399,-3.4925,-3.5302,-3.4936,-3.5423,-3.5536,-4.0324,-3.9707,-3.859,-3.7813,-3.7172,-3.7636,-3.749,-3.6925,-3.6925,-3.632,-3.532,-3.5615,-3.6286,-3.7244,-3.7076,-3.6816,-3.6368,-3.5012,-3.3814,-3.2711,-3.1716,-3.0675,-2.9598,-2.9984,-2.9493,-2.8312,-2.8242,-2.7452,-2.6038,-2.5457,-2.5181,-2.5094,-2.4655,-2.4975,-2.5975,-2.6461,-2.7346,-2.8491,-2.6604,-2.442,-2.2089,-2.1661,-2.1331,-2.1018,-2.0699,-2.0784,-2.1256,-2.1043,-2.0377,-1.9171,-1.8561,-1.778,-1.6699,-1.6403,-1.6486,0.0,-1.7013,0.0,0.0,0.0,0.0,0.0,0.0,0.0,0.0,-2.2613,-2.4491,-2.8101,-2.9406,-3.0331,-3.0991,-3.22,-3.2816,-3.2382,-3.2921,-3.3224,-3.2855,-3.2867,-3.2777,-3.2164,-3.2959,-3.329,-3.2752,-3.2974,-3.3028,-3.2896,-3.2061,-3.2478,-3.4771,-3.4961,-3.4192,-3.3077,-3.3156,-3.3686,-3.4578,-3.4936,-3.5248,-3.6079,-3.6079,-3.6365,-3.6312,-3.5922,-3.5334,-3.4632,-3.4342,-3.4005,-3.2752,-3.3056,-3.3301,-3.2698,-3.2708,-3.3071,-3.3746,-3.4398,-3.4411,-3.9223,-3.7984,-3.6881,-3.5968,-3.5157,-3.4879,-3.5077,-3.5549,-3.5846,-3.5889,-3.5721,-3.5854,-3.6568,-3.7608,-3.7095,-3.6677,-3.6228,-3.4467,-3.3103,-3.2082,-3.1002,-2.9756,-2.8412,-2.7748,-2.6867,-2.5843,-2.56,-2.4785,-2.3417,-2.3319,-2.3034,-2.2602,-2.2503,-2.2997,-2.3965,0.0,0.0,0.0,-2.4792,-2.3576,-2.1619,-2.1579,-2.1369,-2.0998,-2.0932,0.0,-2.1031,-2.0746,-2.01,-1.9026,-1.8544,0.0,0.0,0.0,0.0,0.0,0.0,0.0,0.0,0.0,0.0,0.0,-2.104,-2.1532,-2.262,-2.4378,-2.6472,-2.8841,-2.9571,-3.0406,-3.1785,-3.2651,-3.2789,-3.2227,-3.2706,-3.263,-3.151,-3.1845,-3.206,-3.1574,-3.1769,-3.1635,-3.1169,-3.079,-3.0558,-3.0671,-3.0156,-3.0062,-3.0745,-3.1244,-3.1277,-3.1015,-3.1513,-3.1948,-3.2188,-3.2729,-3.3267,-3.3419,-3.3209,-3.2934,-3.2716,-3.2571,-3.1974,-3.0987,-3.0911,-3.1113,-3.0228,-3.0103,-3.0459,-3.0579,-3.0712,-3.1082,-3.2444,-3.341,-3.3662,-3.763,0.0,-3.5752,-3.4734,0.0,-3.3587,-3.3369,-3.3218,-3.3592,-3.379,-3.3871,-3.4272,-3.5019,-3.603,-3.569,-3.5415,-3.5126,-3.3577,-3.2364,-3.1425,-3.0073,-2.873,-2.7561,-2.6479,-2.5665,-2.4975,-2.4405,-2.3803,-2.3071,-2.2542,-2.2149,-2.1879,-2.1608,-2.182,-2.2543,-2.2494,-2.2739,-2.3355,-2.3567,-2.3059,-2.1934,-2.1751,-2.1783,-2.1947,0.0,0.0,0.0,0.0,0.0,0.0,0.0,0.0,0.0,0.0,0.0,-1.7333,-1.8162,-1.8929,-1.9446,-2.0057,-2.0674,-2.1339,-2.2291,-2.3236,-2.3932,-2.5615,-2.7184,-2.8507,-2.8806,-2.9498,-3.1028,-3.1478,-3.1368,-3.0711,-3.1218,-3.1444,-3.1223,-3.1083,-3.1034,-3.0941,-3.0425,-2.996,-2.9764,-2.8882,-2.8612,-2.8966,-2.8685,-2.8337,-2.852,-2.9335,-2.9943,-2.9929,-3.0211,-3.0602,-3.096,-3.1282,-3.1664,-3.1823,-3.173,-3.1474,-3.1019,-3.0979,-3.0593,-2.9685,-2.978,-2.9904,-2.9416,-2.9138,-2.9119,-2.9601,-2.9719,-2.9987,-3.0962,-3.1993,-3.2451,-3.6139,-3.5568,-3.4608,-3.3655,-3.2752,-3.2752,-3.2074,-3.0975,0.0,0.0,0.0,-3.2378,-3.3155,-3.4014,-3.3952,-3.3771,-3.3441,-3.2393,-3.1423,-3.0392,-2.8858,-2.7612,-2.6638,-2.5418,-2.4646,-2.4316,-2.3416,-2.2934,-2.2773,-2.1982,-2.1565,-2.1443,-2.117,-2.1104,-2.1247,-2.162,-2.1836,-2.1909,-2.2488,-2.2597,-2.2359,-2.1907,-2.1965,-2.2566,-2.2167,-2.1773,-2.1396,-2.1047,-2.0579,-1.9942,-1.9284,-1.8854,-1.8586,-1.8085,-1.784,-1.8014,-1.8162,-1.8555,-1.9203,-1.9932,-2.0476,-2.0719,-2.2266,-2.368,-2.4892,-2.6107,-2.7092,-2.7866,-2.782,-2.8326,-2.9827,-2.994,-2.9522,-2.8928,-2.9332,-2.9985,-3.0244,-2.9658,-2.9148,-2.9536,-2.8743,-2.8186,-2.8233,-2.7456,-2.6893,-2.7371,-2.7281,-2.6929,-2.7101,-2.8033,-2.8866,-2.8879,-2.9013,-2.9334,-2.9672,-3.0074,-3.0276,-3.0234,-3.0276,-3.0271,-3.0001,-2.9742,-2.9388,-2.8768,-2.8998,-2.8937,-2.873,-2.8486,-2.8586,-2.8922,-2.9052,-2.9298,-2.9737,-3.0583,-3.1208,-3.5192,-3.4339,-3.339,-3.242,-3.1544,-3.1544,-3.0853,-2.9807,-3.0391,-3.0785,-3.0982,-3.1833,-3.2629,-3.3378,-3.2931,-3.2362,-3.1661,-3.0819,-2.9697,0.0,-2.7209,-2.6262,-2.5374,-2.376,-2.2912,-2.2629,-2.1451,-2.0606,-2.0228,-2.037,-2.0214,-1.9871,-2.0373,-2.0473,-1.9994,-2.0004,-2.0039,-2.0098,-2.1104,-2.1813,-2.2223,-2.1494,-2.1168,-2.1224,-2.0876,-2.0264,-1.9456,-1.9116,-1.8843,-1.8666,-1.8308,-1.8161,-1.8329,-1.7332,-1.6994,-1.7449,-1.6756,-1.6784,-1.7905,-1.8091,-1.8426,-1.9079,-2.0021,-2.1702,-2.4283,-2.5119,-2.6009,-2.7283,-2.7017,-2.7446,-2.8803,-2.8963,-2.8544,-2.7719,-2.8093,-2.7985,-2.6941,-2.6058,-2.5844,-2.6616,-2.631,-2.6252,-2.6353,-2.6217,-2.5913,-2.579,-2.5783,-2.5724,-2.5747,-2.6232,-2.6833,-2.7033,-2.7574,-2.7789,-2.7668,-2.8094,-2.8326,-2.7903,-2.7605,-2.7501,-2.7387,-2.7073,-2.6746,-2.6419,-2.6852,-2.6841,-2.6568,-2.7078,-2.7486,-2.7706,-2.8004,-2.8641,-2.93,-2.9728,-3.0054,-3.309,-3.2596,-3.1792,-3.1182,-3.0798,-3.0459,-2.9998,-2.9481,-2.947,-2.9749,-3.033,-3.0715,-3.1146,-3.1516,-3.0936,-3.049,-3.0066,-2.9503,-2.8756,-2.7938,-2.6599,-2.5464,-2.4426,-2.3005,-2.2005,-2.1272,-2.0605,-2.0065,-1.9667,-1.9553,-1.9481,-1.9394,-1.9594,-1.939,-1.8812,-1.9081,-1.9227,-1.9227,-1.9753,-2.0271,-2.0925,-2.0276,-1.9959,-2.0061,-1.9889,-1.9431,-1.8654,-1.8351,-1.8155,-1.7975,-1.739,-1.7148,-1.7207,-1.6378,-1.5952,-1.6038,-1.5965,-1.6122,-1.6711,-1.7242,-1.7909,-1.8617,-1.9073,-2.0163,-2.2016,-2.2982,-2.3951,-2.5327,-2.5264,-2.5391,-2.6092,-2.6607,-2.6554,-2.5846,-2.6029,-2.6086,-2.5761,-2.5003,-2.4881,-2.5601,-2.5165,-2.4853,-2.5321,-2.4568,-2.4172,-2.4225,-2.4534,-2.4772,-2.5077,-2.5523,-2.5813,-2.5892,-2.6206,-2.6285,-2.6102,-2.6417,-2.6609,-2.6369,-2.6233,-2.6038,-2.5853,-2.5673,-2.5641,-2.5458,-2.5716,-2.5939,-2.5709,-2.5662,-2.582,-2.609,-2.6622,-2.7118,-2.7102,-2.7233,-2.7974,-3.1377,-3.1377,-3.0678,-3.0256,-2.9944,-2.9347,-2.9007,-2.8842,-2.8477,-2.8582,-2.904,-2.9303,-2.9464,-2.9506,-2.8911,-2.8508,-2.8349,-2.7882,-2.74,-2.686,-2.5449,-2.4189,-2.3122,-2.1882,-2.0839,-1.9971,-1.9541,-1.9239,-1.898,-1.8611,-1.8612,-1.8904,-1.8634,-1.8215,-1.7644,-1.8023,-1.8219,-1.823,-1.811,-1.8555,-1.9608,-1.8888,-1.8574,-1.8837,-1.8784,-1.8456,-1.774,-1.7499,-1.7277,-1.7012,-1.6384,-1.6019,-1.6044,-1.5388,-1.4865,-1.4661,-1.49,-1.5183,-1.5309,-1.6063,-1.6832,-1.7525,-1.7785,-1.839,-1.9425,-2.0354,-2.1598,-2.2895,-2.3307,-2.3483,-2.366,-2.4278,-2.4497,-2.3946,-2.3916,-2.4018,-2.4399,-2.4073,-2.3919,-2.4489,-2.3885,-2.3558,-2.3787,-2.3167,-2.2715,-2.3248,-2.3411,-2.3818,-2.4393,-2.4583,-2.4558,-2.457,-2.4886,-2.5306,-2.5229,-2.5366,-2.5413,-2.5224,-2.5318,-2.5158,-2.497,-2.5079,-2.4918,-2.4515,-2.4559,-2.4529,-2.4584,-2.3927,-2.3629,-2.3967,-2.4607,-2.4935,-2.4583,-2.4874,-2.5753,-3.1349,-3.131,-3.0569,-2.9767,-2.8736,-2.8139,-2.7534,-2.7108,-2.7253,-2.7166,-2.6938,-2.7642,-2.7951,-2.7921,-2.7339,-2.6789,-2.6208,-2.5529,-2.4799,-2.3897,-2.2558,-2.165,-2.0978,-1.9676,-1.8847,-1.8409,-1.7455,-1.7074,-1.7036,-1.6979,-1.7143,-1.7512,-1.7434,-1.7065,-1.6566,-1.654,-1.6561,-1.6493,-1.5984,-1.6732,-1.8676,-1.7535,-1.707,-1.745,-1.7173,-1.6675,-1.6006,-1.5713,-1.5554,-1.5315,-1.5113,-1.5016,-1.4876,-1.4222,-1.3824,-1.3776,-1.3178,-1.2929,-1.3242,-1.3613,-1.4156,-1.4623,-1.5234,-1.5955,-1.6911,-1.7562,-1.8763,-2.0512,-2.1598,-2.207,-2.2152,-2.2818,-2.2953,-2.2164,-2.2039,-2.1761,-2.122,-2.1188,-2.1438,-2.1523,-2.1933,-2.1941,-2.1997,-2.2186,-2.2509,-2.2468,-2.2339,-2.2336,-2.2563,-2.2615,-2.2494,-2.2506,-2.3739,-2.4908,-2.4713,-2.4918,-2.4551,-2.4235,-2.4249,-2.4118,-2.3981,-2.3664,-2.3262,-2.2967,-2.2502,-2.2286,-2.1749,-2.1054,-2.1236,-2.1874,-2.2433,-2.2825,-2.3117,-2.3504,-2.4365,-2.947,-2.9315,-2.8061,-2.7273,-2.6683,-2.6496,-2.6074,-2.5532,-2.5421,-2.5146,-2.4611,-2.445,-2.5151,-2.6452,-2.5537,-2.4935,-2.4678,-2.3834,-2.3118,-2.2538,-2.163,-2.0741,-1.9865,-1.9056,-1.8258,-1.7571,-1.6945,-1.6597,-1.6502,-1.6644,-1.6662,-1.6539,-1.6595,-1.6368,-1.5806,-1.5748,-1.5565,-1.5031,-1.4777,-1.4937,-1.5432,-1.5742,-1.5816,-1.5664,-1.5478,-1.504,-1.4341,-1.4154,-1.4036,-1.3952,-1.3585,-1.3414,-1.3438,-1.283,-1.2462,-1.2413,-1.1927,-1.162,-1.152,-1.2019,-1.2597,-1.3245,-1.3844,-1.462,-1.5656,-1.5961,-1.6629,-1.7715,-1.9606,-2.0784,-2.0775,-2.1111,-2.0934,-2.0207,-2.0023,-1.9912,-1.9783,-1.9925,-2.0182,-2.0576,-2.0866,-2.1021,-2.1009,-2.1112,-2.136,-2.1464,-2.1366,-2.1439,-2.1854,-2.1849,-2.162,-2.1523,-2.2221,-2.2483,-2.2468,-2.2655,-2.2727,-2.263,-2.272,-2.287,-2.2577,-2.2355,-2.1965,-2.1457,-2.1243,-2.105,-2.0958,-1.9506,-1.8986,-1.9878,-2.0345,-2.0734,-2.1599,-2.1728,-2.1999,-2.7851,-2.7528,-2.61,-2.5182,-2.4848,-2.4957,-2.4572,-2.3981,-2.3689,-2.3315,-2.2743,-2.212,-2.2778,-2.4071,-2.3514,-2.3144,-2.3023,-2.2172,-2.1588,-2.1289,-2.0446,-1.9542,-1.8767,-1.808,-1.7334,-1.6648,-1.6389,-1.6146,-1.5914,-1.6177,-1.6032,-1.5494,-1.5621,-1.5507,-1.4932,-1.4874,-1.4579,-1.4034,-1.3793,-1.3545,-1.3485,-1.4195,-1.4505,-1.4128,-1.4069,-1.3764,-1.316,-1.3132,-1.307,-1.2948,-1.232,-1.195,-1.1896,-1.1351,-1.1045,-1.0996,-1.0792,-1.0514,-1.0393,-1.0874,-1.151,-1.2158,-1.2799,-1.3445,-1.4183,-1.454,-1.4817,-1.5336,-1.7328,-1.8726,-1.9136,-1.9375,-1.915,-1.8524,-1.8423,-1.8481,-1.8586,-1.8687,-1.899,-1.9513,-1.9591,-1.992,-2.0203,-2.0286,-2.04,-2.0618,-2.0598,-2.0624,-2.116,-2.0897,-2.057,-2.0511,-2.017,-2.026,-2.0538,-2.1131,-2.1197,-2.1281,-2.1607,-2.1631,-2.1245,-2.1148,-2.0792,-2.0346,-2.0205,-1.9823,-1.9364,-1.8159,-1.7606,-1.8518,-1.9032,-1.9182,-1.9892,-1.9871,-2.0022,-2.7237,-2.696,-2.5603,-2.4334,-2.3411,-2.3437,-2.3027,-2.2473,-2.2343,-2.2018,-2.1592,-2.1473,-2.1313,-2.1166,-2.1237,-2.1262,-2.1119,-2.0545,-2.0025,-1.9658,-1.8548,-1.7623,-1.7088,-1.6384,-1.5866,-1.5652,-1.5546,-1.5186,-1.4856,-1.5119,-1.482,-1.4004,-1.4461,-1.4291,-1.3752,-1.3683,-1.3571,-1.3433,-1.2978,-1.2833,-1.3278,-1.3116,-1.2974,-1.2963,-1.3087,-1.3006,-1.2764,-1.2887,-1.2749,-1.2312,-1.1487,-1.0885,-1.0598,-0.9958,-0.9709,-0.9588,-0.9594,-0.9722,-0.9959,-1.0292,-1.0728,-1.1301,-1.1724,-1.2018,-1.2467,-1.3137,-1.3633,-1.4008,-1.493,-1.5971,-1.6884,-1.7756,-1.8044,-1.7542,-1.7487,-1.7394,-1.7079,-1.7392,-1.753,-1.781,-1.815,-1.8552,-1.9103,-1.9645,-1.9747,-1.9825,-1.9714,-1.9514,-1.9552,-1.9199,-1.878,-1.8508,-1.8411,-1.8677,-2.0177,-2.0366,-2.0459,-2.0543,-2.0428,-2.0625,-2.0499,-2.0282,-1.9717,-1.92,-1.8934,-1.8416,-1.7746,-1.74,-1.7411,-1.7733,-1.7947,-1.8204,-1.8742,-1.8694,-1.8932,-2.5045,-2.3901,-2.3374,-2.2622,-2.1851,-2.1926,-2.1567,-2.1008,-2.0941,-2.0578,-2.0101,-2.0052,-1.989,-1.9619,-1.974,-1.9976,-2.0318,-1.9679,-1.9114,-1.8611,-1.7965,-1.7401,-1.6853,-1.6296,-1.5961,-1.573,-1.5566,-1.5361,-1.51,-1.4885,-1.4582,-1.4245,-1.3981,-1.3683,-1.3511,-1.3511,-1.3199,-1.2634,-1.2411,-1.2134,-1.1646,-1.1063,-1.0683,-1.0718,-1.1988,-1.2055,-1.0755,-1.0936,-1.0707,-0.9967,-0.9768,-0.9686,-0.9643,-0.9554,-0.9111,-0.8382,-0.8597,-0.8851,-0.8739,-0.9017,-0.9575,-1.0255,-1.083,-1.1336,-1.1791,-1.2219,-1.2593,-1.2815,-1.3162,-1.3697,-1.4086,-1.5553,-1.6606,-1.6127,-1.6035,-1.6148,-1.6175,-1.6307,-1.659,-1.6985,-1.7149,-1.73,-1.7559,-1.7765,-1.7994,-1.8238,-1.8427,-1.8529,-1.8433,-1.8102,-1.7728,-1.7509,-1.708,-1.6979,-1.7796,-1.8633,-1.8952,-1.9043,-1.91,-1.9052,-1.8964,-1.8874,-1.8406,-1.8103,-1.7745,-1.7645,-1.7132,-1.7121,-1.7099,-1.7155,-1.7323,-1.7368,-1.7833,-1.7841,-1.8313,-2.3395,-2.1993,-2.1699,-2.1244,-2.0637,-2.071,-2.0499,-2.0069,-2.0015,-1.9699,-1.9312,-1.9052,-1.8839,-1.8721,-1.8494,-1.8647,-1.9105,-1.8917,-1.8625,-1.8084,-1.7733,-1.7301,-1.6807,-1.6343,-1.6019,-1.5846,-1.5488,-1.5128,-1.4765,-1.4401,-1.4103,-1.3795,-1.3271,-1.2912,-1.2792,-1.2723,-1.2313,-1.1684,-1.1616,-1.1156,-1.0331,-0.9649,-0.9227,-0.9246,-1.0528,-1.0671,-0.9151,-0.9387,-0.9279,-0.8735,-0.8618,-0.8539,-0.843,-0.8521,-0.8146,-0.7223,-0.7437,-0.7712,-0.7787,-0.8117,-0.87,-0.9466,-1.007,-1.0581,-1.0934,-1.13,-1.1496,-1.1694,-1.199,-1.2128,-1.2405,-1.3484,-1.4252,-1.4232,-1.4385,-1.4569,-1.4805,-1.4972,-1.5248,-1.5608,-1.5865,-1.6048,-1.6268,-1.6602,-1.6981,-1.7201,-1.7472,-1.7532,-1.748,-1.7158,-1.6867,-1.6788,-1.6376,-1.6233,-1.6628,-1.7226,-1.7575,-1.772,-1.7737,-1.7653,-1.7616,-1.7498,-1.7359,-1.7048,-1.6874,-1.6864,-1.6864,-1.6807,-1.6864,-1.6864,-1.674,-1.6729,-1.7002,-1.7181,-1.7455,-2.2498,-2.1518,-2.0957,-2.0451,-1.9935,-1.991,-1.9849,-1.977,-1.9666,-1.9393,-1.9093,-1.8602,-1.8213,-1.8038,-1.7589,-1.7335,-1.759,-1.8127,-1.8236,-1.792,-1.7346,-1.6965,-1.6637,-1.6114,-1.5826,-1.5672,-1.4951,-1.4154,-1.3631,-1.3545,-1.3243,-1.2623,-1.2194,-1.1786,-1.1152,-1.1197,-1.0924,-1.0602,-1.0331,-0.9999,-0.9693,-0.9105,-0.8616,-0.8353,-0.8749,-0.8646,-0.8117,-0.8409,-0.8463,-0.8352,-0.8044,-0.7487,-0.6936,-0.6933,-0.6539,-0.621,-0.6145,-0.6535,-0.7129,-0.7661,-0.8242,-0.8823,-0.9291,-0.9385,-0.9532,-0.9988,-1.0406,-1.066,-1.1174,-1.164,-1.1699,-1.1436,-1.145,-1.1967,-1.2645,-1.2788,-1.2975,-1.3318,-1.3651,-1.3808,-1.4313,-1.4894,-1.5459,-1.5923,-1.6379,-1.6713,-1.6759,-1.6587,-1.6567,-1.6264,-1.6012,-1.5924,-1.5798,-1.5662,-1.5758,-1.5951,-1.6249,-1.6452,-1.6399,-1.6345,-1.6523,-1.6471,-1.655,-1.6343,-1.642,-1.641,-1.6255,-1.6255,-1.6218,-1.6218,-1.6104,-1.614,-1.6363,-1.6528,-1.6351,-2.2375,-2.161,-2.1066,-2.0456,-1.9836,-1.9798,-1.9592,-1.9239,-1.9056,-1.8673,-1.8213,-1.7831,-1.76,-1.7479,-1.7257,-1.7213,-1.7213,-1.7213,-1.7112,-1.6888,-1.6368,-1.5968,-1.57,-1.5235,-1.4815,-1.4579,-1.4172,-1.3723,-1.3329,-1.3186,-1.291,-1.2433,-1.1458,-1.0883,-1.0668,-0.9966,-0.9441,-0.922,-0.916,-0.8949,-0.865,-0.812,-0.7537,-0.7044,-0.6754,-0.642,-0.5981,-0.6889,-0.7105,-0.6599,-0.6324,-0.6154,-0.6213,-0.635,-0.6346,-0.6079,-0.5873,-0.6137,-0.6859,-0.7129,-0.7451,-0.7842,-0.8042,-0.8042,-0.8107,-0.8683,-0.911,-0.9338,-0.9933,-1.039,-1.0091,-0.9982,-1.0361,-1.1678,-1.1344,-1.1276,-1.1761,-1.2101,-1.2422,-1.2706,-1.3089,-1.3564,-1.4072,-1.4628,-1.4989,-1.5355,-1.5494,-1.5576,-1.5527,-1.5371,-1.541,-1.541,-1.5235,-1.4923,-1.4982,-1.4925,-1.4926,-1.537,-1.5467,-1.5584,-1.5642,-1.57,-1.57,-1.5768,-1.5846,-1.5836,-1.5738,-1.5671,-1.569,-1.5796,-1.5833,-1.5881,-1.5975,-1.5757,-1.5447,-2.1425,-2.0773,-2.02,-1.9674,-1.9239,-1.9162,-1.8963,-1.8643,-1.8459,-1.8124,-1.771,-1.7279,-1.6989,-1.681,-1.6641,-1.6482,-1.6436,-1.6093,-1.5864,-1.5853,-1.5623,-1.5332,-1.5118,-1.4647,-1.4163,-1.376,-1.3425,-1.2949,-1.238,-1.2134,-1.185,-1.1371,-1.053,-1.0051,-1.0,-0.9311,-0.8775,-0.8525,-0.8356,-0.7995,-0.7516,-0.6966,-0.6401,-0.5896,-0.5504,-0.5234,-0.5073,-0.5665,-0.5785,-0.5477,-0.5444,-0.5604,-0.5716,-0.5954,-0.5954,-0.5686,-0.5613,-0.5807,-0.6531,-0.6662,-0.6924,-0.7256,-0.7386,-0.7386,-0.7451,-0.7902,-0.8102,-0.8192,-0.8528,-0.8784,-0.8465,-0.8382,-0.8983,-0.9978,-1.0098,-1.0268,-1.0863,-1.117,-1.1475,-1.1858,-1.2165,-1.2492,-1.2846,-1.3086,-1.339,-1.3752,-1.3983,-1.4204,-1.4168,-1.4069,-1.4119,-1.4119,-1.3788,-1.3764,-1.4049,-1.3927,-1.3703,-1.4159,-1.4634,-1.4895,-1.5137,-1.5128,-1.5128,-1.5137,-1.5215,-1.5215,-1.5069,-1.5186,-1.5196,-1.5332,-1.537,-1.5196,-1.5012,-1.4531,-1.4204,-1.9867,-1.9309,-1.8596,-1.841,-1.8387,-1.8267,-1.8147,-1.8038,-1.7863,-1.7699,-1.739,-1.6719,-1.6368,-1.614,-1.5796,-1.5468,-1.5137,-1.4983,-1.4777,-1.4728,-1.4758,-1.4798,-1.4688,-1.4103,-1.3528,-1.3082,-1.2543,-1.1827,-1.0968,-1.0763,-1.0236,-0.9971,-0.9644,-0.9301,-0.9174,-0.8893,-0.8318,-0.8027,-0.76,-0.7017,-0.6341,-0.59,-0.5407,-0.4956,-0.4897,-0.4901,-0.4908,-0.4754,-0.4705,-0.4912,-0.5325,-0.545,-0.5432,-0.5488,-0.5352,-0.5008,-0.5014,-0.5401,-0.5928,-0.6195,-0.6531,-0.6994,-0.706,-0.7321,-0.7125,-0.7186,-0.7363,-0.733,-0.7404,-0.7336,-0.7206,-0.7042,-0.714,-0.7551,-0.8695,-0.9604,-1.034,-1.049,-1.0753,-1.1149,-1.1317,-1.149,-1.2104,-1.2228,-1.2405,-1.2565,-1.2724,-1.2772,-1.2715,-1.2763,-1.2408,-1.236,-1.253,-1.2664,-1.2981,-1.2939,-1.2755,-1.3117,-1.3561,-1.3763,-1.4291,-1.4423,-1.4478,-1.4497,-1.4565,-1.4565,-1.4625,-1.4734,-1.4718,-1.4664,-1.4541,-1.4252,-1.3987,-1.3678,-1.3527,-1.9744,-1.9476,-1.8748,-1.8375,-1.8278,-1.8159,-1.7809,-1.7413,-1.7191,-1.6733,-1.6332,-1.5864,-1.5613,-1.5642,-1.5449,-1.5059,-1.4477,-1.4032,-1.3667,-1.3356,-1.3253,-1.3271,-1.3166,-1.2642,-1.2149,-1.1767,-1.1338,-1.0601,-0.991,-1.0115,-1.0052,-0.9681,-0.9023,-0.8811,-0.87,-0.7582,-0.6877,-0.6603,-0.6092,-0.5678,-0.5415,-0.5238,-0.4901,-0.4625,-0.4632,-0.4522,-0.4298,-0.4187,-0.4238,-0.4486,-0.4719,-0.4903,-0.5001,-0.515,-0.5107,-0.499,-0.5163,-0.5301,-0.5363,-0.5552,-0.5811,-0.5885,-0.6079,-0.5951,-0.5954,-0.6404,-0.6534,-0.6634,-0.6908,-0.7012,-0.6811,-0.6654,-0.6758,-0.7053,-0.7949,-0.8786,-0.9191,-0.9506,-0.9969,-1.0607,-1.1052,-1.1399,-1.1703,-1.1974,-1.215,-1.2173,-1.2093,-1.2004,-1.1763,-1.162,-1.1357,-1.1678,-1.1817,-1.1833,-1.1898,-1.1809,-1.1931,-1.2215,-1.2332,-1.2331,-1.2915,-1.3382,-1.3605,-1.3761,-1.407,-1.4139,-1.4378,-1.4556,-1.4359,-1.4118,-1.4167,-1.4102,-1.369,-1.3331,-1.3206,-1.8928,-1.8585,-1.8011,-1.7652,-1.7386,-1.7147,-1.6742,-1.6179,-1.5843,-1.5402,-1.4946,-1.47,-1.4443,-1.4231,-1.4471,-1.4123,-1.3438,-1.3194,-1.2855,-1.2414,-1.2158,-1.2164,-1.209,-1.1473,-1.1061,-1.1025,-1.0642,-1.0154,-0.9706,-0.9586,-0.9194,-0.8538,-0.799,-0.766,-0.7527,-0.6663,-0.5991,-0.5887,-0.5449,-0.5093,-0.4941,-0.4889,-0.4727,-0.4445,-0.4389,-0.426,-0.4098,-0.4244,-0.4326,-0.4448,-0.4563,-0.4753,-0.4929,-0.5026,-0.5055,-0.509,-0.5145,-0.5148,-0.5159,-0.522,-0.5257,-0.5281,-0.5315,-0.5425,-0.5491,-0.5815,-0.5944,-0.5796,-0.614,-0.6113,-0.6028,-0.6119,-0.6299,-0.6447,-0.7257,-0.8027,-0.8363,-0.8743,-0.924,-0.9857,-1.0385,-1.0733,-1.0904,-1.0966,-1.0827,-1.0643,-1.0457,-1.0505,-1.0507,-1.0486,-1.0453,-1.0666,-1.0524,-1.037,-1.0455,-1.0441,-1.0479,-1.0793,-1.1088,-1.1024,-1.1805,-1.2468,-1.2783,-1.3124,-1.3476,-1.3708,-1.3791,-1.3956,-1.3934,-1.3816,-1.395,-1.3855,-1.3424,-1.3057,-1.2952,-1.7589,-1.7079,-1.6733,-1.629,-1.59,-1.5608,-1.5139,-1.4632,-1.4344,-1.3951,-1.3636,-1.3464,-1.3246,-1.2522,-1.3331,-1.2939,-1.2209,-1.228,-1.2036,-1.1591,-1.1223,-1.1134,-1.1434,-1.0785,-1.0471,-1.0543,-1.0365,-0.9866,-0.9293,-0.8633,-0.7909,-0.7323,-0.6613,-0.6327,-0.6405,-0.5946,-0.5773,-0.5609,-0.5226,-0.4923,-0.4744,-0.4599,-0.4381,-0.4127,-0.3951,-0.3949,-0.3954,-0.4171,-0.4311,-0.4192,-0.4555,-0.481,-0.5071,-0.5122,-0.5122,-0.5237,-0.5098,-0.5003,-0.5021,-0.4991,-0.5014,-0.5105,-0.5085,-0.5223,-0.516,-0.5219,-0.5215,-0.4968,-0.5044,-0.513,-0.5136,-0.5415,-0.5663,-0.5852,-0.6598,-0.7212,-0.77,-0.814,-0.8601,-0.9105,-0.9507,-0.9486,-0.9265,-0.889,-0.8622,-0.926,-0.9135,-0.9092,-0.9068,-0.8939,-0.9082,-0.9392,-0.9058,-0.8652,-0.8845,-0.9039,-0.9121,-0.9301,-0.9586,-0.9888,-1.0962,-1.1616,-1.2007,-1.2366,-1.2562,-1.2706,-1.2821,-1.2952,-1.3133,-1.3221,-1.3182,-1.3186,-1.3121,-1.281,-1.2614,-1.6406,-1.6014,-1.533,-1.4804,-1.4395,-1.4077,-1.3815,-1.3642,-1.3378,-1.3148,-1.3061,-1.2798,-1.2598,-1.2436,-1.2533,-1.2212,-1.1384,-1.117,-1.0903,-1.0489,-0.9764,-0.9896,-1.0248,-0.9981,-0.9909,-0.972,-0.9372,-0.8769,-0.8105,-0.7807,-0.7301,-0.6613,-0.6322,-0.6268,-0.6046,-0.5496,-0.5332,-0.5164,-0.468,-0.4376,-0.4265,-0.3884,-0.369,-0.3638,-0.3343,-0.3113,-0.3062,-0.3173,-0.3272,-0.3518,-0.4235,-0.4787,-0.4928,-0.4922,-0.4981,-0.4971,-0.4957,-0.4864,-0.4849,-0.4606,-0.4544,-0.4861,-0.4308,-0.3887,-0.4486,-0.4538,-0.437,-0.4278,-0.4587,-0.4789,-0.4809,-0.492,-0.5076,-0.5218,-0.5426,-0.5762,-0.6267,-0.7291,-0.8016,-0.8269,-0.8381,-0.8402,-0.8283,-0.8221,-0.803,-0.7982,-0.7883,-0.7812,-0.7695,-0.7577,-0.7827,-0.8175,-0.7961,-0.7671,-0.7781,-0.8086,-0.8227,-0.8354,-0.8571,-0.8851,-0.9883,-1.0629,-1.1002,-1.1272,-1.1555,-1.1679,-1.1809,-1.1979,-1.2109,-1.2274,-1.2439,-1.2449,-1.2465,-1.2326,-1.236,-1.5164,-1.5024,-1.4634,-1.4172,-1.3774,-1.3457,-1.3077,-1.26,-1.2314,-1.2032,-1.1787,-1.1631,-1.144,-1.1178,-1.1424,-1.1169,-1.0515,-1.0119,-0.9817,-0.9442,-0.8856,-0.8687,-0.8802,-0.8779,-0.8651,-0.87,-0.8335,-0.7783,-0.7433,-0.6994,-0.6598,-0.6005,-0.5668,-0.5226,-0.5054,-0.467,-0.4284,-0.395,-0.3685,-0.3542,-0.3512,-0.3304,-0.3168,-0.3232,-0.2975,-0.2788,-0.2771,-0.2856,-0.2945,-0.3126,-0.3633,-0.4122,-0.4284,-0.4387,-0.4412,-0.4408,-0.4461,-0.4352,-0.4156,-0.3967,-0.3875,-0.4133,-0.3547,-0.3587,-0.367,-0.3739,-0.3848,-0.3972,-0.4252,-0.4569,-0.4568,-0.4303,-0.4354,-0.4357,-0.4479,-0.4601,-0.5039,-0.6315,-0.7421,-0.7502,-0.7709,-0.7602,-0.7496,-0.7165,-0.685,-0.6554,-0.6874,-0.6824,-0.687,-0.6778,-0.6861,-0.704,-0.6856,-0.6776,-0.6933,-0.7166,-0.7469,-0.7692,-0.8039,-0.8197,-0.8751,-0.9329,-0.9862,-1.0234,-1.0654,-1.0722,-1.0842,-1.0954,-1.1138,-1.1255,-1.14,-1.1619,-1.1774,-1.1813,-1.1953,-1.3889,-1.4053,-1.3904,-1.3562,-1.3121,-1.295,-1.2333,-1.1484,-1.1186,-1.0937,-1.0454,-1.045,-1.026,-0.9901,-1.028,-1.0068,-0.951,-0.9022,-0.8725,-0.8466,-0.8032,-0.7872,-0.7758,-0.7356,-0.7148,-0.7695,-0.7566,-0.7271,-0.6936,-0.6393,-0.5819,-0.5301,-0.4625,-0.4122,-0.3624,-0.3458,-0.3345,-0.3012,-0.2932,-0.2958,-0.2984,-0.2899,-0.2765,-0.254,-0.2458,-0.2332,-0.2276,-0.2439,-0.2648,-0.2673,-0.277,-0.2945,-0.3175,-0.3517,-0.3749,-0.3603,-0.3798,-0.3746,-0.3584,-0.3367,-0.3193,-0.3116,-0.2968,-0.3077,-0.3028,-0.3096,-0.3231,-0.3545,-0.3887,-0.4125,-0.4267,-0.3947,-0.3709,-0.3769,-0.3769,-0.3698,-0.3994,-0.5244,-0.6011,-0.6278,-0.6196,-0.608,-0.5975,-0.5767,-0.546,-0.5289,-0.5609,-0.5878,-0.5932,-0.5991,-0.6036,-0.615,-0.6105,-0.6055,-0.6154,-0.6312,-0.6593,-0.6982,-0.7393,-0.7603,-0.7764,-0.8184,-0.879,-0.9368,-0.9736,-0.9834,-0.9888,-1.0038,-1.0156,-1.0239,-1.0526,-1.0873,-1.1089,-1.1234,-1.1578,-1.2869,-1.2609,-1.2457,-1.1981,-1.1412,-1.1374,-1.1157,-1.0685,-1.041,-1.0187,-1.0053,-0.9866,-0.9708,-0.962,-0.968,-0.9334,-0.8639,-0.809,-0.7717,-0.7509,-0.7241,-0.7128,-0.6961,-0.6077,-0.5723,-0.6009,-0.6375,-0.6614,-0.616,-0.5631,-0.4927,-0.4236,-0.3624,-0.3125,-0.2959,-0.2847,-0.274,-0.2479,-0.2455,-0.2595,-0.2519,-0.2149,-0.1726,-0.142,-0.1342,-0.1378,-0.135,-0.1466,-0.1467,-0.1517,-0.1718,-0.1831,-0.2075,-0.2715,-0.3147,-0.3392,-0.3242,-0.3121,-0.3138,-0.2815,-0.288,-0.296,-0.2467,-0.2204,-0.239,-0.257,-0.2639,-0.2783,-0.3231,-0.3551,-0.3551,-0.3375,-0.361,-0.3767,-0.3603,-0.332,-0.3308,-0.3716,-0.427,-0.4452,-0.4415,-0.4556,-0.4664,-0.4716,-0.4529,-0.4401,-0.4563,-0.4835,-0.4948,-0.5062,-0.5117,-0.5285,-0.5458,-0.5462,-0.5462,-0.5567,-0.5786,-0.6268,-0.6608,-0.6874,-0.709,-0.7252,-0.7678,-0.8435,-0.8838,-0.9005,-0.9086,-0.9227,-0.9432,-0.9658,-0.9925,-1.0164,-1.0538,-1.0956,-1.1418,-1.1657,-1.1576,-1.1325,-1.0988,-1.0682,-1.0685,-1.0409,-1.0074,-1.0102,-1.0051,-0.9792,-0.9465,-0.9242,-0.9086,-0.8823,-0.8402,-0.7925,-0.7557,-0.7241,-0.7085,-0.6529,-0.614,-0.6032,-0.4925,-0.4491,-0.4498,-0.4889,-0.5105,-0.4663,-0.4284,-0.384,-0.3456,-0.2959,-0.2625,-0.2291,-0.2235,-0.2032,-0.1884,-0.1783,-0.1656,-0.1439,-0.0776,-0.0261,-0.0194,-0.0385,-0.0504,-0.0728,-0.1145,-0.1194,-0.1116,-0.1216,-0.1208,-0.1258,-0.148,-0.2043,-0.2496,-0.251,-0.2479,-0.2575,-0.2183,-0.2237,-0.2298,-0.1812,-0.1644,-0.1762,-0.1871,-0.2044,-0.2423,-0.2636,-0.3033,-0.3033,-0.2756,-0.2754,-0.2862,-0.2772,-0.2581,-0.246,-0.2629,-0.2774,-0.2983,-0.3508,-0.3808,-0.3858,-0.3796,-0.3683,-0.3624,-0.3569,-0.3735,-0.4015,-0.4184,-0.4405,-0.4684,-0.4963,-0.5132,-0.5132,-0.5187,-0.5297,-0.5677,-0.5996,-0.6268,-0.6534,-0.6701,-0.7085,-0.7686,-0.7955,-0.8321,-0.85,-0.8678,-0.8877,-0.9106,-0.9285,-0.9606,-1.0146,-1.0643,-1.1158,-1.0434,-1.0523,-1.0339,-1.0238,-1.0186,-1.0253,-0.9975,-0.9665,-0.9784,-0.974,-0.9524,-0.904,-0.8718,-0.8508,-0.8031,-0.7551,-0.7278,-0.6961,-0.6583,-0.6204,-0.5433,-0.4937,-0.4659,-0.3999,-0.3448,-0.3508,-0.3183,-0.3074,-0.3456,-0.3125,-0.285,-0.2627,-0.2516,-0.2137,-0.1696,-0.1615,-0.1254,-0.0972,-0.0737,-0.0466,0.0124,0.064,0.0965,0.0818,0.0313,-0.0061,-0.0234,-0.07,-0.0924,-0.0796,-0.0844,-0.0786,-0.0505,-0.0393,-0.0785,-0.1347,-0.1515,-0.1515,-0.1517,-0.1687,-0.158,-0.1467,-0.1574,-0.1462,-0.1408,-0.153,-0.1746,-0.2237,-0.2294,-0.23,-0.2193,-0.1852,-0.163,-0.1687,-0.1744,-0.1684,-0.1738,-0.185,-0.202,-0.2364,-0.2907,-0.3019,-0.3016,-0.2961,-0.2796,-0.2796,-0.2796,-0.307,-0.3347,-0.3627,-0.3904,-0.4239,-0.4519,-0.4798,-0.4908,-0.4963,-0.5128,-0.5407,-0.5677,-0.5891,-0.6109,-0.6322,-0.6647,-0.6864,-0.7456,-0.7777,-0.799,-0.8309,-0.8685,-0.8903,-0.8804,-0.9113,-0.9769,-1.0328,-1.0838,-0.9577,-0.912,-0.9603,-0.962,-0.9415,-0.962,-0.9538,-0.9211,-0.8967,-0.8784,-0.8778,-0.8296,-0.8031,-0.7765,-0.7224,-0.6853,-0.6416,-0.5651,-0.5109,-0.4893,-0.4271,-0.3877,-0.3724,-0.3123,-0.2773,-0.2611,-0.2124,-0.2462,-0.2693,-0.2359,-0.2137,-0.2029,-0.1589,-0.1081,-0.1047,-0.1016,-0.0765,-0.0335,-0.0219,0.0055,0.0398,0.0636,0.0694,0.0575,0.0402,0.0287,0.017,-0.0226,-0.0395,-0.0337,-0.0393,-0.0449,-0.0393,-0.0393,-0.0393,-0.0561,-0.0561,-0.0561,-0.0673,-0.0954,-0.1066,-0.0954,-0.129,-0.1403,-0.1403,-0.1402,-0.1626,-0.1797,-0.1569,-0.14,-0.1344,-0.0897,-0.0785,-0.101,-0.1234,-0.1234,-0.1234,-0.1628,-0.1797,-0.1853,-0.2354,-0.2242,-0.213,-0.2074,-0.1964,-0.202,-0.2076,-0.2406,-0.2738,-0.3072,-0.3516,-0.3904,-0.4128,-0.4353,-0.4688,-0.4739,-0.5018,-0.5242,-0.5407,-0.5517,-0.5677,-0.5841,-0.5622,-0.6005,-0.6701,-0.7402,-0.7717,-0.8096,-0.8586,-0.8804,-0.8804,-0.9113,-0.9517,-1.002,-1.0482,-0.8602,-0.8608,-0.8634,-0.8568,-0.8416,-0.8538,-0.851,-0.8377,-0.8428,-0.8417,-0.8224,-0.7765,-0.723,-0.6627,-0.5764,-0.5324,-0.5054,-0.4443,-0.4067,-0.3874,-0.34,-0.3044,-0.2871,-0.2324,-0.1943,-0.1803,-0.1224,-0.0852,-0.1367,-0.1611,-0.1508,-0.1358,-0.1065,-0.0715,-0.0361,-0.0353,-0.0058,0.0344,0.0671,0.0766,0.0877,0.1216,0.1441,0.12,0.0885,0.0664,0.0384,-0.0,-0.0112,-0.0056,-0.0056,0.0112,0.028,0.0336,0.0336,0.0336,0.0336,0.0112,-0.0336,-0.0617,-0.0505,-0.0617,-0.101,-0.1346,-0.1346,-0.1233,-0.1232,-0.129,-0.0785,-0.0617,-0.0673,-0.0505,-0.0673,-0.0841,-0.0841,-0.1066,-0.1178,-0.1515,-0.1797,-0.1797,-0.1797,-0.1797,-0.1797,-0.1853,-0.1852,-0.1908,-0.1908,-0.2074,-0.2352,-0.2629,-0.3128,-0.3624,-0.3793,-0.3962,-0.4349,-0.4574,-0.4908,-0.5132,-0.5301,-0.5407,-0.5356,-0.5356,-0.5356,-0.5677,-0.6485,-0.7074,-0.7503,-0.8096,-0.8699,-0.8804,-0.8804,-0.9008,-0.9263,-0.9621,-1.0131,-0.7616,-0.7728,-0.7661,-0.7631,-0.7637,-0.7535,-0.7407,-0.7362,-0.7424,-0.7482,-0.7258,-0.677,-0.6067,-0.5371,-0.466,-0.4379,-0.4171,-0.358,-0.3395,-0.3143,-0.2739,-0.2387,-0.2165,-0.1626,-0.1265,-0.1264,-0.0434,-0.0112,-0.0173,-0.0295,-0.0482,-0.0493,-0.0244,-0.0062,0.0185,0.024,0.0406,0.0764,0.1166,0.1242,0.1179,0.1666,0.1763,0.1616,0.1326,0.0972,0.0744,0.0385,0.0224,0.0336,0.0393,0.0505,0.0729,0.0729,0.0785,0.0785,0.0729,0.0561,0.0112,-0.0112,-0.0168,-0.028,-0.0505,-0.0785,-0.101,-0.0784,-0.0671,-0.0785,-0.0336,-0.0168,-0.0168,-0.0168,-0.0112,-0.028,-0.0505,-0.0897,-0.1234,-0.1347,-0.1515,-0.1572,-0.1572,-0.1797,-0.1797,-0.1797,-0.1797,-0.1797,-0.1797,-0.1797,-0.202,-0.2296,-0.2573,-0.3016,-0.3292,-0.3516,-0.4018,-0.4349,-0.4739,-0.5077,-0.5246,-0.5301,-0.5301,-0.5352,-0.5407,-0.5891,-0.6431,-0.6961,-0.7551,-0.8203,-0.8804,-0.8804,-0.8804,-0.8804,-0.8956,-0.9316,-0.9769,-0.6455,-0.5957,-0.683,-0.7199,-0.7151,-0.6767,-0.6508,-0.6299,-0.5731,-0.551,-0.5426,-0.4965,-0.4872,-0.4584,-0.4243,-0.3928,-0.398,-0.3088,-0.2626,-0.2345,-0.2035,-0.1707,-0.1439,-0.1134,-0.0781,-0.0668,0.0053,0.044,0.051,0.0719,0.0793,0.0986,0.0681,0.088,0.0929,0.077,0.0717,0.0978,0.1269,0.1367,0.1301,0.1443,0.1437,0.1409,0.1272,0.1169,0.1119,0.0866,0.0729,0.0785,0.0729,0.0729,0.0841,0.0897,0.0897,0.0897,0.0897,0.0785,0.0617,0.0449,0.0449,0.0505,0.0336,-0.0056,-0.0224,-0.0393,-0.0393,-0.028,0.0168,0.028,0.0336,0.0449,0.0505,0.028,-0.0056,-0.0224,-0.0561,-0.0897,-0.101,-0.1178,-0.1403,-0.1572,-0.1797,-0.1797,-0.1797,-0.1797,-0.1797,-0.1797,-0.1797,-0.202,-0.2018,-0.2296,-0.2627,-0.307,-0.3683,-0.4128,-0.4684,-0.5077,-0.5301,-0.5301,-0.5301,-0.5352,-0.5407,-0.5941,-0.6475,-0.7063,-0.7599,-0.8256,-0.8752,-0.8752,-0.8804,-0.8804,-0.8962,-0.9263,-0.9718,-0.5233,-0.5009,-0.5385,-0.5588,-0.5679,-0.5461,-0.5361,-0.5284,-0.4933,-0.4751,-0.464,-0.4317,-0.4146,-0.4036,-0.3487,-0.3026,-0.2669,-0.1902,-0.1525,-0.1257,-0.1001,-0.0889,-0.0737,-0.0643,-0.0399,-0.0203,0.0426,0.084,0.0871,0.1384,0.1652,0.1608,0.1369,0.119,0.1165,0.1228,0.1251,0.118,0.1298,0.134,0.1034,0.112,0.112,0.095,0.1452,0.1254,0.1072,0.1298,0.1166,0.1008,0.0896,0.0896,0.0897,0.0898,0.0896,0.0952,0.0952,0.1064,0.112,0.0952,0.0953,0.0896,0.0728,0.0504,0.0504,0.0448,0.0448,0.0616,0.084,0.0952,0.0729,0.0785,0.0729,0.0617,0.0449,0.028,0.0056,-0.0336,-0.0617,-0.0841,-0.1122,-0.1403,-0.1628,-0.1797,-0.1797,-0.1797,-0.1797,-0.1797,-0.1797,-0.1853,-0.1964,-0.224,-0.2627,-0.3236,-0.3904,-0.4294,-0.4739,-0.5022,-0.5301,-0.5301,-0.5301,-0.5301,-0.5462,-0.5991,-0.6632,-0.7278,-0.7871,-0.8368,-0.8745,-0.891,-0.8857,-0.8804,-0.9008,-0.9263,-0.9517,-0.4347,-0.4148,-0.4233,-0.447,-0.4654,-0.4536,-0.4479,-0.4457,-0.4211,-0.4047,-0.4011,-0.3713,-0.3626,-0.3452,-0.3074,-0.2428,-0.1881,-0.1137,-0.0638,-0.0486,-0.0431,-0.0378,-0.0282,-0.0143,0.0049,0.0251,0.0788,0.1212,0.1247,0.1963,0.2216,0.2111,0.1971,0.191,0.1591,0.1624,0.1543,0.1322,0.1208,0.1143,0.083,0.1053,0.1236,0.1155,0.1662,0.1654,0.1377,0.1488,0.1367,0.1101,0.0883,0.0889,0.0949,0.1008,0.1059,0.1056,0.1225,0.1451,0.1332,0.1396,0.1455,0.1455,0.1231,0.1119,0.1174,0.1286,0.1175,0.1175,0.1511,0.1623,0.1121,0.1121,0.101,0.0841,0.0785,0.0617,0.0336,-0.0,-0.0224,-0.0505,-0.0841,-0.1234,-0.1459,-0.1628,-0.1797,-0.1797,-0.1797,-0.1797,-0.1797,-0.1908,-0.2076,-0.2406,-0.2903,-0.3569,-0.4294,-0.4684,-0.5018,-0.5077,-0.5301,-0.5301,-0.5301,-0.5356,-0.5732,-0.6431,-0.7074,-0.7605,-0.8249,-0.9001,-0.9113,-0.9061,-0.9113,-0.9106,-0.8857,-0.9061,-0.9166,-0.3978,-0.3383,-0.3643,-0.406,-0.4423,-0.4201,-0.3997,-0.3885,-0.3475,-0.3149,-0.2988,-0.2946,-0.2963,-0.2989,-0.2818,-0.2435,-0.1621,-0.0666,-0.0094,-0.0046,-0.0093,-0.0277,-0.0046,0.0235,0.068,0.0773,0.1325,0.1713,0.1737,0.2291,0.2598,0.276,0.2755,0.2805,0.2073,0.1623,0.1271,0.1013,0.1024,0.104,0.1154,0.1428,0.1617,0.1778,0.2183,0.2235,0.1902,0.1959,0.1845,0.136,0.1249,0.1208,0.1228,0.1566,0.1549,0.1191,0.2148,0.2194,0.156,0.1708,0.1953,0.2071,0.1847,0.1846,0.2015,0.1959,0.1734,0.168,0.179,0.179,0.1624,0.1457,0.1178,0.1066,0.0954,0.0841,0.0561,0.0449,0.0168,-0.0168,-0.0673,-0.1122,-0.129,-0.1459,-0.1741,-0.1797,-0.1797,-0.1797,-0.1797,-0.1908,-0.2074,-0.2573,-0.3067,-0.368,-0.4349,-0.4908,-0.5246,-0.5301,-0.5301,-0.5301,-0.5462,-0.5677,-0.6164,-0.6864,-0.7503,-0.8084,-0.8935,-0.9732,-0.9732,-0.9725,-0.9621,-0.9517,-0.9113,-0.9068,-0.942,-0.2431,-0.2189,-0.2294,-0.2523,-0.286,-0.2915,-0.2826,-0.2678,-0.2644,-0.2542,-0.247,-0.269,-0.2481,-0.2286,-0.2388,-0.2161,-0.1376,-0.055,0.009,0.0452,0.0366,0.0695,0.089,0.1108,0.1445,0.1901,0.2227,0.2261,0.2375,0.2715,0.2713,0.2815,0.3114,0.2967,0.2699,0.2413,0.2199,0.2081,0.2037,0.1998,0.1987,0.2122,0.2268,0.2319,0.2801,0.2843,0.2381,0.256,0.2489,0.2014,0.1907,0.1926,0.2006,0.2343,0.2273,0.2126,0.2802,0.2739,0.2681,0.2952,0.2961,0.2742,0.2573,0.2517,0.2519,0.224,0.2127,0.2015,0.1903,0.1792,0.1457,0.1177,0.101,0.0954,0.0898,0.0897,0.0729,0.0729,0.0561,0.0112,-0.0336,-0.0954,-0.129,-0.1234,-0.1403,-0.1628,-0.1628,-0.1741,-0.1797,-0.1852,-0.2018,-0.2627,-0.3181,-0.379,-0.4349,-0.4684,-0.5077,-0.5132,-0.5246,-0.5301,-0.5567,-0.5941,-0.6485,-0.7079,-0.7871,-0.8659,-0.9451,-1.0079,-1.0336,-1.0379,-1.0328,-1.0174,-0.9821,-0.9976,-1.0446,-0.1542,-0.1445,-0.1575,-0.1469,-0.1373,-0.1941,-0.2133,-0.2071,-0.2294,-0.2184,-0.205,-0.2515,-0.2113,-0.13,-0.0806,-0.103,-0.0268,0.0359,0.0808,0.117,0.1233,0.1488,0.1721,0.198,0.2136,0.2592,0.2651,0.2636,0.267,0.2899,0.3181,0.3408,0.3294,0.3532,0.3418,0.3121,0.2601,0.2499,0.2477,0.2495,0.2536,0.2708,0.2847,0.2988,0.3222,0.3419,0.3136,0.3136,0.3255,0.2898,0.2695,0.2707,0.2773,0.2872,0.2918,0.2882,0.2967,0.3202,0.3689,0.3954,0.3799,0.3299,0.3241,0.3132,0.2968,0.28,0.2464,0.2238,0.2071,0.1792,0.1569,0.1233,0.1121,0.1121,0.1009,0.1009,0.0954,0.0897,0.0785,0.0393,-0.0,-0.0673,-0.1178,-0.1122,-0.1122,-0.129,-0.1403,-0.1572,-0.1741,-0.1852,-0.1964,-0.2517,-0.2959,-0.3458,-0.3849,-0.4236,-0.4574,-0.4963,-0.5077,-0.5187,-0.5837,-0.6263,-0.675,-0.7289,-0.809,-0.8935,-0.9858,-1.0423,-1.0889,-1.1099,-1.1141,-1.088,-1.0525,-1.0685,-1.0998,-0.1341,-0.112,-0.1457,-0.0942,-0.0221,-0.1206,-0.1824,-0.2105,-0.2194,-0.179,-0.1265,-0.2115,-0.1433,0.0179,0.1839,0.202,0.1435,0.1839,0.1884,0.1997,0.19,0.2125,0.2319,0.249,0.2798,0.2742,0.2837,0.3103,0.2892,0.3347,0.3904,0.4223,0.4171,0.4233,0.3959,0.3566,0.3058,0.3097,0.3087,0.3098,0.3146,0.3292,0.3412,0.3534,0.3706,0.3715,0.3568,0.3473,0.3253,0.3021,0.2835,0.2832,0.2952,0.3296,0.321,0.3237,0.3448,0.3987,0.4433,0.4641,0.4519,0.4076,0.4021,0.3802,0.3524,0.3246,0.291,0.2575,0.235,0.2127,0.1903,0.1681,0.1514,0.1345,0.1177,0.1121,0.101,0.0954,0.0897,0.0617,0.0336,-0.0168,-0.0561,-0.0617,-0.0673,-0.0841,-0.101,-0.1178,-0.1347,-0.1741,-0.1964,-0.2296,-0.2738,-0.3012,-0.3403,-0.3846,-0.4349,-0.4739,-0.4908,-0.5128,-0.5832,-0.6588,-0.7074,-0.761,-0.8368,-0.9263,-1.0285,-1.1049,-1.1619,-1.1769,-1.1501,-1.1501,-1.1091,-1.088,-1.104,-0.0067,0.0034,-0.0102,0.0108,0.0387,0.0084,-0.0043,-0.0127,-0.0175,-0.0,0.0168,0.0176,0.0402,0.112,0.2292,0.2563,0.2608,0.2518,0.2337,0.2327,0.2343,0.2555,0.2783,0.3077,0.3403,0.3717,0.3785,0.3714,0.3923,0.4233,0.4168,0.4277,0.4587,0.456,0.446,0.4181,0.4015,0.3904,0.3901,0.3762,0.3793,0.3996,0.4056,0.4108,0.4068,0.4078,0.4118,0.4017,0.3918,0.3971,0.4005,0.4106,0.4158,0.4354,0.4368,0.44,0.4554,0.4793,0.4957,0.5066,0.5022,0.4853,0.4857,0.4467,0.4024,0.3633,0.3357,0.2963,0.2687,0.2462,0.235,0.2183,0.2071,0.1959,0.1734,0.1512,0.14,0.1177,0.1065,0.0785,0.0505,0.028,-0.0112,-0.0112,-0.0168,-0.0336,-0.0505,-0.0673,-0.101,-0.1403,-0.1684,-0.2073,-0.2406,-0.2683,-0.3125,-0.3624,-0.407,-0.4515,-0.4739,-0.5124,-0.5937,-0.6642,-0.7235,-0.7877,-0.8521,-0.9614,-1.0854,-1.1368,-1.1519,-1.1669,-1.156,-1.166,-1.1701,-1.1401,-1.1242,0.0504,0.0472,0.0483,0.0664,0.0931,0.1304,0.1453,0.1302,0.1063,0.1056,0.1473,0.1774,0.1971,0.1969,0.2558,0.2876,0.2876,0.2784,0.2695,0.2635,0.2654,0.2985,0.3301,0.3742,0.4136,0.444,0.4502,0.4435,0.4513,0.4692,0.4695,0.4742,0.4925,0.5101,0.5171,0.5226,0.5167,0.4952,0.4791,0.457,0.4519,0.4508,0.446,0.4417,0.431,0.4554,0.4707,0.4665,0.4951,0.507,0.5175,0.5069,0.5011,0.4999,0.4977,0.491,0.499,0.5075,0.5185,0.5245,0.5289,0.5301,0.5301,0.5022,0.4632,0.419,0.3796,0.335,0.3074,0.2798,0.274,0.2685,0.2683,0.2627,0.2348,0.2069,0.179,0.1456,0.1232,0.0953,0.0673,0.0449,0.0336,0.0336,0.0336,0.028,0.0224,0.0056,-0.0392,-0.101,-0.1234,-0.1514,-0.1961,-0.2294,-0.2794,-0.3239,-0.3683,-0.4125,-0.4519,-0.5066,-0.5937,-0.648,-0.6961,-0.7711,-0.8613,-0.9547,-1.0328,-1.0744,-1.0947,-1.1049,-1.1091,-1.1091,-1.1292,-1.166,-1.161,0.0674,0.0676,0.068,0.1038,0.1502,0.2321,0.2497,0.219,0.165,0.1791,0.242,0.2739,0.2737,0.2684,0.2998,0.3132,0.3223,0.3223,0.3135,0.2974,0.3237,0.3506,0.3942,0.4559,0.4631,0.4721,0.4824,0.4864,0.4584,0.4796,0.5222,0.535,0.5823,0.5937,0.5882,0.5937,0.5769,0.5496,0.5171,0.4846,0.468,0.4535,0.4449,0.4349,0.4584,0.4927,0.5131,0.5458,0.5935,0.6004,0.6041,0.5828,0.5719,0.555,0.5394,0.5381,0.5562,0.5668,0.5658,0.5605,0.5504,0.5462,0.5352,0.5242,0.4912,0.4522,0.4073,0.3793,0.3519,0.3297,0.3186,0.3294,0.335,0.3236,0.3014,0.2569,0.2179,0.1846,0.1511,0.1288,0.112,0.0952,0.1231,0.1286,0.1064,0.1008,0.0896,0.0784,0.0336,-0.0336,-0.0841,-0.1066,-0.1457,-0.1905,-0.2296,-0.274,-0.3128,-0.3572,-0.4128,-0.4677,-0.5382,-0.5982,-0.6583,-0.7224,-0.7913,-0.8606,-0.9287,-0.9636,-0.9887,-0.999,-1.0041,-1.0261,-1.0626,-1.1141,-1.1401,0.1982,0.196,0.2149,0.2345,0.2492,0.2902,0.2936,0.2735,0.2734,0.2637,0.2598,0.2779,0.309,0.3303,0.3347,0.3524,0.3788,0.3748,0.37,0.3611,0.3678,0.3946,0.4217,0.4816,0.4976,0.5073,0.5199,0.5238,0.4996,0.5304,0.5575,0.5599,0.6087,0.6338,0.6342,0.6347,0.6209,0.5987,0.5823,0.55,0.5226,0.5171,0.5043,0.5145,0.541,0.5681,0.5887,0.599,0.6201,0.6264,0.6573,0.6642,0.6701,0.6486,0.647,0.6579,0.6418,0.642,0.6387,0.6159,0.6,0.5782,0.5622,0.5407,0.5132,0.4743,0.4408,0.4184,0.3962,0.3796,0.3741,0.3849,0.3904,0.379,0.3624,0.3125,0.2567,0.2179,0.179,0.1679,0.1624,0.1734,0.2014,0.1958,0.179,0.1679,0.1623,0.1455,0.1119,0.0504,-0.0393,-0.0729,-0.1066,-0.1458,-0.185,-0.2408,-0.2905,-0.3292,-0.3849,-0.434,-0.4831,-0.532,-0.5869,-0.6411,-0.7052,-0.7522,-0.7894,-0.8212,-0.8469,-0.8561,-0.894,-0.9096,-0.9422,-0.9887,-1.0312,0.246,0.2414,0.2667,0.2817,0.2866,0.3229,0.3221,0.3004,0.3327,0.3224,0.284,0.3011,0.3309,0.3571,0.3656,0.3877,0.4188,0.4232,0.4096,0.401,0.4069,0.4364,0.4739,0.5136,0.5449,0.5646,0.5667,0.5604,0.5423,0.5763,0.6086,0.6051,0.6442,0.6781,0.6791,0.6844,0.6756,0.6534,0.6588,0.6372,0.5987,0.5878,0.5703,0.5797,0.6001,0.6358,0.6603,0.6691,0.6949,0.7004,0.7128,0.6966,0.6999,0.7019,0.7072,0.7105,0.7083,0.7134,0.7036,0.681,0.6485,0.6213,0.5941,0.5727,0.5297,0.4908,0.4736,0.4515,0.4349,0.4128,0.4128,0.4239,0.4239,0.4181,0.407,0.3738,0.3181,0.2623,0.2402,0.2235,0.2181,0.2237,0.2402,0.2402,0.2235,0.2237,0.2181,0.1958,0.1621,0.1287,0.0336,-0.0393,-0.0673,-0.1234,-0.1796,-0.2296,-0.2847,-0.3236,-0.3514,-0.3788,-0.4171,-0.4608,-0.5097,-0.5425,-0.5747,-0.6013,-0.6382,-0.6758,-0.6753,-0.6742,-0.734,-0.7882,-0.8258,-0.8587,-0.8901,0.2679,0.2608,0.2911,0.302,0.3102,0.3661,0.3655,0.3389,0.3874,0.387,0.3556,0.3727,0.3653,0.3619,0.3836,0.3968,0.4232,0.4626,0.4583,0.4454,0.4467,0.4751,0.5171,0.5737,0.6029,0.6154,0.6179,0.6092,0.5968,0.6406,0.6712,0.6668,0.7101,0.7662,0.7768,0.7896,0.783,0.7664,0.7605,0.7289,0.6966,0.6647,0.6328,0.6325,0.6561,0.6875,0.7189,0.7441,0.782,0.784,0.7729,0.7616,0.7557,0.767,0.7629,0.7646,0.7747,0.7676,0.745,0.7187,0.681,0.648,0.6317,0.5887,0.5403,0.5128,0.4956,0.4846,0.4625,0.4519,0.4519,0.4625,0.4625,0.446,0.4405,0.4294,0.3735,0.3178,0.3014,0.2847,0.2847,0.2847,0.2959,0.2903,0.285,0.2794,0.2681,0.2402,0.2068,0.1621,0.1007,0.0224,-0.028,-0.0897,-0.1628,-0.2184,-0.2681,-0.2738,-0.2961,-0.3236,-0.3458,-0.3729,-0.3947,-0.4168,-0.4436,-0.482,-0.498,-0.5249,-0.519,-0.5132,-0.6,-0.6758,-0.6983,-0.7309,-0.7486,0.3876,0.4018,0.4144,0.4173,0.424,0.47,0.4788,0.4685,0.5094,0.5186,0.4951,0.5022,0.4918,0.4144,0.4355,0.4618,0.4975,0.5241,0.5106,0.4916,0.506,0.5181,0.5496,0.6161,0.6549,0.6705,0.6786,0.6645,0.687,0.7221,0.7398,0.7424,0.7592,0.809,0.8521,0.8613,0.862,0.8501,0.8448,0.8243,0.7759,0.7385,0.7015,0.7074,0.7393,0.7606,0.777,0.7982,0.8072,0.8203,0.8262,0.8315,0.8262,0.8309,0.8315,0.8262,0.8368,0.8315,0.8103,0.7676,0.7241,0.681,0.648,0.5778,0.5403,0.5238,0.5124,0.5011,0.4791,0.4625,0.4625,0.4956,0.5007,0.468,0.446,0.4398,0.4116,0.3843,0.368,0.3624,0.3569,0.3735,0.3959,0.3793,0.3405,0.335,0.3239,0.2959,0.2625,0.2124,0.1566,0.0839,0.0168,-0.0728,-0.1572,-0.1959,-0.2347,-0.2348,-0.2294,-0.2348,-0.2458,-0.2683,-0.2903,-0.301,-0.3345,-0.3729,-0.3892,-0.3889,-0.3889,-0.4051,-0.498,-0.5634,-0.5801,-0.6023,-0.6298]},{"header":{"parameterUnit":"m.s-1","parameterCategory":1,"la1":31.0,"la2":29.5877,"lo1":-88.7671,"lo2":-86.6584,"dy":0.0162,"dx":0.0185,"nx":115,"ny":88,"refTime":"2023-09-07T00:00:00:Z","depth":0,"parameterNumber":3,"parameterNumberName":"V-component_of_WINDS"},"data":[0.0,0.0,0.0,0.0,0.0,0.0,0.0,0.0,0.0,0.0,0.0,0.0,0.0,0.0,0.0,0.0,0.0,0.0,0.0,0.0,0.0,0.0,0.0,0.0,0.0,0.0,0.0,0.0,0.0,0.0,0.0,0.0,0.0,0.0,0.0,0.0,0.0,0.0,0.0,0.0,0.0,0.0,0.0,0.0,0.0,0.0,0.0,0.0,0.0,0.0,0.0,0.0,0.0,0.0,0.0,0.0,0.0,0.0,0.0,0.0,0.0,0.0,0.0,0.0,0.0,0.0,0.0,0.0,0.0,0.0,0.0,0.0,0.0,0.0,0.0,0.0,0.0,0.0,0.0,0.0,0.0,0.0,0.0,0.0,0.0,0.0,0.0,0.0,0.0,0.0,0.0,0.0,0.0,0.0,0.0,0.0,0.0,0.0,0.0,0.0,0.0,0.0,0.0,0.0,0.0,0.0,0.0,0.0,0.0,0.0,0.0,0.0,0.0,0.0,0.0,0.0,0.0,0.0,0.0,0.0,0.0,0.0,0.0,0.0,0.0,0.0,0.0,0.0,0.0,0.0,0.0,0.0,0.0,0.0,0.0,0.0,0.0,0.0,0.0,0.0,0.0,0.0,0.0,0.0,0.0,0.0,0.0,0.0,0.0,0.0,0.0,0.0,0.0,0.0,0.0,0.0,0.0,0.0,0.0,0.0,0.0,0.0,0.0,0.0,0.0,0.0,0.0,0.0,0.0,0.0,0.0,0.0,0.0,0.0,0.0,0.0,0.0,0.0,0.0,0.0,0.0,0.0,0.0,0.0,0.0,0.0,0.0,0.0,0.0,0.0,0.0,0.0,0.0,0.0,0.0,0.0,0.0,0.0,0.0,0.0,0.0,0.0,0.0,0.0,0.0,0.0,0.0,0.0,0.0,0.0,0.0,0.0,0.0,0.0,0.0,0.0,0.0,0.0,0.0,0.0,0.0,0.0,0.0,0.0,0.0,0.0,0.0,0.0,0.0,0.0,0.0,0.0,0.0,0.0,0.0,0.0,0.0,0.0,0.0,0.0,0.0,0.0,0.0,0.0,0.0,0.0,0.0,0.0,0.0,0.0,0.0,0.0,0.0,0.0,0.0,0.0,0.0,0.0,0.0,0.0,0.0,0.0,0.0,0.0,0.0,0.0,0.0,0.0,0.0,0.0,0.0,0.0,0.0,0.0,0.0,0.0,0.0,0.0,0.0,0.0,0.0,0.0,0.0,0.0,0.0,0.0,0.0,0.0,0.0,0.0,0.0,0.0,0.0,0.0,0.0,0.0,0.0,0.0,0.0,0.0,0.0,0.0,0.0,0.0,0.0,0.0,0.0,0.0,0.0,0.0,0.0,0.0,0.0,0.0,0.0,0.0,0.0,0.0,0.0,0.0,0.0,0.0,0.0,0.0,0.0,0.0,0.0,0.0,0.0,0.0,0.0,0.0,0.0,0.0,0.0,0.0,0.0,0.0,0.0,0.0,0.0,0.0,0.0,0.0,0.0,0.0,0.0,0.0,0.0,0.0,0.0,0.0,0.0,0.0,0.0,0.0,0.0,0.0,0.0,0.0,0.0,0.0,0.0,0.0,0.0,0.0,0.0,0.0,0.0,0.0,0.0,0.0,0.0,0.0,0.0,0.0,0.0,0.0,0.0,0.0,0.0,0.0,0.0,0.0,0.0,0.0,0.0,0.0,0.0,0.0,0.0,0.0,0.0,0.0,0.0,0.0,0.0,0.0,0.0,0.0,0.0,0.0,0.0,0.0,0.0,0.0,0.0,0.0,0.0,0.0,0.0,0.0,0.0,0.0,0.0,0.0,0.0,0.0,0.0,0.0,0.0,0.0,0.0,0.0,0.0,0.0,0.0,0.0,0.0,0.0,0.0,0.0,0.0,0.0,0.0,0.0,0.0,0.0,0.0,0.0,0.0,0.0,0.0,0.0,0.0,0.0,0.0,0.0,0.0,0.0,0.0,0.0,0.0,0.0,0.0,0.0,0.0,0.0,0.0,0.0,0.0,0.0,0.0,0.0,0.0,0.0,0.0,0.0,0.0,0.0,0.0,0.0,0.0,0.0,0.0,0.0,0.0,0.0,0.0,0.0,0.0,0.0,0.0,0.0,0.0,0.0,0.0,0.0,0.0,0.0,0.0,0.0,0.0,0.0,0.0,0.0,0.0,0.0,0.0,0.0,0.0,0.0,0.0,0.0,0.0,0.0,0.0,0.0,0.0,0.0,0.0,0.0,0.0,0.0,0.0,0.0,0.0,0.0,0.0,0.0,0.0,0.0,0.0,0.0,0.0,0.0,0.0,0.0,0.0,0.0,0.0,0.0,0.0,0.0,0.0,0.0,0.0,0.0,0.0,0.0,0.0,0.0,0.0,0.0,0.0,0.0,0.0,0.0,0.0,0.0,0.0,0.0,0.0,0.0,0.0,0.0,0.0,0.0,0.0,0.0,0.0,0.0,0.0,0.0,0.0,0.0,0.0,0.0,0.0,0.0,0.0,0.0,0.0,0.0,0.0,0.0,0.0,0.0,0.0,0.0,0.0,0.0,0.0,0.0,0.0,0.0,0.0,0.0,0.0,0.0,0.0,0.0,0.0,0.0,0.0,0.0,0.0,0.0,0.0,0.0,0.0,0.0,0.0,0.0,0.0,0.0,0.0,0.0,0.0,0.0,0.0,0.0,0.0,0.0,0.0,0.0,0.0,0.0,0.0,0.0,0.0,0.0,0.0,0.0,0.0,0.0,0.0,0.0,0.0,0.0,0.0,0.0,0.0,0.0,0.0,0.0,0.0,0.0,0.0,0.0,0.0,0.0,0.0,0.0,0.0,0.0,0.0,0.0,0.0,0.0,0.0,0.0,0.0,0.0,0.0,0.0,0.0,0.0,0.0,0.0,0.0,0.0,0.0,0.0,0.0,0.0,0.0,0.0,0.0,0.0,0.0,0.0,0.0,0.0,0.0,0.0,0.0,0.0,0.0,0.0,0.0,0.0,0.0,0.0,0.0,0.0,0.0,0.0,0.0,0.0,0.0,0.0,0.0,0.0,0.0,0.0,0.0,0.0,0.0,0.0,0.0,0.0,0.0,0.0,0.0,0.0,0.0,0.0,0.0,0.0,0.0,0.0,0.0,0.0,0.0,0.0,0.0,0.0,0.0,0.0,0.0,0.0,0.0,0.0,0.0,0.0,0.0,0.0,0.0,0.0,0.0,0.0,0.0,0.0,0.0,0.0,0.0,0.0,0.0,0.0,0.0,0.0,0.0,0.0,0.0,0.0,0.0,0.0,0.0,0.0,0.0,0.0,0.0,0.0,0.0,0.0,0.0,0.0,0.0,0.0,0.0,0.0,0.0,0.0,0.0,0.0,0.0,0.0,0.0,0.0,0.0,0.0,0.0,0.0,0.0,0.0,0.0,0.0,0.0,0.0,0.0,0.0,0.0,0.0,0.0,0.0,0.0,0.0,0.0,0.0,0.0,0.0,0.0,0.0,0.0,0.0,0.0,0.0,0.0,0.0,0.0,0.0,0.0,0.0,0.0,0.0,0.0,0.0,0.0,0.0,0.0,0.0,0.0,0.0,0.0,0.0,0.0,0.0,0.0,0.0,0.0,0.0,0.0,0.0,0.0,0.0,0.0,0.0,0.0,0.0,0.0,0.0,0.0,0.0,0.0,0.0,0.0,0.0,0.0,0.0,0.0,0.0,0.0,0.0,0.0,0.0,0.0,0.0,0.0,0.0,0.0,0.0,0.0,0.0,0.0,0.0,0.0,0.0,0.0,0.0,0.0,0.0,0.0,0.0,0.0,0.0,0.0,0.0,0.0,0.0,0.0,0.0,0.0,0.0,0.0,0.0,0.0,0.0,0.0,0.0,0.0,0.0,0.0,0.0,0.0,0.0,0.0,0.0,0.0,0.0,0.0,0.0,0.0,0.0,0.0,0.0,0.0,0.0,0.0,0.0,0.0,0.0,0.0,0.0,0.0,0.0,0.0,0.0,0.0,0.0,0.0,0.0,0.0,0.0,0.0,0.0,0.0,0.0,0.0,0.0,0.0,0.0,0.0,0.0,0.0,0.0,0.0,0.0,0.0,0.0,0.0,0.0,0.0,0.0,0.0,0.0,0.0,0.0,0.0,0.0,0.0,0.0,0.0,0.0,0.0,0.0,0.0,0.0,0.0,0.0,0.0,0.0,0.0,0.0,0.0,0.0,0.0,0.0,0.0,0.0,0.0,0.0,0.0,0.0,0.0,0.0,-2.516,0.0,0.0,0.0,0.0,0.0,0.0,0.0,0.0,0.0,0.0,0.0,0.0,0.0,0.0,0.0,0.0,0.0,0.0,0.0,0.0,0.0,0.0,0.0,0.0,0.0,0.0,0.0,0.0,0.0,0.0,0.0,0.0,0.0,0.0,0.0,0.0,0.0,0.0,0.0,0.0,0.0,0.0,0.0,0.0,0.0,0.0,0.0,0.0,0.0,0.0,0.0,0.0,0.0,0.0,0.0,0.0,0.0,0.0,0.0,0.0,0.0,0.0,0.0,0.0,0.0,0.0,0.0,0.0,0.0,0.0,0.0,0.0,0.0,0.0,0.0,0.0,0.0,0.0,0.0,0.0,0.0,0.0,0.0,0.0,0.0,0.0,0.0,0.0,0.0,0.0,0.0,0.0,0.0,0.0,0.0,0.0,0.0,0.0,0.0,0.0,0.0,0.0,0.0,0.0,0.0,0.0,0.0,0.0,0.0,0.0,-2.395,-2.4559,-2.4555,-2.4712,-2.517,0.0,0.0,0.0,0.0,0.0,0.0,0.0,0.0,0.0,0.0,0.0,0.0,0.0,0.0,0.0,0.0,0.0,0.0,0.0,0.0,0.0,0.0,0.0,0.0,0.0,0.0,0.0,0.0,0.0,0.0,0.0,0.0,0.0,0.0,0.0,0.0,0.0,0.0,0.0,0.0,0.0,0.0,0.0,0.0,0.0,0.0,0.0,0.0,0.0,0.0,0.0,0.0,0.0,0.0,0.0,0.0,0.0,0.0,0.0,0.0,0.0,0.0,0.0,0.0,0.0,0.0,0.0,0.0,0.0,0.0,0.0,0.0,0.0,0.0,0.0,0.0,0.0,0.0,0.0,0.0,0.0,0.0,0.0,0.0,0.0,0.0,0.0,0.0,0.0,0.0,0.0,0.0,0.0,0.0,0.0,0.0,0.0,0.0,0.0,0.0,0.0,0.0,0.0,0.0,0.0,0.0,0.0,0.0,0.0,0.0,0.0,0.0,-2.5071,-2.5301,-2.5447,0.0,0.0,0.0,0.0,0.0,0.0,0.0,0.0,0.0,0.0,0.0,0.0,0.0,0.0,0.0,0.0,0.0,0.0,0.0,0.0,0.0,0.0,0.0,0.0,0.0,0.0,0.0,0.0,0.0,0.0,0.0,0.0,0.0,0.0,0.0,0.0,0.0,0.0,0.0,0.0,0.0,0.0,0.0,0.0,0.0,0.0,0.0,0.0,0.0,0.0,0.0,0.0,0.0,0.0,0.0,0.0,0.0,0.0,0.0,0.0,0.0,0.0,0.0,0.0,0.0,0.0,0.0,0.0,0.0,0.0,0.0,0.0,0.0,0.0,0.0,0.0,0.0,0.0,0.0,0.0,0.0,0.0,0.0,0.0,0.0,0.0,0.0,0.0,0.0,0.0,0.0,0.0,0.0,0.0,0.0,0.0,0.0,0.0,0.0,0.0,0.0,0.0,0.0,0.0,0.0,0.0,0.0,0.0,0.0,0.0,-2.4524,-2.5653,-2.583,0.0,-2.6213,0.0,0.0,0.0,0.0,0.0,0.0,0.0,0.0,0.0,0.0,0.0,0.0,0.0,0.0,0.0,0.0,0.0,0.0,0.0,0.0,0.0,0.0,0.0,0.0,0.0,0.0,0.0,0.0,0.0,0.0,0.0,0.0,0.0,0.0,0.0,0.0,0.0,0.0,0.0,0.0,0.0,0.0,0.0,0.0,0.0,0.0,0.0,0.0,0.0,0.0,0.0,0.0,0.0,0.0,0.0,0.0,0.0,0.0,0.0,0.0,0.0,0.0,0.0,0.0,0.0,0.0,0.0,0.0,0.0,0.0,0.0,0.0,0.0,0.0,0.0,0.0,0.0,0.0,0.0,0.0,0.0,0.0,0.0,0.0,0.0,0.0,0.0,0.0,0.0,0.0,0.0,0.0,0.0,0.0,0.0,0.0,0.0,0.0,0.0,0.0,0.0,0.0,0.0,0.0,0.0,0.0,0.0,0.0,0.0,0.0,-2.5639,-2.6721,-2.6918,-2.6856,0.0,0.0,0.0,0.0,0.0,0.0,0.0,0.0,0.0,0.0,0.0,0.0,0.0,0.0,0.0,0.0,0.0,0.0,0.0,0.0,0.0,0.0,0.0,0.0,0.0,0.0,0.0,0.0,0.0,0.0,0.0,0.0,0.0,0.0,0.0,0.0,0.0,0.0,0.0,0.0,0.0,0.0,0.0,0.0,0.0,0.0,0.0,0.0,0.0,0.0,0.0,0.0,0.0,0.0,0.0,0.0,0.0,0.0,0.0,0.0,0.0,0.0,0.0,0.0,0.0,0.0,0.0,0.0,0.0,0.0,0.0,0.0,0.0,0.0,0.0,0.0,0.0,0.0,0.0,0.0,0.0,0.0,0.0,0.0,0.0,0.0,0.0,0.0,0.0,0.0,0.0,0.0,0.0,0.0,0.0,0.0,0.0,0.0,0.0,0.0,0.0,0.0,0.0,0.0,0.0,0.0,0.0,0.0,0.0,0.0,-2.5636,-2.6191,-2.7303,-2.76,-2.7425,-2.6819,0.0,0.0,0.0,0.0,0.0,0.0,0.0,0.0,0.0,0.0,0.0,0.0,0.0,0.0,0.0,0.0,0.0,0.0,0.0,0.0,0.0,0.0,0.0,0.0,0.0,0.0,0.0,0.0,0.0,0.0,0.0,0.0,0.0,0.0,0.0,0.0,0.0,0.0,0.0,0.0,0.0,0.0,0.0,0.0,0.0,0.0,0.0,0.0,0.0,0.0,0.0,0.0,0.0,0.0,0.0,0.0,0.0,0.0,0.0,0.0,0.0,0.0,0.0,0.0,0.0,0.0,0.0,0.0,0.0,0.0,0.0,0.0,0.0,0.0,0.0,0.0,0.0,0.0,0.0,0.0,0.0,0.0,0.0,0.0,0.0,0.0,0.0,0.0,0.0,0.0,0.0,0.0,0.0,0.0,0.0,0.0,0.0,0.0,0.0,0.0,0.0,0.0,0.0,0.0,0.0,0.0,0.0,0.0,-2.5291,-2.5124,-2.5759,-2.722,-2.7616,-2.7612,0.0,0.0,0.0,0.0,0.0,0.0,0.0,0.0,0.0,0.0,0.0,0.0,0.0,0.0,0.0,0.0,0.0,0.0,0.0,0.0,0.0,0.0,0.0,0.0,0.0,0.0,0.0,0.0,0.0,0.0,0.0,0.0,0.0,0.0,0.0,0.0,0.0,0.0,0.0,0.0,0.0,0.0,0.0,0.0,0.0,0.0,0.0,0.0,0.0,0.0,0.0,0.0,0.0,0.0,0.0,0.0,0.0,0.0,0.0,0.0,0.0,0.0,0.0,0.0,0.0,0.0,0.0,0.0,0.0,0.0,0.0,0.0,0.0,0.0,0.0,0.0,0.0,0.0,0.0,0.0,0.0,0.0,0.0,0.0,0.0,0.0,0.0,0.0,0.0,0.0,0.0,0.0,0.0,0.0,0.0,0.0,0.0,0.0,0.0,0.0,0.0,0.0,0.0,0.0,0.0,0.0,0.0,0.0,0.0,-2.4524,-2.4483,-2.5059,-2.6212,-2.6809,-2.6867,0.0,0.0,0.0,0.0,0.0,0.0,0.0,0.0,0.0,0.0,0.0,0.0,0.0,0.0,0.0,0.0,0.0,0.0,0.0,0.0,0.0,0.0,0.0,0.0,0.0,0.0,0.0,0.0,0.0,0.0,0.0,0.0,0.0,0.0,0.0,0.0,0.0,0.0,0.0,0.0,0.0,0.0,0.0,0.0,0.0,0.0,0.0,0.0,0.0,0.0,0.0,0.0,0.0,0.0,0.0,0.0,0.0,0.0,0.0,0.0,0.0,0.0,0.0,0.0,0.0,0.0,0.0,0.0,0.0,0.0,0.0,0.0,0.0,0.0,0.0,0.0,0.0,0.0,0.0,0.0,0.0,0.0,0.0,0.0,0.0,0.0,0.0,0.0,0.0,0.0,0.0,0.0,0.0,0.0,0.0,0.0,0.0,0.0,0.0,0.0,0.0,0.0,0.0,0.0,0.0,0.0,0.0,0.0,0.0,-2.2218,0.0,-2.309,-2.43,-2.519,-2.5654,0.0,0.0,0.0,0.0,0.0,0.0,0.0,0.0,0.0,0.0,0.0,0.0,0.0,0.0,0.0,0.0,0.0,0.0,0.0,0.0,0.0,0.0,0.0,0.0,0.0,0.0,0.0,0.0,0.0,0.0,0.0,0.0,0.0,0.0,0.0,0.0,0.0,0.0,0.0,0.0,0.0,0.0,0.0,0.0,0.0,0.0,0.0,0.0,0.0,0.0,0.0,0.0,0.0,0.0,0.0,0.0,0.0,0.0,0.0,0.0,0.0,0.0,0.0,0.0,0.0,0.0,0.0,0.0,0.0,0.0,0.0,0.0,0.0,0.0,0.0,0.0,0.0,0.0,0.0,0.0,0.0,0.0,0.0,0.0,0.0,0.0,0.0,0.0,0.0,0.0,0.0,0.0,0.0,0.0,0.0,0.0,0.0,0.0,0.0,0.0,0.0,0.0,0.0,0.0,0.0,0.0,0.0,0.0,-2.0137,-1.8213,-1.8643,-1.9743,-2.1433,-2.2751,-2.3953,0.0,0.0,0.0,0.0,0.0,0.0,0.0,0.0,0.0,0.0,0.0,0.0,0.0,0.0,0.0,0.0,0.0,0.0,0.0,0.0,0.0,0.0,0.0,0.0,0.0,0.0,0.0,0.0,0.0,0.0,0.0,0.0,0.0,0.0,0.0,0.0,0.0,0.0,0.0,0.0,0.0,0.0,0.0,0.0,0.0,0.0,0.0,0.0,0.0,0.0,0.0,0.0,0.0,0.0,0.0,0.0,0.0,0.0,0.0,0.0,0.0,0.0,0.0,0.0,0.0,0.0,0.0,0.0,0.0,0.0,0.0,0.0,0.0,0.0,0.0,0.0,0.0,0.0,0.0,0.0,0.0,0.0,0.0,0.0,0.0,0.0,0.0,0.0,0.0,0.0,0.0,0.0,0.0,0.0,0.0,0.0,0.0,0.0,0.0,0.0,0.0,0.0,0.0,0.0,0.0,0.0,0.0,0.0,0.0,-1.4702,-1.5023,-1.6191,-1.8341,-2.0226,-2.1801,0.0,0.0,0.0,0.0,0.0,0.0,0.0,0.0,0.0,0.0,0.0,0.0,0.0,0.0,0.0,0.0,0.0,0.0,0.0,0.0,0.0,0.0,0.0,0.0,0.0,0.0,0.0,0.0,0.0,0.0,0.0,0.0,0.0,0.0,0.0,0.0,0.0,0.0,0.0,0.0,0.0,0.0,0.0,0.0,0.0,0.0,0.0,0.0,0.0,0.0,0.0,0.0,0.0,0.0,0.0,0.0,0.0,0.0,0.0,0.0,0.0,0.0,0.0,0.0,0.0,0.0,0.0,0.0,0.0,0.0,0.0,0.0,0.0,0.0,0.0,0.0,0.0,0.0,0.0,0.0,0.0,0.0,0.0,0.0,0.0,0.0,0.0,0.0,0.0,0.0,0.0,0.0,0.0,0.0,0.0,0.0,0.0,0.0,0.0,0.0,0.0,0.0,0.0,0.0,0.0,0.0,0.0,0.0,0.0,-0.9958,-1.1471,-1.3461,-1.618,-1.8307,-2.0237,-2.2014,0.0,0.0,0.0,0.0,0.0,0.0,0.0,0.0,0.0,0.0,0.0,0.0,0.0,0.0,0.0,0.0,0.0,0.0,0.0,0.0,0.0,0.0,0.0,0.0,0.0,0.0,0.0,0.0,0.0,0.0,0.0,0.0,0.0,0.0,0.0,0.0,0.0,0.0,0.0,0.0,0.0,0.0,0.0,0.0,0.0,0.0,0.0,0.0,0.0,0.0,0.0,0.0,0.0,0.0,0.0,0.0,0.0,0.0,0.0,0.0,0.0,0.0,0.0,0.0,0.0,0.0,0.0,0.0,0.0,0.0,0.0,0.0,0.0,0.0,0.0,0.0,0.0,0.0,0.0,0.0,0.0,0.0,0.0,0.0,0.0,0.0,0.0,0.0,0.0,0.0,0.0,0.0,0.0,0.0,0.0,0.0,0.0,0.0,0.0,0.0,0.0,0.0,0.0,0.0,0.0,0.0,0.0,0.0,-0.462,-0.809,-1.152,-1.4714,-1.7016,-1.924,0.0,0.0,0.0,0.0,0.0,0.0,0.0,0.0,0.0,0.0,0.0,0.0,0.0,0.0,0.0,0.0,0.0,0.0,0.0,0.0,0.0,0.0,0.0,0.0,0.0,0.0,0.0,0.0,0.0,0.0,0.0,0.0,0.0,0.0,0.0,0.0,0.0,0.0,0.0,0.0,0.0,0.0,0.0,0.0,0.0,0.0,0.0,0.0,0.0,0.0,0.0,0.0,0.0,0.0,0.0,0.0,0.0,0.0,0.0,0.0,0.0,0.0,0.0,0.0,0.0,0.0,0.0,0.0,0.0,0.0,0.0,0.0,0.0,0.0,0.0,0.0,0.0,0.0,0.0,0.0,0.0,0.0,0.0,0.0,0.0,0.0,0.0,0.0,0.0,0.0,0.0,0.0,0.0,0.0,0.0,0.0,0.0,0.0,0.0,0.0,0.0,0.0,0.0,0.0,0.0,0.0,0.0,0.0,0.0,-0.4653,-0.7493,-1.0282,-1.2936,-1.5715,-1.8182,0.0,0.0,0.0,0.0,0.0,0.0,0.0,0.0,0.0,0.0,0.0,0.0,0.0,0.0,0.0,0.0,0.0,0.0,0.0,0.0,0.0,0.0,0.0,0.0,0.0,0.0,0.0,0.0,0.0,0.0,0.0,0.0,0.0,0.0,0.0,0.0,0.0,0.0,0.0,0.0,0.0,0.0,0.0,0.0,0.0,0.0,0.0,0.0,0.0,0.0,0.0,0.0,0.0,0.0,0.0,0.0,0.0,0.0,0.0,0.0,0.0,0.0,0.0,0.0,0.0,0.0,0.0,0.0,0.0,0.0,0.0,0.0,0.0,0.0,0.0,0.0,0.0,0.0,0.0,0.0,0.0,0.0,0.0,0.0,0.0,0.0,0.0,0.0,0.0,0.0,0.0,0.0,0.0,0.0,0.0,0.0,0.0,0.0,0.0,0.0,0.0,0.0,0.0,0.0,0.0,0.0,0.0,0.0,-0.3961,-0.4621,-0.759,-1.0094,-1.2043,-1.5129,-1.777,0.0,0.0,0.0,0.0,0.0,0.0,0.0,0.0,0.0,0.0,0.0,0.0,0.0,0.0,0.0,0.0,0.0,0.0,0.0,0.0,0.0,0.0,0.0,0.0,0.0,0.0,0.0,0.0,0.0,0.0,0.0,0.0,0.0,0.0,0.0,0.0,0.0,0.0,0.0,0.0,0.0,0.0,0.0,0.0,0.0,0.0,0.0,0.0,0.0,0.0,0.0,0.0,0.0,0.0,0.0,0.0,0.0,0.0,0.0,0.0,0.0,0.0,0.0,0.0,0.0,0.0,0.0,0.0,0.0,0.0,0.0,0.0,0.0,0.0,0.0,0.0,0.0,0.0,0.0,0.0,0.0,0.0,0.0,0.0,0.0,0.0,0.0,0.0,0.0,0.0,0.0,0.0,0.0,0.0,0.0,0.0,0.0,0.0,0.0,0.0,0.0,0.0,0.0,0.0,0.0,0.0,0.0,0.0,-0.4613,-0.4982,-0.8128,-1.0583,-1.2154,-1.5123,-1.7838,0.0,0.0,0.0,0.0,0.0,0.0,0.0,0.0,0.0,0.0,0.0,0.0,0.0,0.0,0.0,0.0,0.0,0.0,0.0,0.0,0.0,0.0,0.0,0.0,0.0,0.0,0.0,0.0,0.0,0.0,0.0,0.0,0.0,0.0,0.0,0.0,0.0,0.0,0.0,0.0,0.0,0.0,0.0,0.0,0.0,0.0,0.0,0.0,0.0,0.0,0.0,0.0,0.0,0.0,0.0,0.0,0.0,0.0,0.0,0.0,0.0,0.0,0.0,0.0,0.0,0.0,0.0,0.0,0.0,0.0,0.0,0.0,0.0,0.0,0.0,0.0,0.0,0.0,0.0,0.0,0.0,0.0,0.0,0.0,0.0,0.0,0.0,0.0,0.0,0.0,0.0,0.0,0.0,0.0,0.0,0.0,0.0,0.0,0.0,0.0,0.0,0.0,0.0,0.0,0.0,0.0,0.0,0.0,-0.5453,-0.6982,-0.8901,-1.1109,-1.3454,-1.5711,-1.786,0.0,0.0,0.0,0.0,0.0,0.0,0.0,0.0,0.0,0.0,0.0,0.0,0.0,0.0,0.0,0.0,0.0,0.0,0.0,0.0,0.0,0.0,0.0,0.0,0.0,0.0,0.0,0.0,0.0,0.0,0.0,0.0,0.0,0.0,0.0,0.0,0.0,0.0,0.0,0.0,0.0,0.0,0.0,0.0,0.0,0.0,0.0,0.0,-2.9345,0.0,0.0,0.0,0.0,0.0,0.0,0.0,0.0,0.0,0.0,0.0,0.0,0.0,0.0,0.0,0.0,0.0,0.0,0.0,0.0,0.0,0.0,0.0,0.0,0.0,0.0,0.0,0.0,0.0,0.0,0.0,0.0,0.0,0.0,0.0,0.0,0.0,0.0,0.0,0.0,0.0,0.0,0.0,0.0,0.0,0.0,0.0,0.0,0.0,0.0,0.0,0.0,0.0,0.0,0.0,0.0,0.0,0.0,0.0,-0.6161,-0.7721,-0.9456,-1.14,-1.3649,-1.5534,-1.7705,0.0,0.0,0.0,0.0,0.0,0.0,0.0,0.0,0.0,0.0,0.0,0.0,0.0,0.0,0.0,0.0,0.0,0.0,0.0,0.0,0.0,0.0,0.0,0.0,0.0,0.0,0.0,0.0,0.0,0.0,0.0,0.0,0.0,0.0,0.0,0.0,0.0,0.0,0.0,0.0,0.0,0.0,0.0,0.0,0.0,0.0,0.0,0.0,0.0,0.0,0.0,0.0,0.0,0.0,0.0,0.0,0.0,0.0,0.0,0.0,0.0,0.0,0.0,0.0,0.0,0.0,0.0,0.0,0.0,0.0,0.0,0.0,0.0,0.0,0.0,0.0,0.0,0.0,0.0,0.0,0.0,0.0,0.0,0.0,0.0,0.0,0.0,0.0,0.0,0.0,0.0,0.0,0.0,0.0,0.0,0.0,0.0,0.0,0.0,0.0,0.0,0.0,0.0,0.0,0.0,0.0,0.0,-0.5488,-0.6824,-0.8489,-1.0088,-1.1829,-1.3746,-1.5203,-1.7423,-2.0404,0.0,0.0,0.0,0.0,0.0,0.0,0.0,0.0,0.0,0.0,0.0,0.0,0.0,0.0,0.0,0.0,0.0,0.0,0.0,0.0,0.0,0.0,0.0,0.0,0.0,0.0,0.0,0.0,0.0,0.0,0.0,0.0,0.0,0.0,0.0,0.0,0.0,0.0,-2.2649,-2.0616,0.0,0.0,0.0,0.0,0.0,0.0,0.0,0.0,-2.8252,0.0,0.0,0.0,0.0,0.0,0.0,0.0,0.0,0.0,0.0,0.0,0.0,0.0,0.0,0.0,0.0,0.0,0.0,0.0,0.0,0.0,0.0,0.0,0.0,0.0,0.0,0.0,0.0,0.0,0.0,0.0,0.0,0.0,0.0,0.0,0.0,0.0,0.0,0.0,0.0,0.0,0.0,0.0,0.0,0.0,0.0,0.0,0.0,0.0,0.0,0.0,0.0,0.0,0.0,0.0,0.0,-0.5071,-0.5783,-0.7628,-1.0542,-1.0972,-1.2518,-1.5456,-1.5618,-1.7022,-1.9873,0.0,0.0,0.0,0.0,0.0,0.0,0.0,0.0,0.0,0.0,0.0,0.0,0.0,0.0,0.0,0.0,0.0,0.0,0.0,0.0,0.0,0.0,0.0,0.0,0.0,0.0,0.0,0.0,0.0,0.0,0.0,0.0,0.0,0.0,0.0,0.0,0.0,0.0,0.0,-1.8337,-1.7897,0.0,0.0,0.0,0.0,0.0,0.0,0.0,0.0,-2.7451,0.0,0.0,0.0,0.0,0.0,0.0,0.0,0.0,0.0,0.0,0.0,0.0,0.0,0.0,0.0,0.0,0.0,0.0,0.0,0.0,0.0,0.0,0.0,0.0,0.0,0.0,0.0,0.0,0.0,0.0,0.0,0.0,0.0,0.0,0.0,0.0,0.0,0.0,0.0,0.0,0.0,0.0,0.0,0.0,0.0,0.0,0.0,0.0,0.0,0.0,0.0,0.0,0.0,0.0,0.0,-0.5416,-0.6652,-0.8468,-1.0839,-1.1899,-1.3436,-1.5459,-1.5756,-1.6976,0.0,0.0,0.0,0.0,0.0,0.0,0.0,0.0,0.0,0.0,0.0,0.0,0.0,0.0,0.0,0.0,0.0,0.0,0.0,0.0,0.0,0.0,0.0,0.0,0.0,0.0,0.0,0.0,0.0,0.0,0.0,0.0,0.0,0.0,0.0,0.0,0.0,0.0,0.0,0.0,-1.789,-1.7458,-1.735,0.0,0.0,0.0,0.0,0.0,0.0,-2.6535,-2.7244,0.0,0.0,0.0,0.0,0.0,0.0,0.0,0.0,0.0,0.0,0.0,0.0,0.0,0.0,0.0,0.0,0.0,0.0,0.0,0.0,0.0,0.0,0.0,0.0,0.0,0.0,0.0,0.0,0.0,0.0,0.0,0.0,0.0,0.0,0.0,0.0,0.0,0.0,0.0,0.0,0.0,0.0,0.0,0.0,0.0,0.0,0.0,0.0,0.0,0.0,0.0,0.0,0.0,0.0,0.0,-0.6086,-0.7708,-0.9502,-1.1384,-1.2861,-1.4274,-1.544,-1.6095,-1.7316,0.0,0.0,0.0,0.0,0.0,0.0,0.0,0.0,0.0,0.0,0.0,0.0,0.0,0.0,0.0,0.0,0.0,0.0,0.0,0.0,0.0,0.0,0.0,0.0,0.0,0.0,0.0,0.0,0.0,0.0,0.0,0.0,0.0,0.0,0.0,0.0,0.0,0.0,0.0,0.0,0.0,-1.7523,-1.7552,-1.9066,0.0,0.0,0.0,0.0,-2.5627,-2.6508,0.0,0.0,0.0,0.0,0.0,0.0,0.0,0.0,0.0,0.0,0.0,0.0,0.0,0.0,0.0,0.0,0.0,0.0,0.0,0.0,0.0,0.0,0.0,0.0,0.0,0.0,0.0,0.0,0.0,0.0,0.0,0.0,0.0,0.0,0.0,0.0,0.0,0.0,0.0,0.0,0.0,0.0,0.0,0.0,0.0,0.0,0.0,0.0,0.0,0.0,0.0,0.0,0.0,0.0,0.0,0.0,-0.7939,-0.9164,-1.1029,-1.3561,-1.3843,-1.4878,-1.6605,-1.7025,-1.783,0.0,0.0,0.0,0.0,0.0,0.0,0.0,0.0,0.0,0.0,0.0,0.0,0.0,0.0,0.0,0.0,0.0,0.0,0.0,0.0,0.0,0.0,0.0,0.0,0.0,0.0,0.0,0.0,0.0,0.0,0.0,0.0,0.0,0.0,0.0,0.0,0.0,0.0,0.0,0.0,0.0,-1.7954,-1.8085,-1.9391,-2.0916,0.0,0.0,-2.4084,-2.538,-2.6975,0.0,0.0,0.0,0.0,0.0,0.0,0.0,0.0,0.0,0.0,0.0,0.0,0.0,0.0,0.0,0.0,0.0,0.0,0.0,0.0,0.0,0.0,0.0,0.0,0.0,0.0,0.0,0.0,0.0,0.0,0.0,0.0,0.0,0.0,0.0,0.0,0.0,0.0,0.0,0.0,0.0,0.0,0.0,0.0,0.0,0.0,0.0,0.0,0.0,0.0,0.0,0.0,0.0,0.0,0.0,-0.9643,-0.9271,-1.1156,-1.2722,-1.3848,-1.517,-1.6292,-1.7125,-1.7614,-1.8434,0.0,0.0,0.0,0.0,0.0,0.0,0.0,0.0,0.0,0.0,0.0,0.0,0.0,0.0,0.0,0.0,0.0,0.0,0.0,0.0,0.0,0.0,0.0,0.0,0.0,0.0,0.0,0.0,0.0,0.0,0.0,0.0,0.0,0.0,0.0,0.0,0.0,0.0,0.0,0.0,0.0,0.0,-1.8331,-1.9797,0.0,0.0,0.0,-2.439,-2.6175,0.0,0.0,0.0,0.0,0.0,0.0,0.0,0.0,0.0,0.0,0.0,0.0,0.0,0.0,0.0,0.0,0.0,0.0,0.0,0.0,0.0,0.0,0.0,0.0,0.0,0.0,0.0,0.0,0.0,0.0,0.0,0.0,0.0,0.0,0.0,0.0,0.0,0.0,0.0,0.0,0.0,0.0,0.0,0.0,0.0,0.0,0.0,0.0,0.0,0.0,0.0,0.0,0.0,0.0,0.0,0.0,0.0,-1.1129,-1.2994,-1.42,-1.4747,-1.6585,-1.7615,-1.7553,-1.8238,0.0,0.0,0.0,0.0,0.0,0.0,0.0,0.0,0.0,0.0,0.0,0.0,0.0,0.0,0.0,0.0,0.0,0.0,0.0,0.0,0.0,0.0,0.0,0.0,0.0,0.0,0.0,-2.7748,0.0,0.0,0.0,0.0,0.0,0.0,0.0,0.0,0.0,0.0,0.0,0.0,0.0,0.0,-1.9445,-1.9277,-2.0686,-2.2063,0.0,0.0,-2.4992,-2.7323,-2.7771,-2.8519,0.0,0.0,0.0,0.0,0.0,0.0,0.0,0.0,0.0,0.0,0.0,0.0,0.0,0.0,0.0,0.0,0.0,0.0,0.0,0.0,0.0,0.0,0.0,0.0,0.0,0.0,0.0,0.0,0.0,0.0,0.0,0.0,0.0,0.0,0.0,0.0,0.0,0.0,0.0,0.0,0.0,0.0,0.0,0.0,0.0,0.0,0.0,0.0,0.0,0.0,0.0,0.0,0.0,0.0,0.0,-1.3924,-1.4363,-1.5584,-1.7359,-1.7908,-1.8205,-1.8043,-1.9151,-1.9716,0.0,0.0,0.0,0.0,0.0,0.0,0.0,0.0,0.0,0.0,0.0,0.0,0.0,0.0,0.0,0.0,0.0,0.0,0.0,0.0,0.0,0.0,0.0,0.0,0.0,0.0,0.0,0.0,0.0,0.0,0.0,0.0,0.0,0.0,0.0,0.0,0.0,0.0,0.0,0.0,0.0,-2.0699,-2.1891,-2.2255,-2.319,0.0,0.0,-2.633,-2.8398,-2.9521,-3.0455,-3.1472,0.0,0.0,0.0,0.0,0.0,0.0,0.0,0.0,0.0,0.0,0.0,0.0,0.0,0.0,0.0,0.0,0.0,0.0,0.0,0.0,0.0,0.0,0.0,0.0,0.0,0.0,0.0,0.0,0.0,0.0,0.0,0.0,0.0,0.0,0.0,0.0,0.0,0.0,0.0,0.0,0.0,0.0,0.0,0.0,0.0,0.0,0.0,0.0,0.0,0.0,0.0,0.0,0.0,-1.6249,-1.5618,-1.685,-1.7683,-1.8188,-1.9247,-1.9613,-1.9384,-1.9776,-2.029,0.0,0.0,0.0,0.0,0.0,0.0,0.0,0.0,0.0,0.0,0.0,0.0,0.0,0.0,0.0,0.0,0.0,0.0,0.0,0.0,0.0,0.0,0.0,0.0,0.0,0.0,0.0,0.0,-2.5798,-2.5407,-2.6451,0.0,0.0,0.0,0.0,0.0,0.0,0.0,0.0,0.0,0.0,-2.1,-2.159,-2.2486,0.0,0.0,-2.5924,-2.6941,-2.8887,-2.9681,-3.0308,-3.129,-3.0877,0.0,0.0,0.0,0.0,0.0,0.0,0.0,0.0,0.0,0.0,0.0,0.0,0.0,0.0,0.0,0.0,0.0,0.0,0.0,0.0,0.0,0.0,0.0,0.0,0.0,0.0,0.0,0.0,0.0,0.0,0.0,0.0,0.0,0.0,0.0,0.0,0.0,0.0,0.0,0.0,0.0,0.0,0.0,0.0,0.0,0.0,0.0,0.0,0.0,0.0,0.0,0.0,-1.8798,-1.7959,-1.8914,-1.9303,-1.9165,-2.0182,-2.0492,-2.0105,-2.046,-2.0962,0.0,0.0,0.0,0.0,0.0,0.0,0.0,0.0,0.0,0.0,0.0,0.0,0.0,0.0,0.0,0.0,0.0,0.0,0.0,0.0,0.0,0.0,0.0,0.0,0.0,0.0,0.0,0.0,-2.5945,-2.5759,-2.6846,0.0,0.0,0.0,0.0,0.0,0.0,0.0,0.0,0.0,0.0,-2.204,-2.2372,-2.3242,-2.4375,-2.5751,-2.6384,-2.744,-2.9246,-2.9715,-3.026,-3.1144,0.0,0.0,0.0,0.0,0.0,0.0,0.0,0.0,0.0,0.0,0.0,0.0,0.0,0.0,0.0,0.0,0.0,0.0,0.0,0.0,0.0,0.0,0.0,0.0,0.0,0.0,0.0,0.0,0.0,0.0,0.0,0.0,0.0,0.0,0.0,0.0,0.0,0.0,0.0,0.0,0.0,0.0,0.0,0.0,0.0,0.0,0.0,0.0,0.0,0.0,0.0,0.0,0.0,-2.1682,-2.1293,-2.0282,-1.9993,-2.0589,-2.0792,-2.052,-1.9835,-2.1192,-2.1922,-2.1761,0.0,0.0,0.0,0.0,0.0,0.0,0.0,0.0,0.0,0.0,0.0,0.0,0.0,0.0,0.0,0.0,0.0,0.0,0.0,0.0,0.0,0.0,0.0,0.0,0.0,0.0,-2.7814,-2.7635,-2.7689,0.0,0.0,0.0,0.0,0.0,0.0,0.0,0.0,0.0,0.0,-2.2992,-2.3886,-2.4954,-2.4919,-2.5479,-2.6976,-2.7241,-2.7809,-2.9301,-3.0091,-3.0625,0.0,0.0,0.0,0.0,0.0,0.0,0.0,0.0,0.0,0.0,0.0,0.0,0.0,0.0,0.0,0.0,0.0,0.0,0.0,0.0,0.0,0.0,0.0,0.0,0.0,0.0,0.0,-2.3455,-2.229,0.0,0.0,0.0,0.0,0.0,0.0,0.0,0.0,0.0,0.0,0.0,-2.6261,-2.6529,0.0,0.0,0.0,0.0,0.0,0.0,0.0,0.0,0.0,0.0,0.0,0.0,-2.3375,-2.2397,-2.1833,-2.1488,-2.1272,-2.1386,-2.1179,-2.0618,-2.141,-2.2237,-2.2942,0.0,0.0,0.0,0.0,0.0,0.0,0.0,0.0,0.0,0.0,0.0,0.0,0.0,0.0,0.0,0.0,0.0,0.0,0.0,0.0,0.0,0.0,0.0,0.0,0.0,-2.8692,0.0,0.0,0.0,0.0,0.0,0.0,0.0,0.0,0.0,0.0,0.0,-2.3191,-2.2758,-2.3645,-2.4565,-2.5208,-2.5489,-2.6207,0.0,0.0,0.0,0.0,0.0,0.0,0.0,0.0,0.0,0.0,0.0,0.0,0.0,0.0,-3.5363,-3.5175,-3.4602,-3.3873,-3.2821,0.0,0.0,0.0,0.0,0.0,0.0,0.0,0.0,0.0,0.0,0.0,0.0,0.0,0.0,0.0,0.0,-2.2928,0.0,0.0,0.0,0.0,0.0,0.0,0.0,0.0,-2.6918,-2.7888,-2.8803,-2.9053,-2.9126,0.0,-2.9606,-2.9476,0.0,0.0,0.0,0.0,0.0,0.0,0.0,0.0,-2.5468,-2.4271,-2.3607,-2.2926,-2.2161,-2.191,-2.1524,-2.0943,-2.1436,-2.2344,-2.3707,-2.4217,-2.4961,0.0,0.0,0.0,0.0,0.0,0.0,0.0,0.0,0.0,0.0,0.0,0.0,0.0,0.0,0.0,0.0,0.0,0.0,0.0,0.0,0.0,0.0,0.0,-2.8645,0.0,0.0,0.0,0.0,0.0,0.0,0.0,0.0,0.0,-2.4454,-2.4235,-2.4127,-2.3795,-2.482,-2.5754,-2.6011,0.0,0.0,0.0,0.0,0.0,0.0,0.0,-3.1098,-3.1291,-3.2364,-3.3494,-3.4461,-3.5398,-3.6194,-3.6651,0.0,0.0,-3.6157,-3.552,-3.4791,-3.3721,-3.2378,-3.1452,-3.1661,-3.0879,-3.0192,0.0,0.0,0.0,0.0,0.0,0.0,0.0,0.0,-2.6177,-2.5632,0.0,-2.3623,0.0,0.0,0.0,0.0,0.0,0.0,0.0,0.0,-2.9526,-3.0716,-3.1342,-3.1286,-3.1057,-3.0612,-3.0867,-3.1468,-3.2338,-3.2402,0.0,0.0,0.0,0.0,0.0,0.0,-2.7986,-2.6803,-2.5481,-2.4354,-2.3389,-2.2322,-2.1473,-2.0929,-2.1315,-2.2366,-2.396,-2.4405,-2.4962,-2.5893,-2.7274,0.0,0.0,0.0,0.0,0.0,0.0,0.0,0.0,0.0,0.0,0.0,0.0,0.0,0.0,0.0,0.0,0.0,0.0,0.0,0.0,-2.978,0.0,0.0,0.0,0.0,0.0,0.0,0.0,0.0,0.0,0.0,-2.5285,-2.5326,-2.5543,-2.5605,0.0,0.0,0.0,0.0,-2.8092,-2.8488,-2.885,-2.9312,-2.9886,-3.0769,-3.1383,-3.1536,0.0,0.0,-3.5517,-3.5709,-3.5797,-3.6048,-3.6363,-3.6415,-3.5923,-3.5328,-3.4538,-3.3467,-3.2529,-3.1863,-3.1719,-3.1278,-3.0572,-2.9812,0.0,0.0,0.0,0.0,-2.9469,-2.9241,-2.932,-2.8528,-2.7435,-2.6223,-2.6008,0.0,0.0,0.0,0.0,0.0,0.0,-2.8212,-2.9631,-3.0506,-3.122,-3.1928,-3.1787,-3.136,-3.0595,-3.0969,-3.1701,-3.2818,-3.3417,-3.3849,-3.4125,0.0,0.0,0.0,0.0,-2.8743,-2.7165,-2.5702,-2.4481,-2.3389,-2.2238,-2.177,-2.1923,-2.2163,-2.2834,-2.4002,-2.4056,-2.4603,-2.5856,-2.6764,0.0,0.0,0.0,0.0,0.0,0.0,0.0,0.0,0.0,0.0,0.0,0.0,0.0,0.0,0.0,0.0,0.0,0.0,0.0,-3.0715,-3.0186,-2.9997,0.0,0.0,0.0,0.0,0.0,0.0,0.0,0.0,0.0,-2.8712,-2.7866,-2.7355,0.0,0.0,-2.8113,-2.8207,-2.8196,-2.8642,-2.9704,0.0,0.0,0.0,-3.15,-3.1977,-3.1901,-3.3645,-3.5277,-3.5852,-3.6032,-3.6122,-3.6187,-3.5994,-3.5736,-3.5403,-3.567,-3.5466,-3.474,-3.4018,-3.3424,-3.2764,-3.1965,-3.1196,-3.0384,-3.0209,-3.0049,-3.0144,-3.0288,-2.9965,-2.9904,-3.0052,-2.9378,-2.8471,-2.7278,-2.7108,-2.6385,-2.5487,-2.607,0.0,0.0,0.0,-2.8996,-3.065,-3.1216,-3.2058,-3.2935,-3.2424,-3.1993,-3.1642,-3.1421,-3.1841,-3.2828,-3.3593,-3.4046,-3.4188,0.0,0.0,-3.2144,-3.0841,-2.9436,-2.7919,-2.6465,-2.5236,-2.4189,-2.2821,-2.2309,-2.2713,-2.2575,-2.3035,-2.4227,-2.399,-2.4517,-2.6031,-2.6622,-2.7497,0.0,0.0,0.0,0.0,0.0,0.0,0.0,0.0,0.0,0.0,0.0,-3.5871,-3.6419,0.0,0.0,0.0,-3.2878,-3.1792,-3.0799,-3.1012,0.0,0.0,0.0,0.0,0.0,0.0,0.0,-3.4249,-3.3047,-3.2022,-3.1614,-3.0319,-2.8993,-2.8193,-2.8642,-2.8762,-2.8125,0.0,-2.9195,-2.9939,-3.0179,-3.0529,-3.1112,-3.1822,-3.2475,-3.2959,-3.4173,-3.52,-3.5479,-3.558,-3.5518,-3.5111,-3.4908,-3.478,-3.4507,-3.4612,-3.4755,-3.4629,-3.4237,-3.3581,-3.2842,-3.2152,-3.1368,-3.0397,-3.0633,-3.0443,-3.006,-2.9574,-3.0154,-3.0158,-2.9647,-2.942,-2.8964,-2.8335,-2.7238,-2.6713,-2.6781,-2.6616,0.0,-2.6951,-2.7598,-2.9105,-3.1345,-3.1832,-3.2872,-3.4169,-3.3009,-3.261,-3.2946,-3.2017,-3.1823,-3.2376,-3.3093,-3.3598,-3.4029,-3.4375,-3.4155,-3.3274,-3.1439,-2.9993,-2.8812,-2.7525,-2.6356,-2.5306,-2.3774,-2.3055,-2.3197,-2.2658,-2.3087,-2.4544,-2.4159,-2.4655,-2.6238,-2.6738,-2.7262,-2.7954,0.0,0.0,0.0,0.0,0.0,0.0,0.0,0.0,0.0,0.0,0.0,0.0,0.0,0.0,0.0,-3.2434,0.0,-3.1442,-3.2333,0.0,0.0,0.0,-3.6025,-3.6626,-3.6359,-3.623,-3.6358,0.0,0.0,-3.4066,0.0,-3.0814,-2.8873,-2.9306,-2.9353,-2.8003,-2.8924,-2.9631,-2.965,-3.0217,-3.0799,-3.1088,-3.1838,-3.2764,-3.3836,-3.4405,-3.4321,-3.4262,-3.4349,-3.3985,-3.3227,-3.3393,-3.3814,-3.3545,-3.3044,-3.2634,-3.373,-3.3343,-3.2754,-3.2248,-3.1788,-3.1144,-3.0578,-3.1193,-3.1368,-3.1261,-3.0949,-3.1608,-3.1821,-3.1761,-3.05,-2.9852,-2.9511,-2.8214,-2.7674,-2.7693,-2.7965,-2.8302,-2.8629,-2.9081,-3.0318,-3.2127,-3.2165,-3.2472,-3.309,-3.2451,-3.1817,-3.1157,-3.1751,-3.1893,-3.1503,-3.1888,-3.2164,-3.2345,-3.2168,-3.2239,-3.2471,-3.1333,-2.9892,-2.8279,-2.7619,-2.6398,-2.4685,-2.3997,-2.3508,-2.3183,-2.3201,-2.3452,-2.397,-2.3777,-2.4338,-2.573,-2.6224,-2.7057,-2.8355,-2.9819,0.0,0.0,0.0,0.0,0.0,0.0,0.0,0.0,0.0,-3.7387,-3.7916,0.0,-3.6023,0.0,-3.3982,-3.315,-3.3471,-3.4159,0.0,0.0,-3.6206,-3.6851,-3.7523,-3.7084,-3.6936,-3.7404,-3.6683,-3.5908,-3.5278,-3.4801,-3.3675,-3.1236,-3.0326,-2.9827,-2.9624,-2.9867,-3.035,-3.0881,-3.1242,-3.1493,-3.1549,-3.1757,-3.211,-3.2649,-3.27,-3.2421,-3.1732,-3.1926,-3.2104,-3.2117,-3.2549,-3.2997,-3.3579,-3.3447,-3.3449,-3.3569,-3.2739,-3.1858,-3.1755,-3.1133,-3.0555,-3.1003,-3.1613,-3.2463,-3.2585,-3.2142,-3.2832,-3.3025,-3.2832,-3.1418,-3.0531,-2.9893,-2.8316,-2.7739,-2.7798,-2.8128,-2.8537,-2.8883,-2.9229,-3.02,-3.1596,-3.1469,-3.1693,-3.2372,-3.1873,-3.1579,-3.157,-3.173,-3.1596,-3.1273,-3.1176,-3.1144,-3.1231,-3.0705,-3.0718,-3.1105,-3.034,-2.9708,-2.9186,-2.833,-2.7095,-2.5482,-2.4938,-2.4576,-2.4433,-2.4223,-2.4267,-2.4671,-2.4671,-2.5203,-2.6314,-2.6743,-2.7502,-2.869,-2.9999,-3.0887,0.0,0.0,0.0,0.0,0.0,0.0,0.0,0.0,0.0,0.0,0.0,-3.6679,-3.6335,-3.5043,-3.4619,-3.5534,-3.6075,-3.6556,-3.6984,-3.749,-3.8053,-3.8493,-3.8207,-3.8048,-3.8121,-3.7411,-3.6538,-3.5794,-3.5083,-3.4163,-3.2768,-3.1525,-3.0413,-2.9569,-2.9736,-3.0152,-3.0173,-3.0624,-3.1215,-3.1665,-3.1755,-3.1778,-3.2021,-3.2085,-3.1809,-3.1103,-3.1496,-3.1909,-3.1772,-3.2462,-3.3218,-3.3765,-3.3608,-3.3457,-3.3656,-3.2711,-3.1926,-3.2154,-3.1616,-3.1164,-3.1504,-3.2154,-3.3398,-3.3602,-3.3323,-3.3888,-3.3904,-3.3393,-3.2098,-3.0884,-2.9768,-2.8203,-2.7593,-2.7685,-2.7812,-2.8122,-2.8542,-2.8733,-2.9394,-3.0503,-3.0362,-3.0809,-3.174,-3.1185,-3.149,-3.2426,-3.1366,-3.0893,-3.1031,-3.0473,-3.0143,-3.0038,-2.9514,-2.9372,-2.9618,-2.9132,-2.9326,-3.0287,-2.916,-2.7968,-2.6796,-2.6161,-2.5876,-2.5955,-2.5334,-2.5213,-2.5786,-2.5986,-2.6437,-2.7253,-2.7648,-2.818,-2.8924,-3.0053,-3.1007,0.0,-3.3572,0.0,0.0,0.0,0.0,0.0,0.0,0.0,0.0,-3.7635,-3.7355,-3.6955,-3.6152,-3.6148,-3.7429,-3.7868,-3.8085,-3.8251,-3.8716,-3.9073,-3.9155,-3.917,-3.8889,-3.8332,-3.7417,-3.6649,-3.6057,-3.4596,-3.3756,-3.3475,-3.2626,-3.1091,-2.9176,-2.9466,-2.9854,-2.8754,-2.9463,-3.0598,-3.1271,-3.1457,-3.146,-3.1641,-3.1641,-3.1611,-3.1014,-3.1642,-3.2095,-3.1734,-3.2447,-3.3416,-3.3916,-3.3345,-3.3156,-3.3859,-3.3139,-3.2499,-3.2731,-3.2359,-3.2088,-3.1479,-3.2874,-3.3062,-3.354,-3.4249,-3.4727,-3.447,-3.3587,-3.1993,-3.0517,-2.9316,-2.8905,-2.8698,-2.8598,-2.8208,-2.8271,-2.8688,-2.8412,-2.8903,-2.9917,-2.9808,-3.0016,-3.0468,-3.0548,-3.0368,-2.9992,-2.9711,-2.9277,-2.8662,-2.8541,-2.8193,-2.7663,-2.7542,-2.8022,-2.9071,0.0,0.0,0.0,-2.8395,-2.7972,-2.7301,-2.7008,-2.6626,-2.6047,-2.5849,0.0,-2.5971,-2.6198,-2.6673,-2.7426,-2.7753,0.0,0.0,0.0,0.0,0.0,0.0,0.0,0.0,0.0,0.0,0.0,-3.9158,-3.9247,-3.9578,-3.9395,-3.9062,-3.8623,-3.8191,-3.8055,-3.8217,-3.874,-3.8904,-3.8407,-3.8463,-3.8374,-3.7886,-3.7784,-3.7704,-3.7629,-3.7362,-3.704,-3.6333,-3.5577,-3.4691,-3.3619,-3.2766,-3.1678,-3.0213,-3.0569,-3.087,-3.0746,-3.0432,-3.0317,-3.0546,-3.0254,-2.9954,-2.9697,-2.9902,-2.9915,-2.9457,-3.0108,-3.0742,-3.0718,-3.1318,-3.2078,-3.27,-3.2709,-3.2806,-3.3518,-3.337,-3.3186,-3.3016,-3.2264,-3.1944,-3.1997,0.0,-3.3485,-3.3984,0.0,-3.4629,-3.4105,-3.3073,-3.2017,-3.0424,-2.8547,-2.8126,-2.798,-2.8023,-2.7759,-2.7794,-2.8065,-2.7925,-2.8383,-2.9305,-2.8915,-2.9108,-2.9686,-2.9798,-2.9655,-2.9372,-2.9214,-2.8876,-2.849,-2.7838,-2.7352,-2.7018,-2.6684,-2.7066,-2.8088,-2.8152,-2.8206,-2.8207,-2.8589,-2.8475,-2.7823,-2.7345,-2.702,-2.6862,0.0,0.0,0.0,0.0,0.0,0.0,0.0,0.0,0.0,0.0,0.0,-3.2259,-3.3276,-3.4326,-3.5446,-3.6559,-3.749,-3.8103,-3.9001,-3.9446,-3.9439,-3.8884,-3.8642,-3.8701,-3.8576,-3.8616,-3.8833,-3.8872,-3.8736,-3.8437,-3.8379,-3.8144,-3.7541,-3.7707,-3.7647,-3.7038,-3.6908,-3.6507,-3.5629,-3.5193,-3.4555,-3.3617,-3.2853,-3.217,-3.1536,-3.1048,-3.0872,-3.0858,-3.0609,-3.0469,-3.0691,-3.0474,-3.0048,-2.9937,-2.9979,-2.9738,-2.9053,-2.9916,-3.0726,-3.0606,-3.1245,-3.2068,-3.2384,-3.2504,-3.2625,-3.2875,-3.3006,-3.2869,-3.2628,-3.2556,-3.2735,-3.2398,-3.3023,-3.3861,-3.4099,-3.3916,-3.3916,-3.3213,-3.2075,0.0,0.0,0.0,-2.741,-2.7209,-2.7422,-2.725,-2.7226,-2.7322,-2.7301,-2.7679,-2.8465,-2.7868,-2.8098,-2.8943,-2.8729,-2.8857,-2.9237,-2.8788,-2.8575,-2.8629,-2.7511,-2.6869,-2.6717,-2.626,-2.6413,-2.7196,-2.7797,-2.8074,-2.8042,-2.8655,-2.8793,-2.8235,-2.7296,-2.7124,-2.7743,-2.701,-2.7128,-2.8264,-2.8573,-2.939,-3.0855,-3.1316,-3.1691,-3.2029,-3.2293,-3.2518,-3.2667,-3.3276,-3.3997,-3.4822,-3.5958,-3.6751,-3.6996,-3.8565,-3.941,-3.9073,-3.8343,-3.8157,-3.8708,-3.8645,-3.8809,-3.9225,-3.8843,-3.8474,-3.8215,-3.8227,-3.7866,-3.7182,-3.7453,-3.7307,-3.6474,-3.6134,-3.5753,-3.4865,-3.4363,-3.3962,-3.3351,-3.2512,-3.2093,-3.1871,-3.1134,-3.0685,-3.07,-3.0573,-3.0509,-3.0726,-3.047,-3.0408,-2.9841,-2.9882,-2.9748,-2.9354,-3.0002,-3.0566,-3.0051,-3.1097,-3.1579,-3.1768,-3.1776,-3.2028,-3.2121,-3.2266,-3.2254,-3.217,-3.2797,-3.3175,-3.2106,-3.3016,-3.2955,-3.2847,-3.2665,-3.2665,-3.1949,-3.0732,-3.0127,-2.947,-2.8892,-2.804,-2.7868,-2.8132,-2.751,-2.7034,-2.6684,-2.6438,-2.6505,0.0,-2.6622,-2.6959,-2.7691,-2.7093,-2.7305,-2.8195,-2.7333,-2.6976,-2.7212,-2.691,-2.6463,-2.6013,-2.6193,-2.6561,-2.702,-2.7158,-2.7205,-2.7162,-2.7504,-2.7919,-2.8317,-2.6901,-2.6612,-2.7535,-2.6841,-2.6769,-2.753,-2.7814,-2.8469,-2.9584,-2.9876,-3.0375,-3.1116,-3.1593,-3.213,-3.2817,-3.3242,-3.4036,-3.5331,-3.5697,-3.6359,-3.7648,-3.846,-3.9354,-4.0414,-4.0199,-4.005,-4.007,-3.9495,-3.9198,-3.9283,-3.9141,-3.8576,-3.7631,-3.7451,-3.6969,-3.5751,-3.5701,-3.5735,-3.5482,-3.5394,-3.5316,-3.4971,-3.4167,-3.3316,-3.2568,-3.1697,-3.0657,-3.0279,-3.0713,-3.1279,-3.1235,-3.0758,-3.0194,-2.98,-2.8965,-2.8574,-2.7781,-2.8214,-2.8478,-2.8236,-2.8779,-2.9189,-2.8958,-2.9304,-2.942,-2.9378,-2.968,-3.0259,-3.0771,-3.1238,-3.1531,-3.1696,-3.2019,-3.2088,-3.1128,-3.1616,-3.1931,-3.201,-3.1893,-3.1541,-3.1064,-3.0395,-2.9086,-2.8603,-2.8531,-2.7535,-2.7075,-2.7036,-2.6422,-2.6041,-2.5906,-2.5987,-2.6235,-2.6512,-2.6599,-2.6833,-2.7128,-2.6817,-2.6814,-2.7226,-2.6853,-2.6748,-2.6945,-2.6545,-2.6088,-2.5737,-2.6002,-2.6325,-2.6741,-2.7125,-2.7332,-2.7332,-2.7438,-2.752,-2.7518,-2.7029,-2.6973,-2.7359,-2.7001,-2.7116,-2.7656,-2.7858,-2.8497,-2.9621,-2.9968,-3.0309,-3.0725,-3.113,-3.1307,-3.1307,-3.2197,-3.3055,-3.3701,-3.4964,-3.6116,-3.7138,-3.7433,-3.8121,-3.9515,-3.9211,-3.9085,-3.9188,-3.8903,-3.8727,-3.8683,-3.8354,-3.7748,-3.6741,-3.666,-3.6235,-3.5458,-3.5543,-3.5534,-3.5236,-3.5117,-3.5004,-3.4691,-3.3814,-3.2966,-3.2295,-3.1121,-3.0051,-2.9362,-2.9752,-3.0223,-3.0182,-2.9883,-2.9579,-2.9245,-2.8829,-2.841,-2.8154,-2.8254,-2.8168,-2.7967,-2.8264,-2.8477,-2.8274,-2.8436,-2.8682,-2.8679,-2.8878,-2.9312,-2.975,-2.9828,-3.0118,-3.0499,-3.0513,-3.0528,-3.0433,-3.0433,-3.1219,-3.1331,-3.1007,-3.0389,-3.0038,-2.9736,-2.8229,-2.7843,-2.8044,-2.6969,-2.6413,-2.622,-2.5918,-2.5782,-2.5638,-2.5887,-2.6115,-2.628,-2.6469,-2.663,-2.6716,-2.6663,-2.6672,-2.6745,-2.665,-2.6725,-2.6981,-2.6333,-2.5853,-2.5664,-2.5765,-2.6014,-2.6406,-2.6974,-2.7266,-2.7283,-2.7362,-2.7252,-2.6988,-2.6974,-2.7025,-2.7153,-2.6951,-2.7106,-2.758,-2.7734,-2.8331,-2.9465,-2.9863,-3.0127,-3.0335,-3.0695,-3.0648,-3.0226,-3.1238,-3.2011,-3.2276,-3.4058,-3.5488,-3.613,-3.6264,-3.6684,-3.7515,-3.7487,-3.7597,-3.8104,-3.822,-3.8134,-3.8048,-3.7564,-3.6836,-3.6007,-3.5792,-3.5441,-3.4846,-3.5191,-3.5461,-3.4974,-3.4917,-3.4762,-3.413,-3.3395,-3.2592,-3.1561,-3.051,-2.9544,-2.9071,-2.891,-2.8881,-2.8768,-2.8882,-2.8983,-2.8895,-2.8671,-2.8473,-2.851,-2.8242,-2.794,-2.761,-2.7853,-2.7919,-2.7467,-2.7637,-2.7847,-2.8032,-2.8263,-2.8411,-2.8689,-2.8684,-2.8685,-2.9039,-2.8867,-2.898,-3.0405,-3.0501,-3.1107,-3.0825,-2.9757,-2.9139,-2.8637,-2.8071,-2.7492,-2.7523,-2.7773,-2.7045,-2.6641,-2.6729,-2.7102,-2.6906,-2.6438,-2.6092,-2.5793,-2.5626,-2.5497,-2.5687,-2.6138,-2.6112,-2.6668,-2.7421,-2.6624,-2.6545,-2.7263,-2.6397,-2.5777,-2.548,-2.5486,-2.5782,-2.6129,-2.6214,-2.6247,-2.6267,-2.6602,-2.7038,-2.7429,-2.6243,-2.6036,-2.7,-2.6318,-2.6175,-2.6771,-2.6809,-2.7352,-2.8355,-2.8574,-2.8999,-2.9837,-3.0327,-3.051,-3.0404,-3.0859,-3.1408,-3.2166,-3.3069,-3.3965,-3.4659,-3.5247,-3.542,-3.5256,-3.5612,-3.6626,-3.7779,-3.798,-3.7843,-3.7795,-3.7419,-3.6555,-3.5298,-3.51,-3.449,-3.3469,-3.3581,-3.3978,-3.3947,-3.4427,-3.4607,-3.3712,-3.3048,-3.1997,-3.0364,-2.951,-2.8848,-2.8621,-2.8431,-2.8152,-2.7792,-2.8166,-2.8527,-2.8179,-2.7919,-2.7749,-2.7272,-2.705,-2.7141,-2.7106,-2.663,-2.6177,-2.6772,-2.6347,-2.6325,-2.662,-2.6826,-2.7304,-2.7622,-2.7826,-2.8061,-2.7795,-2.752,-2.7783,-2.9086,-2.9187,-2.97,-2.9633,-2.9247,-2.8915,-2.8454,-2.7864,-2.7142,-2.6731,-2.6508,-2.5991,-2.6159,-2.6801,-2.6329,-2.5934,-2.5666,-2.5336,-2.5229,-2.5252,-2.555,-2.5727,-2.5772,-2.5989,-2.6318,-2.6547,-2.6094,-2.6178,-2.6538,-2.6125,-2.5905,-2.5961,-2.5924,-2.6068,-2.6436,-2.647,-2.6556,-2.6839,-2.6935,-2.7226,-2.7555,-2.6724,-2.6453,-2.6995,-2.681,-2.6856,-2.7258,-2.7334,-2.7548,-2.7984,-2.8164,-2.8441,-2.8818,-2.9158,-2.9359,-2.9422,-3.0085,-3.0874,-3.1868,-3.258,-3.3031,-3.3198,-3.384,-3.4235,-3.4355,-3.4623,-3.526,-3.632,-3.7068,-3.7496,-3.7479,-3.7313,-3.6627,-3.5355,-3.5033,-3.4489,-3.3252,-3.3326,-3.3422,-3.325,-3.3392,-3.3479,-3.2978,-3.2354,-3.1225,-2.9816,-2.9139,-2.8842,-2.848,-2.7965,-2.7549,-2.7302,-2.7319,-2.7154,-2.7015,-2.724,-2.7205,-2.721,-2.744,-2.762,-2.7025,-2.6879,-2.6645,-2.6379,-2.6,-2.5879,-2.623,-2.6361,-2.6618,-2.6863,-2.7246,-2.7515,-2.6792,-2.6713,-2.7046,-2.8465,-2.8507,-2.8483,-2.8338,-2.8086,-2.7963,-2.7652,-2.7106,-2.6425,-2.5894,-2.5593,-2.5335,-2.5745,-2.65,-2.5661,-2.5257,-2.5236,-2.4951,-2.4944,-2.5148,-2.5589,-2.5699,-2.5595,-2.6062,-2.6189,-2.6007,-2.6101,-2.6092,-2.6097,-2.6142,-2.6162,-2.6303,-2.6387,-2.659,-2.6939,-2.6971,-2.7132,-2.7396,-2.7365,-2.7467,-2.7648,-2.7269,-2.6994,-2.6995,-2.7026,-2.716,-2.7437,-2.7688,-2.7869,-2.7926,-2.8166,-2.8324,-2.8368,-2.8633,-2.8773,-2.8834,-2.9452,-3.0319,-3.1288,-3.1806,-3.2059,-3.209,-3.2492,-3.2864,-3.3212,-3.344,-3.3874,-3.4648,-3.5726,-3.6359,-3.6565,-3.6439,-3.5828,-3.4657,-3.4467,-3.4037,-3.3019,-3.3029,-3.3059,-3.2798,-3.3093,-3.2827,-3.2332,-3.1539,-3.053,-2.972,-2.9281,-2.9048,-2.8466,-2.7857,-2.7297,-2.7096,-2.6645,-2.6404,-2.6287,-2.6566,-2.6888,-2.6995,-2.7286,-2.7316,-2.6949,-2.6826,-2.6733,-2.6041,-2.5978,-2.5951,-2.5931,-2.6054,-2.6102,-2.6446,-2.6681,-2.6646,-2.5923,-2.6013,-2.6094,-2.908,-2.8911,-2.8064,-2.7026,-2.5886,-2.5915,-2.5575,-2.5179,-2.5034,-2.5217,-2.5506,-2.5478,-2.574,-2.6138,-2.5878,-2.5908,-2.5848,-2.5258,-2.5175,-2.5388,-2.5296,-2.5404,-2.5696,-2.622,-2.6536,-2.6572,-2.6657,-2.6437,-2.5861,-2.6453,-2.6599,-2.6199,-2.6774,-2.7307,-2.7582,-2.7595,-2.7672,-2.7695,-2.7674,-2.7677,-2.7683,-2.7653,-2.7201,-2.6578,-2.6538,-2.6665,-2.676,-2.748,-2.7974,-2.8148,-2.8431,-2.873,-2.892,-2.9126,-2.923,-2.9291,-2.931,-2.9699,-3.0423,-3.0539,-3.072,-3.1262,-3.1356,-3.1308,-3.1447,-3.1913,-3.2511,-3.3201,-3.3931,-3.4446,-3.4618,-3.4662,-3.4116,-3.3343,-3.3062,-3.2714,-3.1952,-3.2538,-3.2796,-3.2801,-3.3083,-3.2791,-3.1951,-3.0836,-3.0119,-2.967,-2.9227,-2.8796,-2.8581,-2.8065,-2.7453,-2.6929,-2.6663,-2.655,-2.6295,-2.6421,-2.6423,-2.6531,-2.6743,-2.6517,-2.612,-2.5843,-2.5812,-2.5712,-2.5472,-2.5464,-2.558,-2.5675,-2.5691,-2.5802,-2.575,-2.5521,-2.5444,-2.492,-2.501,-2.7937,-2.7617,-2.7246,-2.6604,-2.5926,-2.5786,-2.5476,-2.4925,-2.4956,-2.4852,-2.4712,-2.4652,-2.4783,-2.4998,-2.4928,-2.5114,-2.5316,-2.4851,-2.4797,-2.5152,-2.5187,-2.5438,-2.5828,-2.6206,-2.6434,-2.6572,-2.6691,-2.6607,-2.6419,-2.6853,-2.6997,-2.6933,-2.7291,-2.7595,-2.7701,-2.7701,-2.7829,-2.8047,-2.804,-2.7906,-2.7605,-2.7212,-2.6607,-2.5876,-2.6925,-2.7236,-2.662,-2.7411,-2.7711,-2.7383,-2.7972,-2.8331,-2.8408,-2.8973,-2.9341,-2.9476,-2.9495,-2.9644,-2.9983,-2.9961,-2.9911,-2.9995,-3.0373,-3.0521,-3.0516,-3.102,-3.1565,-3.1918,-3.2578,-3.2865,-3.2786,-3.3736,-3.4427,-3.3812,-3.3618,-3.3108,-3.2441,-3.2353,-3.2385,-3.2113,-3.1915,-3.121,-3.0412,-2.9566,-2.922,-2.9046,-2.8648,-2.8396,-2.8249,-2.7741,-2.7169,-2.6962,-2.6681,-2.6397,-2.6138,-2.6365,-2.657,-2.6697,-2.6777,-2.6834,-2.6586,-2.6338,-2.6286,-2.5854,-2.5461,-2.5436,-2.5761,-2.5745,-2.5712,-2.5675,-2.5562,-2.5508,-2.5233,-2.5012,-2.4862,-2.7151,-2.6444,-2.6206,-2.5771,-2.5258,-2.5123,-2.4867,-2.4563,-2.4606,-2.4435,-2.417,-2.4276,-2.4441,-2.4508,-2.4655,-2.4858,-2.5124,-2.4653,-2.4605,-2.5005,-2.5208,-2.553,-2.5881,-2.6154,-2.6399,-2.6503,-2.6691,-2.6875,-2.7053,-2.7227,-2.7382,-2.7517,-2.7513,-2.7533,-2.7589,-2.7599,-2.7656,-2.7695,-2.7871,-2.7786,-2.7269,-2.6875,-2.6237,-2.5754,-2.69,-2.7263,-2.6388,-2.7071,-2.7335,-2.7083,-2.7755,-2.8372,-2.8689,-2.9233,-2.9623,-2.9801,-2.9829,-2.982,-2.9841,-2.9773,-2.9608,-2.9351,-2.9665,-2.9881,-2.9837,-3.0222,-3.0545,-3.0867,-3.1235,-3.1391,-3.1492,-3.2552,-3.3373,-3.3127,-3.3082,-3.2723,-3.193,-3.1744,-3.1612,-3.1305,-3.0803,-3.0023,-2.9348,-2.9047,-2.8827,-2.8628,-2.8234,-2.7921,-2.7838,-2.7325,-2.6862,-2.6866,-2.6593,-2.636,-2.6228,-2.64,-2.6428,-2.6519,-2.6672,-2.6798,-2.6869,-2.6689,-2.6477,-2.6003,-2.586,-2.5844,-2.5844,-2.5881,-2.5844,-2.5844,-2.5901,-2.5885,-2.5566,-2.5234,-2.5045,-2.6811,-2.5644,-2.4866,-2.4373,-2.3863,-2.3833,-2.3655,-2.3771,-2.3857,-2.4055,-2.4219,-2.4574,-2.4839,-2.4942,-2.5237,-2.546,-2.5355,-2.495,-2.4871,-2.5123,-2.5476,-2.5754,-2.599,-2.6295,-2.6469,-2.6606,-2.6973,-2.7334,-2.749,-2.7619,-2.7765,-2.786,-2.7388,-2.7269,-2.7429,-2.7368,-2.7037,-2.6745,-2.7269,-2.7288,-2.6631,-2.6631,-2.6321,-2.5708,-2.6339,-2.6414,-2.5743,-2.647,-2.6842,-2.6897,-2.7825,-2.895,-2.9749,-3.003,-3.0118,-3.0188,-3.0202,-3.0099,-2.9984,-2.9893,-2.9718,-2.9551,-2.9468,-2.9541,-2.9556,-2.9425,-2.9591,-3.0102,-3.029,-3.0323,-3.0677,-3.0588,-3.0625,-3.0972,-3.1102,-3.0874,-3.0754,-3.0628,-3.0481,-3.0475,-3.0176,-2.9872,-2.9539,-2.9024,-2.8657,-2.8373,-2.7891,-2.747,-2.7437,-2.6935,-2.6517,-2.6502,-2.6554,-2.6589,-2.6487,-2.6417,-2.6258,-2.6201,-2.6372,-2.6543,-2.6571,-2.6488,-2.6485,-2.6154,-2.6151,-2.6134,-2.6139,-2.6139,-2.6208,-2.6208,-2.6279,-2.621,-2.5933,-2.5573,-2.5059,-2.6198,-2.5414,-2.4774,-2.4164,-2.364,-2.3595,-2.3767,-2.4078,-2.4173,-2.4446,-2.4839,-2.5114,-2.5253,-2.5313,-2.5465,-2.5519,-2.5519,-2.5519,-2.561,-2.5758,-2.6068,-2.6315,-2.6521,-2.6791,-2.7004,-2.7132,-2.7369,-2.7225,-2.7029,-2.749,-2.7685,-2.7281,-2.7324,-2.7453,-2.7432,-2.7196,-2.6845,-2.6777,-2.6984,-2.6746,-2.6042,-2.6151,-2.5858,-2.5186,-2.5427,-2.5513,-2.5399,-2.5937,-2.6061,-2.575,-2.7124,-2.8643,-2.9868,-3.0199,-3.018,-3.0215,-3.0216,-3.0163,-3.0007,-2.9984,-2.9886,-2.9786,-2.9753,-2.9753,-2.9735,-2.9551,-2.9566,-2.9843,-3.0123,-3.0175,-2.9307,-2.9407,-2.9669,-3.0225,-2.9746,-2.9375,-2.9479,-2.9763,-2.999,-2.9934,-2.9748,-2.9254,-2.8535,-2.81,-2.8042,-2.7844,-2.7386,-2.7114,-2.703,-2.6894,-2.6691,-2.6691,-2.6791,-2.6922,-2.6889,-2.6787,-2.6652,-2.6488,-2.6522,-2.659,-2.6556,-2.6521,-2.6521,-2.6504,-2.6503,-2.6486,-2.6454,-2.6471,-2.6505,-2.6419,-2.6351,-2.63,-2.6197,-2.5712,-2.4962,-2.5646,-2.5425,-2.4834,-2.4405,-2.4078,-2.409,-2.4271,-2.4517,-2.4608,-2.4831,-2.5176,-2.5497,-2.5668,-2.5762,-2.5872,-2.5997,-2.6049,-2.6262,-2.6401,-2.6385,-2.6522,-2.6691,-2.6858,-2.7117,-2.7352,-2.7447,-2.7373,-2.7148,-2.6854,-2.7094,-2.7092,-2.6788,-2.6731,-2.6706,-2.6746,-2.6477,-2.6227,-2.6043,-2.6302,-2.6149,-2.5579,-2.5552,-2.5437,-2.5038,-2.5087,-2.5164,-2.5217,-2.5551,-2.5565,-2.5492,-2.6756,-2.8497,-3.0107,-3.0279,-3.0279,-3.0311,-3.0285,-3.0228,-3.008,-3.0052,-2.9992,-2.9934,-2.9902,-2.9902,-2.9886,-2.975,-2.9716,-2.9793,-2.9739,-2.942,-2.8577,-2.8072,-2.8275,-2.8375,-2.8125,-2.8022,-2.8299,-2.8725,-2.913,-2.9166,-2.9188,-2.873,-2.8187,-2.7904,-2.776,-2.7582,-2.7444,-2.7286,-2.7217,-2.7026,-2.6978,-2.6978,-2.7061,-2.716,-2.7278,-2.7187,-2.7039,-2.6913,-2.6813,-2.6871,-2.6892,-2.6875,-2.6875,-2.6892,-2.6893,-2.6893,-2.6908,-2.6842,-2.6859,-2.6691,-2.6488,-2.6454,-2.6266,-2.5169,-2.4478,-2.5201,-2.5508,-2.5017,-2.4766,-2.4735,-2.4799,-2.4863,-2.4942,-2.5044,-2.516,-2.5422,-2.5868,-2.6068,-2.621,-2.6419,-2.6657,-2.6892,-2.6754,-2.6935,-2.6985,-2.6901,-2.6835,-2.7051,-2.7382,-2.7584,-2.7582,-2.7209,-2.7038,-2.6977,-2.6638,-2.6322,-2.6319,-2.5795,-2.5381,-2.5551,-2.5465,-2.5226,-2.489,-2.5452,-2.5518,-2.4969,-2.5057,-2.5168,-2.5201,-2.5192,-2.5212,-2.525,-2.5339,-2.5388,-2.5568,-2.7079,-2.8706,-3.004,-3.0348,-3.0352,-3.0332,-3.037,-3.0244,-3.0145,-3.0112,-3.008,-2.9996,-2.9981,-2.9918,-2.9965,-2.9931,-2.9807,-2.9674,-2.9153,-2.8626,-2.8115,-2.7229,-2.6415,-2.6118,-2.6562,-2.6933,-2.7474,-2.7689,-2.8195,-2.867,-2.873,-2.8619,-2.8344,-2.8291,-2.8192,-2.8057,-2.7921,-2.7705,-2.7581,-2.7214,-2.7228,-2.7121,-2.6871,-2.6851,-2.6764,-2.6676,-2.6591,-2.6894,-2.676,-2.6723,-2.702,-2.7126,-2.723,-2.7264,-2.725,-2.725,-2.7218,-2.7137,-2.6967,-2.673,-2.6642,-2.6664,-2.6031,-2.4932,-2.4279,-2.5272,-2.5381,-2.4879,-2.4719,-2.4815,-2.4879,-2.5082,-2.5335,-2.5486,-2.5766,-2.6137,-2.6401,-2.6505,-2.6556,-2.6624,-2.6891,-2.6943,-2.6671,-2.6969,-2.7537,-2.7023,-2.721,-2.7759,-2.8065,-2.7942,-2.7554,-2.7373,-2.6913,-2.5987,-2.618,-2.6016,-2.5552,-2.5481,-2.541,-2.5448,-2.5192,-2.5009,-2.4861,-2.5132,-2.5348,-2.5206,-2.5184,-2.5212,-2.5264,-2.5302,-2.5322,-2.5341,-2.536,-2.6024,-2.7171,-2.8202,-2.93,-3.0293,-3.0367,-3.0117,-2.982,-3.0048,-3.0063,-2.9656,-2.9958,-3.0248,-3.0273,-3.0215,-3.026,-3.0279,-3.0128,-2.978,-2.9317,-2.8772,-2.8123,-2.7066,-2.6441,-2.6132,-2.6095,-2.6204,-2.645,-2.7076,-2.7608,-2.815,-2.875,-2.8791,-2.8572,-2.8428,-2.8208,-2.8111,-2.7995,-2.7647,-2.7281,-2.7215,-2.6724,-2.6433,-2.6229,-2.6081,-2.6116,-2.6108,-2.6063,-2.6179,-2.665,-2.6597,-2.6295,-2.6775,-2.7286,-2.7437,-2.76,-2.7465,-2.7452,-2.7327,-2.7233,-2.7006,-2.6692,-2.6644,-2.6523,-2.5747,-2.4809,-2.4322,-2.5233,-2.5462,-2.525,-2.4978,-2.483,-2.4949,-2.5175,-2.5518,-2.5728,-2.6017,-2.6417,-2.6933,-2.6739,-2.621,-2.6791,-2.6843,-2.6516,-2.6463,-2.6651,-2.6774,-2.6526,-2.6846,-2.7477,-2.7698,-2.755,-2.7459,-2.7191,-2.6626,-2.596,-2.5983,-2.5607,-2.5153,-2.5148,-2.525,-2.5209,-2.5087,-2.4955,-2.5,-2.5099,-2.5313,-2.5721,-2.5751,-2.5821,-2.5871,-2.588,-2.5803,-2.5513,-2.5707,-2.6564,-2.7692,-2.8405,-2.9186,-3.0265,-3.0032,-2.9809,-2.9624,-2.9555,-2.9198,-2.9256,-2.9602,-2.9813,-2.9948,-3.014,-3.0379,-3.0367,-3.0267,-2.9883,-2.9136,-2.8886,-2.8153,-2.7191,-2.677,-2.6749,-2.6854,-2.6849,-2.7098,-2.7568,-2.7941,-2.8439,-2.883,-2.8727,-2.8328,-2.8221,-2.784,-2.7664,-2.7547,-2.7242,-2.7014,-2.6845,-2.6118,-2.571,-2.5749,-2.5723,-2.5828,-2.5878,-2.5842,-2.5615,-2.6056,-2.6441,-2.6129,-2.6514,-2.7201,-2.7571,-2.767,-2.7631,-2.7495,-2.7213,-2.6953,-2.6766,-2.6541,-2.6515,-2.6057,-2.5247,-2.4557,-2.4104,-2.5237,-2.5561,-2.5766,-2.5447,-2.4839,-2.4978,-2.5196,-2.5471,-2.5612,-2.5829,-2.6194,-2.7005,-2.6568,-2.5532,-2.6592,-2.6676,-2.5597,-2.6038,-2.5959,-2.5882,-2.581,-2.6231,-2.6613,-2.6693,-2.6754,-2.6936,-2.6481,-2.6213,-2.5882,-2.5616,-2.5276,-2.4923,-2.4898,-2.4912,-2.4993,-2.5006,-2.5006,-2.5043,-2.5126,-2.5625,-2.6235,-2.6419,-2.6535,-2.6813,-2.684,-2.6425,-2.6069,-2.6332,-2.7219,-2.8048,-2.7971,-2.8741,-2.9905,-2.9421,-2.9421,-2.9698,-2.8909,-2.8371,-2.8844,-2.9047,-2.9182,-2.9325,-2.9982,-3.0394,-3.0425,-3.0375,-2.996,-2.8912,-2.8978,-2.8368,-2.7712,-2.7539,-2.7529,-2.7529,-2.8023,-2.8395,-2.8489,-2.8387,-2.8577,-2.9097,-2.8413,-2.7945,-2.769,-2.7361,-2.6935,-2.728,-2.691,-2.6594,-2.6334,-2.5779,-2.5646,-2.5805,-2.5758,-2.5671,-2.5688,-2.5703,-2.5404,-2.5381,-2.5983,-2.61,-2.6303,-2.6874,-2.745,-2.7611,-2.7093,-2.6788,-2.6581,-2.6409,-2.6341,-2.5947,-2.5594,-2.5196,-2.4678,-2.4091,-2.3598,-2.5628,-2.5137,-2.5514,-2.5259,-2.4683,-2.4754,-2.4923,-2.4996,-2.516,-2.5392,-2.5634,-2.581,-2.5973,-2.6073,-2.5983,-2.5747,-2.5569,-2.5386,-2.5076,-2.5167,-2.5436,-2.5448,-2.5687,-2.6002,-2.6155,-2.5996,-2.575,-2.5466,-2.5132,-2.5144,-2.4848,-2.4898,-2.4893,-2.4907,-2.4942,-2.5049,-2.5084,-2.5099,-2.5253,-2.5803,-2.6554,-2.679,-2.7113,-2.7633,-2.7729,-2.7323,-2.6877,-2.7316,-2.817,-2.8652,-2.8338,-2.823,-2.9058,-2.8643,-2.8613,-2.8931,-2.8478,-2.7939,-2.8219,-2.8675,-2.91,-2.9049,-2.9709,-3.0554,-3.0472,-3.0366,-2.968,-2.8627,-2.8164,-2.7873,-2.7274,-2.7552,-2.7723,-2.7816,-2.7915,-2.8007,-2.7979,-2.8193,-2.8422,-2.837,-2.7848,-2.727,-2.7306,-2.7101,-2.6893,-2.6948,-2.6611,-2.6163,-2.577,-2.5377,-2.5403,-2.554,-2.5444,-2.5288,-2.5254,-2.5261,-2.5133,-2.4968,-2.543,-2.5706,-2.5914,-2.6144,-2.6561,-2.6554,-2.6262,-2.6078,-2.6063,-2.5985,-2.5968,-2.5305,-2.4679,-2.4433,-2.4074,-2.3552,-2.3246,-2.5363,-2.5379,-2.5605,-2.5306,-2.4722,-2.4785,-2.4723,-2.4597,-2.4698,-2.4945,-2.5277,-2.5522,-2.5544,-2.5254,-2.5508,-2.5535,-2.4923,-2.4581,-2.4451,-2.4598,-2.4835,-2.4874,-2.4855,-2.5318,-2.5486,-2.5448,-2.5652,-2.5458,-2.5298,-2.522,-2.5286,-2.5012,-2.505,-2.5126,-2.5122,-2.5196,-2.5264,-2.5299,-2.5418,-2.603,-2.7137,-2.7399,-2.7808,-2.8371,-2.8301,-2.7692,-2.6928,-2.7174,-2.744,-2.744,-2.7141,-2.7584,-2.8666,-2.8097,-2.7856,-2.8232,-2.7393,-2.7094,-2.7401,-2.7785,-2.8014,-2.8076,-2.8885,-2.9214,-2.9361,-2.9392,-2.8747,-2.7823,-2.7624,-2.7672,-2.7296,-2.7557,-2.7885,-2.7904,-2.7885,-2.7865,-2.7868,-2.7908,-2.7937,-2.7754,-2.7109,-2.6733,-2.658,-2.651,-2.625,-2.6043,-2.588,-2.5469,-2.5416,-2.5077,-2.4953,-2.4964,-2.4934,-2.4855,-2.4791,-2.4786,-2.4818,-2.4771,-2.4927,-2.504,-2.5059,-2.5287,-2.5524,-2.5651,-2.5881,-2.5726,-2.5697,-2.565,-2.5314,-2.4555,-2.4035,-2.3821,-2.3614,-2.331,-2.3085,-2.4927,-2.5483,-2.5743,-2.5372,-2.4678,-2.4746,-2.4601,-2.4212,-2.4264,-2.4421,-2.4779,-2.5543,-2.4924,-2.4353,-2.5127,-2.4918,-2.4299,-2.413,-2.4301,-2.4414,-2.4539,-2.4591,-2.4607,-2.4832,-2.5136,-2.5566,-2.5543,-2.5568,-2.5661,-2.5882,-2.5457,-2.521,-2.5264,-2.5311,-2.5387,-2.541,-2.5406,-2.5447,-2.5732,-2.6476,-2.7809,-2.8171,-2.8715,-2.903,-2.8821,-2.8067,-2.7386,-2.7195,-2.6882,-2.5976,-2.5809,-2.689,-2.7867,-2.7648,-2.7105,-2.7834,-2.6605,-2.6238,-2.6773,-2.6939,-2.698,-2.6831,-2.7654,-2.8094,-2.8217,-2.8268,-2.7821,-2.7389,-2.7224,-2.7604,-2.772,-2.7649,-2.7702,-2.7694,-2.7694,-2.7625,-2.7544,-2.7294,-2.7115,-2.7195,-2.6572,-2.6078,-2.5882,-2.5749,-2.5416,-2.5153,-2.5043,-2.4962,-2.4949,-2.4955,-2.4904,-2.4896,-2.4947,-2.498,-2.4915,-2.4855,-2.4823,-2.4757,-2.476,-2.4676,-2.4625,-2.4818,-2.517,-2.5564,-2.5698,-2.5451,-2.5263,-2.5161,-2.4671,-2.3831,-2.3642,-2.3721,-2.3512,-2.3161,-2.297,-2.4722,-2.4351,-2.526,-2.484,-2.3791,-2.4392,-2.4342,-2.372,-2.3799,-2.3853,-2.3974,-2.4115,-2.4179,-2.3961,-2.3958,-2.4158,-2.4228,-2.4355,-2.4476,-2.4561,-2.4642,-2.4654,-2.4682,-2.4834,-2.5038,-2.5031,-2.5102,-2.512,-2.5175,-2.5139,-2.5346,-2.5312,-2.5387,-2.5453,-2.5473,-2.5486,-2.5537,-2.574,-2.6096,-2.6946,-2.809,-2.8924,-2.9265,-2.9556,-2.9266,-2.8697,-2.8112,-2.7969,-2.7989,-2.7791,-2.7114,-2.7028,-2.7128,-2.6384,-2.6592,-2.7133,-2.6403,-2.5887,-2.6514,-2.6786,-2.6838,-2.7026,-2.7507,-2.7999,-2.8023,-2.7968,-2.7412,-2.7045,-2.6798,-2.6974,-2.6974,-2.6997,-2.6966,-2.6807,-2.6475,-2.6098,-2.6001,-2.6025,-2.6217,-2.6603,-2.6034,-2.5514,-2.5475,-2.5446,-2.536,-2.5284,-2.5235,-2.5165,-2.5163,-2.516,-2.5149,-2.5134,-2.5137,-2.5156,-2.5156,-2.5113,-2.5063,-2.4907,-2.4879,-2.4787,-2.4726,-2.4679,-2.4918,-2.5208,-2.5132,-2.474,-2.4627,-2.4679,-2.4413,-2.3904,-2.3815,-2.3799,-2.3529,-2.323,-2.3028,-2.4302,-2.4406,-2.4995,-2.4825,-2.4277,-2.4574,-2.4374,-2.3732,-2.3656,-2.3678,-2.3786,-2.3876,-2.3921,-2.3981,-2.4079,-2.4229,-2.4389,-2.4526,-2.4642,-2.4707,-2.4799,-2.4858,-2.4885,-2.5048,-2.5149,-2.5187,-2.5154,-2.5091,-2.5157,-2.5264,-2.5316,-2.5391,-2.5473,-2.551,-2.5542,-2.5547,-2.5819,-2.6123,-2.6326,-2.7078,-2.8655,-2.9619,-2.9901,-2.9589,-2.9392,-2.8863,-2.7803,-2.7613,-2.7357,-2.691,-2.6515,-2.6359,-2.62,-2.6071,-2.5955,-2.6523,-2.6071,-2.574,-2.6143,-2.6277,-2.6233,-2.6267,-2.6755,-2.6883,-2.6876,-2.6751,-2.6719,-2.6373,-2.6176,-2.6113,-2.6113,-2.6223,-2.6203,-2.6133,-2.5828,-2.5632,-2.5546,-2.5549,-2.5848,-2.6178,-2.5778,-2.5479,-2.5432,-2.5401,-2.5398,-2.5387,-2.5395,-2.5371,-2.5348,-2.534,-2.5303,-2.5273,-2.5239,-2.5225,-2.5225,-2.5214,-2.5191,-2.5088,-2.4974,-2.4907,-2.4818,-2.4794,-2.4707,-2.4752,-2.4482,-2.4339,-2.434,-2.4505,-2.4225,-2.4036,-2.403,-2.3925,-2.3616,-2.3353,-2.3133,-2.3853,-2.4347,-2.4807,-2.487,-2.4743,-2.4906,-2.4534,-2.3922,-2.3768,-2.3807,-2.3873,-2.4019,-2.4117,-2.4192,-2.4355,-2.4508,-2.457,-2.4682,-2.4785,-2.4883,-2.5022,-2.5105,-2.5138,-2.5252,-2.5333,-2.5364,-2.5466,-2.5499,-2.5391,-2.5453,-2.5505,-2.5529,-2.554,-2.5712,-2.5882,-2.5496,-2.6103,-2.6193,-2.5966,-2.6715,-2.8379,-2.9329,-2.9476,-2.8836,-2.8729,-2.7949,-2.6815,-2.6729,-2.6449,-2.6062,-2.5787,-2.573,-2.5718,-2.57,-2.5691,-2.5707,-2.5697,-2.5697,-2.5717,-2.5745,-2.5831,-2.5837,-2.5733,-2.574,-2.5782,-2.5951,-2.5781,-2.5566,-2.5581,-2.5639,-2.5707,-2.5675,-2.573,-2.5745,-2.5742,-2.5687,-2.5664,-2.5656,-2.5663,-2.5731,-2.5518,-2.5506,-2.5486,-2.5493,-2.5531,-2.5531,-2.5531,-2.546,-2.5425,-2.5406,-2.5365,-2.5331,-2.5303,-2.5271,-2.525,-2.5239,-2.5206,-2.5168,-2.5088,-2.5019,-2.4966,-2.4893,-2.4808,-2.4749,-2.4578,-2.4478,-2.4409,-2.4302,-2.4191,-2.4133,-2.419,-2.4054,-2.3732,-2.3473,-2.3242,-2.341,-2.3151,-2.4535,-2.4738,-2.421,-2.4738,-2.4686,-2.3996,-2.3984,-2.4135,-2.4116,-2.4265,-2.4355,-2.4441,-2.4586,-2.4712,-2.4809,-2.4974,-2.5111,-2.5173,-2.5187,-2.5192,-2.5294,-2.5434,-2.5317,-2.5374,-2.5556,-2.5565,-2.5621,-2.5673,-2.5712,-2.578,-2.5987,-2.6052,-2.6659,-2.5859,-2.5047,-2.5603,-2.5077,-2.5195,-2.6091,-2.6496,-2.6514,-2.6341,-2.6345,-2.6268,-2.5937,-2.5936,-2.5837,-2.5779,-2.57,-2.5699,-2.57,-2.57,-2.57,-2.5697,-2.5697,-2.5697,-2.5694,-2.5705,-2.5701,-2.5705,-2.569,-2.5704,-2.5704,-2.5684,-2.5671,-2.5699,-2.5655,-2.5645,-2.5648,-2.5687,-2.5691,-2.5703,-2.5693,-2.5693,-2.5693,-2.5691,-2.5699,-2.5695,-2.5615,-2.5625,-2.5634,-2.5639,-2.5667,-2.5663,-2.5658,-2.5571,-2.5517,-2.5479,-2.5422,-2.5365,-2.535,-2.5332,-2.5292,-2.5262,-2.5228,-2.5203,-2.5168,-2.5144,-2.5088,-2.5051,-2.5101,-2.5012,-2.4794,-2.4594,-2.4476,-2.4374,-2.4247,-2.419,-2.419,-2.4054,-2.3855,-2.3606,-2.3405,-2.241,-2.2135,-2.2941,-2.307,-2.2813,-2.3143,-2.3382,-2.3493,-2.3474,-2.3769,-2.4228,-2.4441,-2.4604,-2.4733,-2.4968,-2.5046,-2.5122,-2.5197,-2.532,-2.5172,-2.4984,-2.4794,-2.4717,-2.4696,-2.4689,-2.4994,-2.5478,-2.6021,-2.6077,-2.6337,-2.6559,-2.7036,-2.7108,-2.7315,-2.7595,-2.6931,-2.6562,-2.6287,-2.5616,-2.5086,-2.5121,-2.5322,-2.5369,-2.4991,-2.5356,-2.5343,-2.5153,-2.5508,-2.5664,-2.5703,-2.5703,-2.5703,-2.5702,-2.5701,-2.5701,-2.5701,-2.5701,-2.5703,-2.5701,-2.5696,-2.5698,-2.5696,-2.5703,-2.5687,-2.5687,-2.5673,-2.5654,-2.569,-2.5691,-2.5696,-2.5694,-2.5698,-2.5694,-2.5689,-2.5689,-2.5701,-2.5696,-2.5697,-2.5699,-2.5699,-2.5699,-2.5699,-2.5699,-2.5695,-2.5675,-2.5671,-2.5671,-2.5639,-2.5595,-2.5549,-2.5473,-2.5387,-2.5382,-2.5376,-2.5313,-2.5293,-2.525,-2.5225,-2.521,-2.5168,-2.5199,-2.5199,-2.5199,-2.5088,-2.4851,-2.467,-2.4543,-2.4374,-2.4228,-2.419,-2.419,-2.4094,-2.3976,-2.3813,-2.358,-2.1359,-2.109,-2.1633,-2.185,-2.1869,-2.1884,-2.2298,-2.2827,-2.2848,-2.3198,-2.3739,-2.4005,-2.4333,-2.4736,-2.484,-2.4832,-2.4927,-2.5078,-2.4946,-2.4703,-2.4515,-2.4238,-2.4141,-2.4007,-2.4146,-2.4127,-2.4879,-2.5605,-2.6386,-2.703,-2.7613,-2.8257,-2.7987,-2.8301,-2.83,-2.746,-2.6559,-2.5008,-2.4269,-2.3698,-2.3486,-2.3828,-2.3724,-2.3852,-2.428,-2.4746,-2.4344,-2.5192,-2.5683,-2.5701,-2.57,-2.5698,-2.5693,-2.5693,-2.5691,-2.5691,-2.5693,-2.5697,-2.5703,-2.5703,-2.5703,-2.5702,-2.5698,-2.5691,-2.5703,-2.5652,-2.5636,-2.5691,-2.5701,-2.5703,-2.5703,-2.5703,-2.5703,-2.5702,-2.5698,-2.5687,-2.5693,-2.5707,-2.5697,-2.5694,-2.5694,-2.5699,-2.5699,-2.5699,-2.5699,-2.5699,-2.5699,-2.5699,-2.5663,-2.56,-2.5554,-2.5486,-2.5432,-2.5422,-2.5367,-2.5313,-2.5262,-2.5236,-2.5222,-2.521,-2.521,-2.518,-2.5168,-2.5019,-2.4865,-2.4682,-2.4508,-2.4338,-2.419,-2.419,-2.419,-2.419,-2.4113,-2.3955,-2.3732,-2.0471,-1.995,-2.1336,-2.1832,-2.1848,-2.2133,-2.2149,-2.2149,-2.2363,-2.2519,-2.2821,-2.2866,-2.3424,-2.386,-2.4062,-2.4116,-2.4107,-2.4277,-2.3978,-2.3811,-2.3859,-2.3669,-2.353,-2.3606,-2.3854,-2.3545,-2.4414,-2.523,-2.5971,-2.7471,-2.7938,-2.8225,-2.839,-2.8795,-2.8364,-2.7157,-2.5263,-2.3573,-2.2347,-2.1578,-2.1269,-2.1299,-2.1221,-2.1497,-2.2405,-2.3271,-2.3293,-2.4809,-2.5693,-2.5691,-2.5693,-2.5693,-2.5689,-2.5687,-2.5687,-2.5687,-2.5687,-2.5691,-2.5696,-2.5699,-2.5699,-2.5698,-2.5701,-2.5683,-2.5683,-2.57,-2.57,-2.5682,-2.5683,-2.5702,-2.5701,-2.5699,-2.5698,-2.5702,-2.5703,-2.5702,-2.5697,-2.5687,-2.5703,-2.5696,-2.5704,-2.5694,-2.5699,-2.5699,-2.5699,-2.5699,-2.5699,-2.5699,-2.5699,-2.5663,-2.5643,-2.56,-2.5529,-2.546,-2.5398,-2.535,-2.5273,-2.5236,-2.521,-2.521,-2.521,-2.518,-2.5168,-2.4987,-2.4814,-2.4632,-2.4472,-2.4321,-2.4209,-2.4209,-2.419,-2.419,-2.4132,-2.3976,-2.3753,-1.8554,-1.8372,-1.8937,-1.9488,-1.997,-2.0031,-2.0361,-2.0804,-2.095,-2.1653,-2.2555,-2.2738,-2.2929,-2.3186,-2.3335,-2.3379,-2.3423,-2.3517,-2.327,-2.3032,-2.2927,-2.2619,-2.2507,-2.2667,-2.2848,-2.33,-2.441,-2.565,-2.6607,-2.7563,-2.8018,-2.8314,-2.8502,-2.8686,-2.8101,-2.6788,-2.491,-2.3505,-2.2012,-2.1149,-2.0579,-2.0516,-2.0516,-2.072,-2.2159,-2.2974,-2.3374,-2.4771,-2.5422,-2.5664,-2.5648,-2.5648,-2.5687,-2.5707,-2.5668,-2.5646,-2.5646,-2.5661,-2.5659,-2.5666,-2.5685,-2.5648,-2.5673,-2.5679,-2.5659,-2.5641,-2.566,-2.5676,-2.565,-2.5666,-2.5693,-2.5691,-2.5693,-2.5696,-2.5699,-2.5702,-2.5703,-2.5701,-2.5696,-2.5689,-2.5698,-2.5704,-2.5691,-2.5699,-2.5699,-2.5699,-2.5699,-2.5699,-2.5699,-2.5695,-2.5667,-2.5605,-2.5529,-2.5439,-2.5365,-2.5322,-2.5262,-2.5248,-2.521,-2.521,-2.521,-2.521,-2.5156,-2.4955,-2.4752,-2.457,-2.4407,-2.4303,-2.419,-2.4151,-2.417,-2.419,-2.4094,-2.3976,-2.3855,-1.7435,-1.7443,-1.7463,-1.7928,-1.8667,-1.8716,-1.9211,-1.9898,-1.9811,-2.0344,-2.1643,-2.1894,-2.2265,-2.2431,-2.2585,-2.2624,-2.2637,-2.2647,-2.2491,-2.226,-2.1968,-2.1637,-2.158,-2.1777,-2.2285,-2.3026,-2.4069,-2.5225,-2.5966,-2.7214,-2.7391,-2.7595,-2.8193,-2.8197,-2.8021,-2.6552,-2.5226,-2.4222,-2.3054,-2.1806,-2.1116,-2.097,-2.096,-2.116,-2.236,-2.2929,-2.3358,-2.4329,-2.5041,-2.521,-2.5278,-2.5453,-2.5588,-2.5664,-2.5544,-2.5466,-2.5498,-2.5545,-2.5414,-2.5567,-2.5623,-2.5623,-2.5634,-2.564,-2.5618,-2.5612,-2.5637,-2.5637,-2.5619,-2.5613,-2.5679,-2.5679,-2.5703,-2.5689,-2.5691,-2.5696,-2.5701,-2.5703,-2.5702,-2.5698,-2.5689,-2.5693,-2.5701,-2.5691,-2.5699,-2.5699,-2.5699,-2.5699,-2.5699,-2.5671,-2.5658,-2.5571,-2.548,-2.5395,-2.5322,-2.5273,-2.5228,-2.5236,-2.521,-2.521,-2.521,-2.5199,-2.5076,-2.4865,-2.467,-2.4491,-2.4302,-2.4075,-2.4054,-2.4074,-2.4054,-2.4036,-2.417,-2.4074,-2.4034,-1.7403,-1.7608,-1.7516,-1.7945,-1.8602,-1.8754,-1.9218,-1.9758,-1.9458,-1.9335,-1.9697,-2.0315,-2.1082,-2.1611,-2.1771,-2.1798,-2.1815,-2.1806,-2.1543,-2.1133,-2.1406,-2.119,-2.1289,-2.1522,-2.2255,-2.2135,-2.3341,-2.4491,-2.4842,-2.6189,-2.6376,-2.6262,-2.6773,-2.7258,-2.7892,-2.6532,-2.53,-2.4413,-2.3454,-2.2691,-2.2021,-2.1789,-2.1756,-2.1979,-2.2669,-2.3213,-2.3517,-2.4218,-2.4834,-2.4904,-2.4871,-2.5147,-2.5576,-2.5597,-2.5324,-2.4796,-2.5182,-2.508,-2.4619,-2.5216,-2.5531,-2.56,-2.5617,-2.5598,-2.5604,-2.5609,-2.5605,-2.5629,-2.5601,-2.5601,-2.5632,-2.5662,-2.5696,-2.5701,-2.5705,-2.5689,-2.5697,-2.5699,-2.5703,-2.5703,-2.5694,-2.5698,-2.569,-2.5701,-2.5703,-2.5699,-2.5699,-2.5699,-2.5699,-2.5671,-2.5639,-2.5554,-2.5441,-2.5379,-2.5313,-2.525,-2.5222,-2.521,-2.521,-2.521,-2.5156,-2.5088,-2.4953,-2.4749,-2.4543,-2.4337,-2.4058,-2.3789,-2.3789,-2.3771,-2.3813,-2.3855,-2.4054,-2.4092,-2.3915,-1.6028,-1.6082,-1.6068,-1.6883,-1.8056,-1.8146,-1.8358,-1.8755,-1.943,-1.9641,-1.9414,-2.0094,-2.0574,-2.0871,-2.0958,-2.1002,-2.099,-2.1008,-2.0683,-2.0698,-2.0993,-2.1239,-2.1466,-2.2062,-2.2806,-2.3497,-2.4234,-2.4603,-2.524,-2.5834,-2.5815,-2.5706,-2.5829,-2.6042,-2.6229,-2.5648,-2.5138,-2.4404,-2.3878,-2.3431,-2.2706,-2.2557,-2.2523,-2.2537,-2.323,-2.3579,-2.365,-2.4358,-2.4719,-2.4899,-2.4927,-2.518,-2.5488,-2.5498,-2.5347,-2.4929,-2.5078,-2.4515,-2.4482,-2.4943,-2.5493,-2.5556,-2.5554,-2.556,-2.5579,-2.5605,-2.5595,-2.5604,-2.5613,-2.5621,-2.5662,-2.5676,-2.5703,-2.5705,-2.5707,-2.5687,-2.5693,-2.5693,-2.5697,-2.5703,-2.5701,-2.5705,-2.569,-2.5693,-2.5704,-2.5691,-2.5691,-2.5703,-2.5699,-2.5675,-2.5643,-2.5529,-2.5446,-2.5363,-2.5313,-2.5273,-2.5236,-2.5225,-2.5222,-2.521,-2.5113,-2.4987,-2.4851,-2.4689,-2.4407,-2.4118,-2.384,-2.3602,-2.3491,-2.345,-2.3473,-2.354,-2.371,-2.3646,-2.3463,-1.5313,-1.5362,-1.5644,-1.638,-1.7446,-1.7726,-1.8019,-1.8537,-1.975,-1.9939,-1.9502,-2.0117,-2.0536,-2.0525,-2.0511,-2.0501,-2.0506,-2.0544,-2.057,-2.0611,-2.0901,-2.1276,-2.1866,-2.2628,-2.3242,-2.4158,-2.4702,-2.5077,-2.5407,-2.5441,-2.5446,-2.5456,-2.5452,-2.5538,-2.5534,-2.5415,-2.5277,-2.4816,-2.4602,-2.4247,-2.3634,-2.332,-2.3185,-2.3089,-2.3294,-2.3581,-2.3818,-2.4231,-2.4728,-2.4949,-2.511,-2.5226,-2.5317,-2.5208,-2.5124,-2.4814,-2.4607,-2.4321,-2.4687,-2.4962,-2.5421,-2.549,-2.5478,-2.5511,-2.5551,-2.557,-2.5585,-2.5586,-2.56,-2.5621,-2.5655,-2.5673,-2.5679,-2.5679,-2.5683,-2.5683,-2.5705,-2.5687,-2.5691,-2.57,-2.5703,-2.5694,-2.5696,-2.5698,-2.5698,-2.569,-2.5704,-2.5694,-2.5703,-2.5675,-2.5667,-2.556,-2.5473,-2.541,-2.5374,-2.5312,-2.5293,-2.5239,-2.5236,-2.5214,-2.5032,-2.4888,-2.476,-2.4607,-2.4355,-2.4058,-2.3653,-2.341,-2.3218,-2.314,-2.3098,-2.32,-2.3364,-2.3312,-2.3188,-1.5332,-1.5526,-1.6243,-1.6594,-1.6913,-1.7811,-1.8524,-1.9221,-2.0036,-1.9959,-1.9294,-2.0123,-2.0497,-2.0507,-2.0504,-2.0506,-2.0516,-2.0504,-2.05,-2.0744,-2.1184,-2.1575,-2.2066,-2.2735,-2.3644,-2.4063,-2.4426,-2.4826,-2.5383,-2.5425,-2.5365,-2.5235,-2.5263,-2.5293,-2.5357,-2.5376,-2.5363,-2.5221,-2.5143,-2.4788,-2.4309,-2.4191,-2.3898,-2.3644,-2.34,-2.3458,-2.352,-2.3593,-2.3901,-2.4167,-2.4406,-2.4859,-2.4943,-2.4624,-2.4379,-2.4179,-2.415,-2.4482,-2.4822,-2.5042,-2.5303,-2.5378,-2.5387,-2.544,-2.548,-2.5517,-2.5538,-2.5574,-2.5576,-2.5595,-2.5613,-2.5648,-2.5678,-2.5668,-2.5676,-2.5679,-2.5703,-2.5705,-2.5687,-2.5696,-2.5701,-2.5703,-2.5697,-2.5696,-2.5694,-2.5689,-2.5703,-2.5696,-2.5707,-2.5703,-2.5667,-2.56,-2.5517,-2.5447,-2.5418,-2.5354,-2.5313,-2.5262,-2.525,-2.5206,-2.5013,-2.4804,-2.467,-2.451,-2.4303,-2.3976,-2.3513,-2.3164,-2.2927,-2.285,-2.2943,-2.2943,-2.3122,-2.32,-2.3146,-1.539,-1.543,-1.5644,-1.6464,-1.775,-1.916,-1.957,-1.9355,-2.0077,-1.998,-1.9238,-2.0116,-2.0484,-2.0516,-2.0517,-2.0504,-2.0499,-2.051,-2.0512,-2.0827,-2.1395,-2.2,-2.2662,-2.3372,-2.4215,-2.4505,-2.4593,-2.4485,-2.5125,-2.5293,-2.4908,-2.4572,-2.5052,-2.5216,-2.5293,-2.5321,-2.5348,-2.5365,-2.5346,-2.517,-2.5007,-2.4876,-2.457,-2.4224,-2.3676,-2.3734,-2.3965,-2.3685,-2.4058,-2.4722,-2.4934,-2.5215,-2.5186,-2.5014,-2.4774,-2.4034,-2.3986,-2.4098,-2.4364,-2.49,-2.5248,-2.5261,-2.528,-2.5332,-2.5406,-2.5445,-2.5503,-2.5512,-2.5562,-2.5565,-2.5576,-2.5591,-2.56,-2.5609,-2.5605,-2.5639,-2.5645,-2.5676,-2.5681,-2.5691,-2.5698,-2.5702,-2.5703,-2.5683,-2.5683,-2.5681,-2.5698,-2.5694,-2.5703,-2.5704,-2.5687,-2.5619,-2.5571,-2.5523,-2.5453,-2.5387,-2.5339,-2.5284,-2.5262,-2.5187,-2.4968,-2.479,-2.4623,-2.4425,-2.4229,-2.3795,-2.3277,-2.3052,-2.2977,-2.2902,-2.2935,-2.2884,-2.2841,-2.2993,-2.3049,-1.5402,-1.5461,-1.5793,-1.6901,-1.8531,-1.9899,-2.0143,-1.986,-2.0285,-2.0148,-1.9828,-2.0274,-2.0472,-2.0452,-2.0466,-2.0463,-2.0463,-2.0456,-2.0468,-2.0712,-2.1615,-2.2301,-2.3125,-2.3967,-2.4715,-2.4861,-2.4591,-2.4226,-2.4649,-2.4715,-2.4436,-2.4685,-2.5048,-2.5072,-2.5138,-2.5126,-2.5118,-2.5182,-2.5233,-2.5274,-2.5303,-2.5245,-2.4976,-2.4428,-2.3832,-2.3986,-2.4215,-2.3725,-2.4066,-2.4919,-2.5157,-2.5198,-2.519,-2.5133,-2.4739,-2.4134,-2.4258,-2.44,-2.4656,-2.4943,-2.5153,-2.521,-2.521,-2.5248,-2.5302,-2.5379,-2.5401,-2.5444,-2.5499,-2.555,-2.5537,-2.5543,-2.5523,-2.5529,-2.5556,-2.558,-2.5601,-2.5642,-2.5654,-2.5685,-2.5694,-2.5699,-2.5681,-2.5681,-2.5662,-2.5682,-2.5683,-2.5683,-2.5681,-2.5703,-2.5693,-2.5678,-2.5628,-2.5581,-2.5511,-2.5459,-2.5398,-2.533,-2.5303,-2.5179,-2.4968,-2.4832,-2.4682,-2.4458,-2.4155,-2.378,-2.3473,-2.3307,-2.3212,-2.3164,-2.3122,-2.3122,-2.3025,-2.2884,-2.291,-1.5434,-1.5474,-1.6392,-1.7606,-1.9082,-1.9983,-2.0336,-2.041,-2.0402,-2.0469,-2.0443,-2.0462,-2.0443,-2.039,-2.0366,-2.0346,-2.0352,-2.0352,-2.0366,-2.0508,-2.1989,-2.2779,-2.3242,-2.4303,-2.4985,-2.4868,-2.4251,-2.3386,-2.3582,-2.3839,-2.4309,-2.4901,-2.4975,-2.4968,-2.4981,-2.4968,-2.4987,-2.5049,-2.5138,-2.5222,-2.5253,-2.5081,-2.4601,-2.3467,-2.3045,-2.2934,-2.2909,-2.2954,-2.3158,-2.4308,-2.4923,-2.4994,-2.5019,-2.4777,-2.4331,-2.4274,-2.4333,-2.455,-2.4752,-2.5024,-2.5087,-2.5156,-2.518,-2.5203,-2.5269,-2.5322,-2.5359,-2.5382,-2.5441,-2.5471,-2.5485,-2.5452,-2.5444,-2.5439,-2.5467,-2.5515,-2.5552,-2.5598,-2.5619,-2.5651,-2.5659,-2.5666,-2.5634,-2.5612,-2.5642,-2.5644,-2.5648,-2.5652,-2.5662,-2.5681,-2.5689,-2.5701,-2.5662,-2.5632,-2.56,-2.5537,-2.5473,-2.5414,-2.535,-2.5234,-2.5053,-2.4917,-2.4785,-2.4586,-2.4352,-2.4136,-2.3883,-2.3702,-2.3577,-2.3534,-2.3512,-2.3459,-2.3318,-2.3098,-2.2993,-1.5853,-1.5403,-1.6895,-1.7815,-1.8308,-1.9709,-1.9941,-1.9457,-2.0088,-2.0377,-2.0421,-2.0417,-2.0372,-2.028,-2.0272,-2.0242,-2.0195,-2.0222,-2.0211,-2.0743,-2.1979,-2.2667,-2.3035,-2.4213,-2.5018,-2.4659,-2.3694,-2.2464,-2.2078,-2.2749,-2.3448,-2.3322,-2.3966,-2.4728,-2.4747,-2.4766,-2.4902,-2.4936,-2.4975,-2.5068,-2.5126,-2.5138,-2.4785,-2.4205,-2.3907,-2.3663,-2.3613,-2.3587,-2.3977,-2.4666,-2.4747,-2.479,-2.4794,-2.4205,-2.4148,-2.4341,-2.4162,-2.4384,-2.4695,-2.4934,-2.4993,-2.5044,-2.5101,-2.5168,-2.5225,-2.5282,-2.5322,-2.534,-2.5376,-2.5401,-2.541,-2.5374,-2.5365,-2.5363,-2.5387,-2.5453,-2.5496,-2.5552,-2.5601,-2.5609,-2.5632,-2.5605,-2.5585,-2.5589,-2.5601,-2.5609,-2.5613,-2.5623,-2.564,-2.5659,-2.57,-2.5693,-2.5701,-2.5681,-2.5656,-2.559,-2.5499,-2.5432,-2.5374,-2.5255,-2.5146,-2.5027,-2.4924,-2.479,-2.4595,-2.4414,-2.4296,-2.4191,-2.4082,-2.4008,-2.3911,-2.3852,-2.3767,-2.3577,-2.3437,-1.5984,-1.5457,-1.7078,-1.7786,-1.8095,-1.9559,-1.9778,-1.9239,-1.988,-2.0075,-1.9896,-2.0147,-2.0318,-2.0254,-2.0219,-2.0178,-2.0135,-2.0126,-2.0134,-2.0629,-2.1433,-2.2192,-2.3033,-2.3908,-2.4579,-2.4454,-2.3607,-2.2476,-2.1353,-2.1891,-2.2714,-2.2582,-2.363,-2.4245,-2.4283,-2.4471,-2.4779,-2.4818,-2.4804,-2.4861,-2.4936,-2.4962,-2.4702,-2.4379,-2.4068,-2.3936,-2.3808,-2.3723,-2.4035,-2.4426,-2.4654,-2.47,-2.461,-2.4279,-2.4264,-2.4376,-2.4301,-2.4083,-2.4538,-2.4764,-2.4851,-2.4921,-2.4987,-2.5057,-2.5191,-2.525,-2.5243,-2.5284,-2.5313,-2.535,-2.535,-2.5331,-2.5331,-2.5321,-2.5339,-2.539,-2.5446,-2.549,-2.5532,-2.5547,-2.5571,-2.5566,-2.5532,-2.5532,-2.5547,-2.5566,-2.5571,-2.5589,-2.5593,-2.5632,-2.5662,-2.57,-2.5694,-2.5693,-2.5679,-2.56,-2.5486,-2.5439,-2.5403,-2.5343,-2.5263,-2.5168,-2.5053,-2.4984,-2.4892,-2.4809,-2.4676,-2.4576,-2.4557,-2.452,-2.4388,-2.4259,-2.4155,-2.4081,-2.3967,-1.6008,-1.5584,-1.6939,-1.7574,-1.7818,-1.9284,-1.9484,-1.8977,-1.9701,-1.9682,-1.9185,-1.9868,-2.02,-2.0265,-2.0205,-2.018,-2.0126,-2.0039,-2.0049,-2.0298,-2.1015,-2.1653,-2.2399,-2.3228,-2.396,-2.4231,-2.368,-2.2935,-2.2079,-2.2525,-2.266,-2.251,-2.2868,-2.3407,-2.3557,-2.3946,-2.4461,-2.4493,-2.4491,-2.4607,-2.47,-2.4808,-2.4468,-2.4025,-2.3658,-2.3589,-2.3515,-2.3601,-2.3889,-2.4129,-2.4513,-2.4528,-2.4526,-2.4327,-2.4381,-2.4437,-2.4385,-2.4346,-2.4559,-2.4657,-2.4764,-2.4832,-2.4874,-2.5,-2.5149,-2.5206,-2.5201,-2.5222,-2.5264,-2.5303,-2.5303,-2.5264,-2.5264,-2.5293,-2.5303,-2.5322,-2.5371,-2.5427,-2.5467,-2.5486,-2.5486,-2.5486,-2.5473,-2.548,-2.5505,-2.5511,-2.5504,-2.5532,-2.5561,-2.5593,-2.5625,-2.5663,-2.5682,-2.5687,-2.5691,-2.561,-2.5504,-2.5517,-2.5493,-2.5439,-2.541,-2.5332,-2.528,-2.5244,-2.5159,-2.5088,-2.5037,-2.4962,-2.4954,-2.4946,-2.4752,-2.4576,-2.4554,-2.4479,-2.4487,-1.6143,-1.5967,-1.6318,-1.6431,-1.6696,-1.8172,-1.835,-1.7953,-1.9179,-1.9356,-1.8974,-1.942,-1.9909,-2.0144,-2.006,-2.0001,-1.9955,-1.9908,-1.9922,-2.0091,-2.0679,-2.1172,-2.1839,-2.2795,-2.3418,-2.3577,-2.3472,-2.2984,-2.2469,-2.2728,-2.2938,-2.2848,-2.3717,-2.4005,-2.3897,-2.4155,-2.4173,-2.4174,-2.4192,-2.4284,-2.4422,-2.4538,-2.4666,-2.4467,-2.4372,-2.4307,-2.4275,-2.4206,-2.43,-2.4338,-2.4339,-2.4321,-2.4339,-2.4302,-2.4321,-2.4339,-2.4303,-2.4321,-2.4393,-2.453,-2.4642,-2.4764,-2.4832,-2.5025,-2.5149,-2.5184,-2.5187,-2.519,-2.5233,-2.5264,-2.5264,-2.5201,-2.5171,-2.5253,-2.5293,-2.5265,-2.5272,-2.5335,-2.5379,-2.5387,-2.5395,-2.5371,-2.5357,-2.5382,-2.5437,-2.5444,-2.5459,-2.5473,-2.551,-2.5556,-2.5597,-2.5631,-2.5663,-2.5673,-2.5694,-2.5609,-2.5537,-2.5556,-2.5581,-2.5556,-2.5526,-2.5523,-2.548,-2.5428,-2.5406,-2.5332,-2.5288,-2.5269,-2.5269,-2.5224,-2.5037,-2.4898,-2.4879,-2.4847,-2.4799]}]]